[[{"header":{"parameterUnit":"m.s-1","parameterCategory":1,"la1":30.6,"la2":29.2853,"lo1":-89.7004,"lo2":-87.6739,"dy":0.0162,"dx":0.0183,"nx":112,"ny":82,"refTime":"2026-03-23T00:00:00:Z","depth":0,"parameterNumber":2,"parameterNumberName":"U-component_of_WINDS"},"data":[0.0,0.0,0.0,0.0,0.0,0.0,0.0,0.0,0.0,0.0,0.0,0.0,0.0,0.0,0.0,0.0,0.0,0.0,0.0,0.0,0.0,0.0,0.0,0.0,0.0,0.0,0.0,0.0,0.0,0.0,0.0,0.0,0.0,0.0,0.0,0.0,0.0,0.0,0.0,0.0,0.0,0.0,0.0,0.0,0.0,0.0,0.0,0.0,0.0,0.0,0.0,0.0,0.0,0.0,0.0,0.0,0.0,0.0,0.0,0.0,0.0,0.0,0.0,0.0,0.0,0.0,0.0,0.0,0.0,0.0,0.0,0.0,0.0,0.0,0.0,0.0,0.0,0.0,0.0,0.0,0.0,0.0,0.0,0.0,0.0,0.0,0.0,0.0,0.0,0.0,-3.9457,-4.04,-4.0496,-4.0496,-4.0496,-4.0496,-3.9785,-3.8104,0.0,0.0,0.0,0.0,0.0,0.0,0.0,0.0,0.0,0.0,0.0,0.0,0.0,0.0,0.0,0.0,0.0,0.0,0.0,0.0,0.0,0.0,0.0,0.0,0.0,0.0,0.0,0.0,0.0,0.0,0.0,0.0,0.0,0.0,0.0,0.0,0.0,0.0,0.0,0.0,0.0,0.0,0.0,0.0,0.0,0.0,0.0,0.0,0.0,0.0,0.0,0.0,0.0,0.0,0.0,0.0,0.0,0.0,0.0,0.0,0.0,0.0,0.0,0.0,0.0,0.0,0.0,0.0,0.0,0.0,0.0,0.0,0.0,0.0,0.0,0.0,0.0,0.0,0.0,0.0,0.0,0.0,0.0,0.0,0.0,0.0,0.0,0.0,0.0,0.0,0.0,0.0,0.0,0.0,0.0,0.0,0.0,0.0,0.0,0.0,0.0,0.0,0.0,0.0,-3.8796,-4.0342,-4.0496,-4.0496,-4.0496,-4.0496,-3.9785,-3.8104,0.0,0.0,0.0,0.0,0.0,0.0,0.0,0.0,0.0,0.0,0.0,0.0,0.0,0.0,0.0,0.0,0.0,0.0,0.0,0.0,0.0,0.0,0.0,0.0,0.0,0.0,0.0,0.0,0.0,0.0,0.0,0.0,0.0,0.0,0.0,0.0,0.0,0.0,0.0,0.0,0.0,0.0,0.0,0.0,0.0,0.0,0.0,0.0,0.0,0.0,0.0,0.0,0.0,0.0,0.0,0.0,0.0,0.0,0.0,0.0,0.0,0.0,0.0,0.0,0.0,0.0,0.0,0.0,0.0,0.0,0.0,0.0,0.0,0.0,0.0,0.0,0.0,0.0,0.0,0.0,0.0,0.0,0.0,0.0,0.0,0.0,0.0,0.0,0.0,0.0,0.0,0.0,0.0,0.0,0.0,0.0,0.0,0.0,0.0,0.0,0.0,0.0,0.0,-3.87,-3.9169,-4.0362,-4.0496,-4.0496,-4.0496,-4.0496,-3.9785,-3.8104,-3.8007,0.0,0.0,0.0,0.0,0.0,0.0,0.0,0.0,0.0,0.0,0.0,0.0,0.0,0.0,0.0,0.0,0.0,0.0,0.0,0.0,0.0,0.0,0.0,0.0,0.0,0.0,0.0,0.0,0.0,0.0,0.0,0.0,0.0,0.0,0.0,0.0,0.0,0.0,0.0,0.0,0.0,0.0,0.0,0.0,0.0,0.0,0.0,0.0,0.0,0.0,0.0,0.0,0.0,0.0,0.0,0.0,0.0,0.0,0.0,0.0,0.0,0.0,0.0,0.0,0.0,0.0,0.0,0.0,0.0,0.0,0.0,0.0,0.0,0.0,0.0,0.0,0.0,0.0,0.0,0.0,0.0,0.0,0.0,0.0,0.0,0.0,0.0,0.0,0.0,0.0,0.0,0.0,0.0,0.0,0.0,0.0,0.0,0.0,0.0,0.0,0.0,0.0,-3.9194,-3.9725,-4.034,-4.0465,-4.0496,-4.0496,-4.0323,-3.9592,-3.8084,-3.7815,0.0,0.0,0.0,0.0,0.0,0.0,0.0,0.0,0.0,0.0,0.0,0.0,0.0,0.0,0.0,0.0,0.0,0.0,0.0,0.0,0.0,0.0,0.0,0.0,0.0,0.0,0.0,0.0,0.0,0.0,0.0,0.0,0.0,0.0,0.0,0.0,0.0,0.0,0.0,0.0,0.0,0.0,0.0,0.0,0.0,0.0,0.0,0.0,0.0,0.0,0.0,0.0,0.0,0.0,0.0,0.0,0.0,0.0,0.0,0.0,0.0,0.0,0.0,0.0,0.0,0.0,0.0,0.0,0.0,0.0,0.0,0.0,0.0,0.0,0.0,0.0,0.0,0.0,0.0,0.0,0.0,0.0,0.0,0.0,0.0,0.0,0.0,0.0,0.0,0.0,0.0,0.0,0.0,0.0,0.0,0.0,0.0,0.0,0.0,0.0,0.0,0.0,-3.8878,-4.0072,-4.0129,-4.0356,-4.0496,-4.0496,-3.9804,-3.8996,-3.8065,-3.7238,0.0,0.0,0.0,0.0,0.0,0.0,0.0,0.0,0.0,0.0,0.0,0.0,0.0,0.0,0.0,0.0,0.0,0.0,0.0,0.0,0.0,0.0,0.0,0.0,0.0,0.0,0.0,0.0,0.0,0.0,0.0,0.0,0.0,0.0,0.0,0.0,0.0,0.0,0.0,0.0,0.0,0.0,0.0,0.0,0.0,0.0,0.0,0.0,0.0,0.0,0.0,0.0,0.0,0.0,0.0,0.0,0.0,0.0,0.0,0.0,0.0,0.0,0.0,0.0,0.0,0.0,0.0,0.0,0.0,0.0,0.0,0.0,0.0,0.0,0.0,0.0,0.0,0.0,0.0,0.0,0.0,0.0,0.0,0.0,0.0,0.0,0.0,0.0,0.0,0.0,0.0,0.0,0.0,0.0,0.0,0.0,0.0,0.0,0.0,0.0,0.0,0.0,-3.8196,-3.9188,-3.973,-3.9882,-3.9935,-3.9935,-3.9659,-3.8898,-3.7538,0.0,0.0,0.0,0.0,0.0,0.0,0.0,0.0,0.0,0.0,0.0,0.0,0.0,0.0,0.0,0.0,0.0,0.0,0.0,0.0,0.0,0.0,0.0,0.0,0.0,0.0,0.0,0.0,0.0,0.0,0.0,0.0,0.0,0.0,0.0,0.0,0.0,0.0,0.0,0.0,0.0,0.0,0.0,0.0,0.0,0.0,0.0,0.0,0.0,0.0,0.0,0.0,0.0,0.0,0.0,0.0,0.0,0.0,0.0,0.0,0.0,0.0,0.0,0.0,0.0,0.0,0.0,0.0,0.0,0.0,0.0,0.0,0.0,0.0,0.0,0.0,0.0,0.0,0.0,0.0,0.0,0.0,0.0,0.0,0.0,0.0,0.0,0.0,0.0,0.0,0.0,0.0,0.0,0.0,0.0,0.0,0.0,0.0,0.0,0.0,0.0,0.0,-3.6744,-3.7851,-3.8775,-3.9369,-3.9541,-3.9599,-3.9599,-3.9354,-3.8599,-3.7195,0.0,0.0,0.0,0.0,0.0,0.0,0.0,0.0,0.0,0.0,0.0,0.0,0.0,0.0,0.0,0.0,0.0,0.0,0.0,0.0,0.0,0.0,0.0,0.0,0.0,0.0,0.0,0.0,0.0,0.0,0.0,0.0,0.0,0.0,0.0,0.0,0.0,0.0,0.0,0.0,0.0,0.0,0.0,0.0,0.0,0.0,0.0,0.0,0.0,0.0,0.0,0.0,0.0,0.0,0.0,0.0,0.0,0.0,0.0,0.0,0.0,0.0,0.0,0.0,0.0,0.0,0.0,0.0,0.0,0.0,0.0,0.0,0.0,0.0,0.0,0.0,0.0,0.0,0.0,0.0,0.0,0.0,0.0,0.0,0.0,0.0,0.0,0.0,0.0,0.0,0.0,0.0,0.0,0.0,0.0,0.0,0.0,0.0,0.0,0.0,0.0,0.0,-3.6303,-3.7933,-3.9099,-3.9099,-3.9389,-3.9587,-3.9587,-3.8791,-3.7943,0.0,0.0,0.0,0.0,0.0,0.0,0.0,0.0,0.0,0.0,0.0,0.0,0.0,0.0,0.0,0.0,0.0,0.0,0.0,0.0,0.0,0.0,0.0,0.0,0.0,0.0,0.0,0.0,0.0,0.0,0.0,0.0,0.0,0.0,0.0,0.0,0.0,0.0,0.0,0.0,0.0,0.0,0.0,0.0,0.0,0.0,0.0,0.0,0.0,0.0,0.0,0.0,0.0,0.0,0.0,0.0,0.0,0.0,0.0,0.0,0.0,0.0,0.0,0.0,0.0,0.0,0.0,0.0,0.0,0.0,0.0,0.0,0.0,0.0,0.0,0.0,0.0,0.0,0.0,0.0,0.0,0.0,0.0,0.0,0.0,0.0,0.0,0.0,0.0,0.0,0.0,0.0,0.0,0.0,0.0,0.0,0.0,0.0,0.0,0.0,0.0,0.0,0.0,-3.6211,-3.7765,-3.8833,-3.8833,-3.8917,-3.8956,-3.8956,-3.8197,-3.7123,-3.571,0.0,0.0,0.0,0.0,0.0,0.0,0.0,0.0,0.0,0.0,0.0,0.0,0.0,0.0,0.0,0.0,0.0,0.0,0.0,0.0,0.0,0.0,0.0,0.0,0.0,0.0,0.0,0.0,0.0,0.0,0.0,0.0,0.0,0.0,0.0,0.0,0.0,0.0,0.0,0.0,0.0,0.0,0.0,0.0,0.0,0.0,0.0,0.0,0.0,0.0,0.0,0.0,0.0,0.0,0.0,0.0,0.0,0.0,0.0,0.0,0.0,0.0,0.0,0.0,0.0,0.0,0.0,0.0,0.0,0.0,0.0,0.0,0.0,0.0,0.0,0.0,0.0,0.0,0.0,0.0,0.0,0.0,0.0,0.0,0.0,0.0,0.0,0.0,0.0,0.0,0.0,0.0,0.0,0.0,0.0,0.0,0.0,0.0,0.0,0.0,0.0,0.0,-3.5854,-3.7221,-3.8101,-3.8101,-3.8101,-3.8101,-3.8101,-3.7665,-3.6671,-3.5025,0.0,0.0,0.0,0.0,0.0,0.0,0.0,0.0,0.0,0.0,0.0,0.0,0.0,0.0,0.0,0.0,0.0,0.0,0.0,0.0,0.0,0.0,0.0,0.0,0.0,0.0,0.0,0.0,0.0,0.0,0.0,0.0,0.0,0.0,0.0,0.0,0.0,0.0,0.0,0.0,0.0,0.0,0.0,0.0,0.0,0.0,0.0,0.0,0.0,0.0,0.0,0.0,0.0,0.0,0.0,0.0,0.0,0.0,0.0,0.0,0.0,0.0,0.0,0.0,0.0,0.0,0.0,0.0,0.0,0.0,0.0,0.0,0.0,0.0,0.0,0.0,0.0,0.0,0.0,0.0,0.0,0.0,0.0,0.0,0.0,0.0,0.0,0.0,0.0,0.0,0.0,0.0,0.0,0.0,0.0,0.0,0.0,0.0,0.0,0.0,0.0,0.0,-3.5274,-3.6399,-3.7121,-3.7192,-3.7209,-3.7209,-3.7209,-3.7138,-3.6394,-3.4783,0.0,0.0,0.0,0.0,0.0,0.0,0.0,0.0,0.0,0.0,0.0,0.0,0.0,0.0,0.0,0.0,0.0,0.0,0.0,0.0,0.0,0.0,0.0,0.0,0.0,0.0,0.0,0.0,0.0,0.0,0.0,0.0,0.0,0.0,0.0,0.0,0.0,0.0,0.0,0.0,0.0,0.0,0.0,0.0,0.0,0.0,0.0,0.0,0.0,0.0,0.0,0.0,0.0,0.0,0.0,0.0,0.0,0.0,0.0,0.0,-3.6601,-3.6527,0.0,0.0,0.0,0.0,0.0,0.0,0.0,0.0,0.0,0.0,0.0,0.0,0.0,0.0,0.0,0.0,0.0,0.0,0.0,0.0,0.0,0.0,0.0,0.0,0.0,0.0,0.0,0.0,0.0,0.0,0.0,0.0,0.0,0.0,0.0,0.0,0.0,0.0,0.0,0.0,-3.4763,-3.5705,-3.6483,-3.7138,-3.7209,-3.7209,-3.7209,-3.657,-3.5508,-3.3952,-3.2573,0.0,0.0,0.0,0.0,0.0,0.0,0.0,0.0,0.0,0.0,0.0,0.0,0.0,0.0,0.0,0.0,0.0,0.0,0.0,0.0,0.0,0.0,0.0,0.0,0.0,0.0,0.0,0.0,0.0,0.0,0.0,0.0,0.0,0.0,0.0,0.0,0.0,0.0,0.0,0.0,0.0,0.0,0.0,0.0,0.0,0.0,0.0,0.0,0.0,0.0,0.0,0.0,0.0,0.0,0.0,0.0,0.0,0.0,0.0,-3.6029,-3.5786,0.0,0.0,0.0,0.0,0.0,0.0,0.0,0.0,0.0,0.0,0.0,0.0,0.0,0.0,0.0,0.0,0.0,0.0,0.0,0.0,0.0,0.0,0.0,0.0,0.0,0.0,0.0,0.0,0.0,0.0,0.0,0.0,0.0,0.0,0.0,0.0,0.0,0.0,0.0,0.0,-3.372,-3.4408,-3.5055,-3.5818,-3.5905,-3.6061,-3.6405,-3.6017,-3.5114,-3.359,-3.2413,0.0,0.0,0.0,0.0,0.0,0.0,0.0,0.0,0.0,0.0,0.0,0.0,0.0,0.0,0.0,0.0,0.0,0.0,0.0,0.0,0.0,0.0,0.0,0.0,0.0,0.0,0.0,0.0,0.0,0.0,0.0,0.0,0.0,0.0,0.0,0.0,0.0,0.0,0.0,0.0,0.0,0.0,0.0,0.0,0.0,0.0,0.0,0.0,0.0,0.0,0.0,0.0,0.0,-3.5584,-3.5562,-3.5562,-3.5562,-3.5562,-3.5562,-3.5562,-3.5284,-3.483,-3.55,0.0,0.0,0.0,0.0,0.0,0.0,0.0,0.0,0.0,0.0,0.0,0.0,0.0,0.0,0.0,0.0,0.0,0.0,0.0,0.0,0.0,0.0,-3.2177,-3.1568,-3.1868,-3.1972,-3.0677,0.0,0.0,0.0,0.0,0.0,0.0,0.0,0.0,0.0,0.0,0.0,-3.2641,-3.3062,-3.3491,-3.4218,-3.4303,-3.4607,-3.5346,-3.5397,-3.4829,-3.3511,-3.2622,-3.1217,0.0,0.0,0.0,0.0,0.0,0.0,0.0,0.0,0.0,0.0,0.0,0.0,0.0,0.0,0.0,0.0,0.0,0.0,0.0,0.0,0.0,0.0,0.0,0.0,0.0,0.0,0.0,0.0,0.0,0.0,0.0,0.0,-3.4348,-3.3688,0.0,0.0,0.0,0.0,0.0,0.0,0.0,0.0,0.0,0.0,0.0,0.0,0.0,-3.5473,-3.5473,-3.5493,-3.5514,-3.5529,-3.5505,-3.5508,-3.5508,-3.5508,-3.5508,-3.5508,-3.5508,0.0,-3.5521,-3.6249,0.0,0.0,0.0,0.0,0.0,0.0,0.0,0.0,0.0,0.0,0.0,0.0,0.0,0.0,0.0,0.0,0.0,0.0,0.0,0.0,0.0,0.0,-3.1617,-3.1498,-3.1571,-3.1421,-3.0636,-3.0969,-3.0983,-2.956,-2.9358,-2.9365,0.0,0.0,0.0,0.0,0.0,0.0,-3.2292,-3.2418,-3.2733,-3.3474,-3.3558,-3.3846,-3.4573,-3.4641,-3.432,-3.3545,-3.2255,-3.0844,-2.9315,-2.7976,0.0,0.0,0.0,0.0,0.0,0.0,0.0,0.0,0.0,0.0,0.0,0.0,0.0,0.0,0.0,0.0,0.0,0.0,0.0,0.0,0.0,0.0,0.0,0.0,0.0,0.0,0.0,0.0,0.0,-3.3255,-3.3162,-3.2484,-3.3008,-3.3162,0.0,0.0,0.0,0.0,0.0,0.0,0.0,0.0,0.0,-3.3979,-3.4628,-3.4982,-3.4982,-3.5324,-3.5487,-3.5502,-3.5516,-3.5504,-3.5504,-3.5504,-3.5504,-3.5504,-3.5504,-3.5528,-3.5568,-3.5892,-3.5454,-3.4584,0.0,0.0,0.0,0.0,-3.3866,-3.347,-3.2859,-3.242,-3.204,-3.1589,0.0,0.0,0.0,0.0,0.0,0.0,0.0,-3.1062,-3.1062,-3.1271,-3.1511,-3.1511,-3.1511,-3.1421,-3.1122,-3.1268,-3.1153,-3.017,-2.9962,-2.9943,-2.9893,-2.9211,0.0,0.0,0.0,-2.9842,-3.0586,-3.0668,-3.0948,-3.1676,-3.1758,-3.2077,-3.28,-3.2866,-3.2711,-3.2407,-3.1433,-3.0422,-2.9341,-2.8359,-2.7482,0.0,0.0,0.0,0.0,0.0,0.0,0.0,0.0,0.0,0.0,0.0,0.0,0.0,0.0,0.0,0.0,0.0,0.0,0.0,0.0,0.0,0.0,0.0,0.0,0.0,0.0,0.0,0.0,-3.2564,-3.2452,-3.16,-3.2228,-3.2497,0.0,0.0,0.0,0.0,0.0,0.0,-3.35,-3.3649,-3.3739,-3.3739,-3.4429,-3.4773,-3.4773,-3.525,-3.5504,-3.5504,-3.5504,-3.5504,-3.5504,-3.5504,-3.5504,-3.5504,-3.5504,-3.5359,-3.5121,-3.5396,-3.5094,-3.4555,-3.5081,-3.4914,-3.4321,-3.4239,-3.3928,-3.3517,-3.3517,-3.3018,-3.2316,-3.1842,-3.0984,-3.0001,-2.9385,0.0,0.0,0.0,0.0,-3.0866,-3.0866,-3.1029,-3.119,-3.119,-3.1351,-3.1511,-3.1511,-3.1511,-3.1249,-3.0418,-3.0273,-3.0201,-2.9935,-2.9039,0.0,-2.9304,-2.892,-2.8792,-2.9342,-2.9406,-2.9598,-3.0156,-3.022,-3.0516,-3.1261,-3.1309,-3.1294,-3.1277,-3.0648,-2.9927,-2.9148,-2.8488,-2.7781,-2.7061,0.0,0.0,0.0,0.0,0.0,0.0,0.0,0.0,0.0,0.0,0.0,0.0,0.0,0.0,0.0,0.0,0.0,0.0,0.0,0.0,0.0,0.0,0.0,0.0,0.0,0.0,0.0,0.0,0.0,-3.166,-3.2662,0.0,0.0,0.0,0.0,-3.3395,-3.347,-3.3485,-3.3499,-3.4114,-3.4459,-3.4459,-3.51,-3.5444,-3.5444,-3.5489,-3.5504,-3.5504,-3.5504,-3.5504,-3.5504,-3.5504,-3.5504,-3.5504,-3.5504,-3.4953,-3.4163,-3.5121,-3.5105,-3.4506,-3.4538,-3.4132,-3.3562,-3.3531,-3.3531,-3.3501,-3.3515,-3.2899,-3.2129,-3.2165,-3.0764,-2.8931,-2.826,-2.8108,0.0,0.0,-2.8595,-2.9129,-2.9129,-2.9735,-3.0359,-3.0359,-3.094,-3.1511,-3.1511,-3.1511,-3.115,-2.9888,-2.966,-2.9411,-2.8733,0.0,-2.8701,-2.9316,-2.9374,-2.9358,-2.9406,-2.9406,-2.9422,-2.9454,-2.9454,-2.9749,-3.0484,-3.0548,-3.0577,-3.0641,-3.0024,-2.9329,-2.8662,-2.7976,-2.7325,-2.6639,-2.5946,0.0,0.0,0.0,0.0,0.0,0.0,0.0,0.0,0.0,0.0,0.0,0.0,0.0,0.0,0.0,0.0,0.0,0.0,0.0,0.0,0.0,0.0,0.0,0.0,0.0,0.0,0.0,0.0,-3.2288,-3.312,0.0,-3.2351,-3.165,-3.1569,-3.2227,-3.2633,-3.303,-3.3399,-3.3675,-3.3788,-3.3788,-3.3701,-3.365,-3.365,-3.365,-3.365,-3.365,-3.365,-3.365,-3.365,-3.365,-3.365,-3.365,-3.365,-3.3429,-3.3136,-3.3498,-3.3474,-3.326,-3.326,-3.289,-3.2312,-3.2757,-3.2643,-3.2326,-3.2757,-3.2207,-3.1138,-3.0385,-2.9603,-2.8961,-2.8709,-2.864,-2.864,-2.864,-2.8837,-2.9002,-2.9002,-2.9223,-2.9473,-2.9473,-2.9659,-2.9805,-2.9437,-2.9381,-2.901,-2.7797,-2.8666,-2.9375,-2.8677,-2.8197,-2.7993,-2.8222,-2.8231,-2.8231,-2.8231,-2.8231,-2.8231,-2.8231,-2.8231,-2.8363,-2.8618,-2.8633,-2.8842,-2.9264,-2.8672,-2.8404,-2.8577,-2.7959,-2.748,-2.7255,-2.611,-2.5222,0.0,0.0,0.0,0.0,0.0,0.0,0.0,0.0,0.0,0.0,0.0,0.0,0.0,0.0,0.0,0.0,0.0,0.0,0.0,0.0,0.0,0.0,0.0,0.0,0.0,-3.2421,-3.3106,-3.198,-3.2653,-3.286,-3.199,-3.1338,-3.1309,-3.2142,-3.2596,-3.2996,-3.3367,-3.3395,-3.3335,-3.3128,-3.2778,-3.2593,-3.2593,-3.2593,-3.2593,-3.2593,-3.2593,-3.2593,-3.2593,-3.2593,-3.2593,-3.2593,-3.2593,-3.2429,-3.2141,-3.2141,-3.1924,-3.1719,-3.2357,-3.2323,-3.1985,-3.2455,-3.2309,-3.1936,-3.1894,-3.1066,-2.9902,-2.8784,-2.831,-2.8149,-2.8149,-2.8149,-2.8149,-2.8149,-2.8149,-2.8149,-2.8149,-2.8363,-2.8556,-2.8556,-2.8661,-2.8619,-2.828,-2.8047,-2.7603,-2.6575,-2.7764,-2.869,-2.8012,-2.7731,-2.76,-2.76,-2.76,-2.76,-2.76,-2.76,-2.76,-2.76,-2.76,-2.76,-2.76,-2.76,-2.7794,-2.8218,-2.7854,-2.7693,-2.7879,-2.7712,-2.7382,-2.6864,-2.5718,-2.4708,-2.3856,0.0,0.0,0.0,0.0,0.0,0.0,0.0,0.0,0.0,0.0,0.0,0.0,0.0,0.0,0.0,0.0,0.0,0.0,0.0,0.0,0.0,0.0,0.0,-2.983,-3.0862,-3.1364,-3.0692,-3.1206,-3.1612,-3.1598,-3.1563,-3.2044,-3.3198,-3.3308,-3.3321,-3.3321,-3.3321,-3.3083,-3.2541,-3.25,-3.25,-3.25,-3.25,-3.25,-3.25,-3.25,-3.25,-3.25,-3.25,-3.25,-3.25,-3.25,-3.1997,-3.1143,-3.1154,-3.0594,-2.9934,-3.1792,-3.25,-3.25,-3.2473,-3.2459,-3.2242,-3.0806,-2.9592,-2.8491,-2.7596,-2.6927,-2.6499,-2.6499,-2.6499,-2.6499,-2.6499,-2.6499,-2.6499,-2.6499,-2.7061,-2.767,-2.7644,-2.7872,-2.8121,-2.808,-2.7626,-2.7017,-2.6407,-2.6905,-2.7189,-2.6558,-2.706,-2.7534,-2.7534,-2.7534,0.0,-2.7534,-2.7534,-2.7534,-2.756,-2.7575,-2.7575,-2.7575,-2.7575,-2.7575,-2.7534,-2.7534,-2.7214,-2.651,-2.7152,-2.6837,-2.5398,-2.4722,-2.3734,-2.2378,0.0,0.0,0.0,0.0,0.0,0.0,0.0,0.0,0.0,0.0,0.0,0.0,0.0,0.0,0.0,0.0,0.0,0.0,0.0,0.0,0.0,-2.9438,-3.018,-3.035,-3.1481,-3.2089,-3.1413,-3.1757,-3.185,-3.1372,-3.0673,-3.0429,-3.0777,-3.1139,-3.1371,-3.1371,-3.1371,-3.1306,-3.1139,-3.079,-3.057,-3.057,-3.057,-3.057,-3.057,-3.057,-3.057,-3.057,-3.057,-3.057,-3.057,-3.057,-3.0419,-3.0139,-2.9706,-2.9365,-2.924,-3.0189,-3.057,-3.0519,-3.008,-2.9667,-2.9228,-2.8436,-2.7946,-2.758,-2.6921,-2.6612,-2.6499,-2.6499,-2.6499,-2.6499,-2.6499,-2.6499,-2.6499,-2.6499,-2.6658,-2.6701,-2.6281,-2.625,-2.6097,-2.5327,-2.5029,-2.4745,-2.4132,-2.4649,-2.5282,-2.5646,-2.5864,-2.6,-2.6,-2.6,-2.6,-2.6,-2.6,-2.6215,-2.6747,-2.68,-2.68,-2.68,-2.68,-2.6575,-2.6054,-2.6,-2.5919,-2.5701,-2.5892,-2.555,-2.4624,-2.4477,-2.3514,0.0,0.0,0.0,0.0,0.0,0.0,0.0,0.0,0.0,0.0,0.0,0.0,0.0,0.0,0.0,0.0,0.0,0.0,0.0,0.0,0.0,0.0,-2.9099,-2.98,-3.0217,-3.0954,-3.1282,-3.0877,-3.105,-3.1047,-3.0659,-3.0101,-2.9892,-3.0118,-3.0432,-3.062,-3.062,-3.062,-3.0507,-3.0281,-2.9955,-2.9792,-2.9792,-2.9792,-2.9792,-2.9792,-2.9792,-2.9792,-2.9792,-2.9792,-2.9666,-2.9428,-2.9428,-2.9302,-2.9063,-2.8725,-2.8549,-2.8612,0.0,0.0,0.0,0.0,-2.8235,-2.772,-2.7394,-2.7165,-2.6914,-2.66,-2.6499,-2.6499,-2.6499,-2.6499,-2.6499,-2.6499,-2.6499,-2.6499,-2.6499,-2.6311,-2.6047,-2.5674,-2.5247,-2.4757,-2.413,-2.3803,-2.3509,-2.317,-2.3484,0.0,-2.4352,-2.4979,-2.5398,-2.5398,-2.5398,-2.5398,-2.5398,-2.5398,-2.5563,-2.5987,-2.6041,-2.6041,-2.6041,-2.6041,0.0,0.0,0.0,-2.5398,-2.5398,-2.4781,0.0,0.0,0.0,0.0,0.0,-2.2227,0.0,0.0,-2.1225,-2.0849,0.0,0.0,0.0,0.0,0.0,0.0,0.0,0.0,0.0,0.0,0.0,0.0,0.0,0.0,0.0,0.0,-2.8662,-2.9176,-2.9628,-2.9754,-2.9792,-2.9792,-2.9792,-2.9792,-2.9792,-2.9792,-2.9993,-3.0482,-3.052,-3.052,-3.052,-3.052,0.0,0.0,0.0,-2.9792,-2.9792,-2.9792,-2.9792,-2.9792,-2.9729,-2.9691,-2.9691,-2.9628,-2.9327,-2.88,-2.88,-2.8561,-2.8097,-2.8034,-2.7971,-2.7934,-2.8059,-2.8059,-2.8009,-2.8009,-2.7657,-2.7228,-2.7228,0.0,0.0,-2.6499,-2.6499,-2.6499,-2.6499,-2.6499,-2.6499,-2.6499,-2.6499,-2.6474,-2.6411,-2.6021,-2.5561,-2.5448,-2.4682,-2.3979,-2.3916,-2.3471,-2.3108,-2.3108,-2.3108,-2.3108,-2.3108,-2.4237,-2.5147,-2.5147,-2.5147,-2.5147,-2.5147,-2.5147,-2.5175,-2.5259,-2.5287,0.0,-2.5287,-2.5287,-2.5231,-2.5147,-2.5147,-2.5147,-2.5147,-2.3842,-2.3454,-2.4147,-2.3454,-2.3108,-2.3108,-2.3108,-2.2857,-2.2385,-2.1358,-2.1106,0.0,0.0,0.0,0.0,0.0,0.0,0.0,0.0,0.0,0.0,0.0,0.0,0.0,0.0,0.0,-2.8624,-2.9252,-2.9503,-2.9151,-2.9503,-2.9792,-2.9792,-2.9792,-2.9792,-2.9792,-2.9792,-2.9829,-2.9942,-2.9942,-2.9942,-2.9942,-2.9942,-2.9905,-2.9792,-2.9792,-2.9792,-2.9792,-2.9792,-2.9792,-2.9779,-2.9315,0.0,-2.9051,-2.8637,-2.8373,-2.826,-2.826,-2.821,-2.8072,-2.762,-2.7216,-2.6901,-2.7758,-2.7833,-2.7444,-2.7444,-2.7128,-2.665,-2.665,-2.6587,-2.6499,-2.6499,-2.6499,-2.6499,-2.6499,-2.6499,0.0,-2.6499,-2.6499,-2.6386,-2.5921,-2.5686,-2.5372,-2.4519,-2.4155,-2.3866,-2.3371,-2.3183,-2.3108,-2.3108,-2.3108,-2.3108,-2.3108,-2.3365,-2.3531,-2.3531,-2.3531,-2.3531,-2.3531,-2.3531,-2.3796,-2.4452,-2.4509,-2.4509,-2.4509,-2.4509,-2.425,-2.359,-2.3531,-2.3531,-2.3531,-2.3245,-2.3155,-2.3335,-2.3198,-2.3108,-2.3108,-2.3108,-2.3045,-2.2932,-2.2297,-2.1807,0.0,0.0,0.0,0.0,0.0,0.0,0.0,0.0,0.0,0.0,0.0,-2.6703,-2.7544,0.0,-2.8699,-2.9264,-2.9603,-2.9591,-2.8963,-2.9176,-2.9365,-2.9365,-2.9616,-2.9792,-2.9792,-2.9792,-2.9792,-2.9792,-2.9792,-2.9792,-2.9792,-2.9792,-2.9792,-2.9792,-2.9792,-2.9792,-2.9792,-2.9503,-2.9365,-2.9352,-2.8787,-2.8511,-2.8511,-2.8235,-2.7959,-2.7695,-2.7695,-2.7544,-2.7291,-2.7014,-2.6738,-2.6549,-2.7102,-2.7153,-2.6901,-2.6901,-2.6738,-2.6499,-2.6499,-2.6499,-2.6499,-2.6499,-2.6499,-2.6499,-2.6499,-2.6499,-2.6499,-2.6499,-2.6499,-2.6361,-2.5749,-2.541,-2.5008,-2.4192,-2.3778,-2.3459,-2.317,-2.3108,-2.3108,-2.3108,-2.3108,-2.3108,-2.3108,-2.3108,-2.3108,-2.3108,-2.3108,-2.3108,-2.3108,-2.3108,-2.3245,-2.3662,-2.3708,-2.3708,-2.3708,-2.3708,-2.3543,-2.3138,-2.3108,-2.3108,-2.3108,-2.3108,-2.3108,-2.3108,-2.3108,-2.3108,-2.3108,-2.2702,-2.2506,-2.2463,-2.1788,-2.1765,0.0,0.0,0.0,0.0,0.0,0.0,0.0,-2.4982,-2.547,-2.607,-2.6611,-2.7287,-2.8399,-2.8495,-2.8679,-2.9381,-2.9495,-2.9257,-2.8686,-2.8775,-2.885,-2.875,-2.9277,-2.9666,-2.9779,-2.9792,-2.9792,-2.9792,-2.9792,-2.9792,-2.9792,-2.9792,-2.9792,-2.9792,-2.9679,-2.9628,-2.9628,-2.9051,-2.8737,-2.8725,-2.821,-2.7946,-2.7946,-2.7833,-2.7544,-2.7118,-2.7118,-2.6901,-2.6499,-2.6499,-2.6499,-2.6499,-2.6499,-2.6499,-2.6499,-2.6499,-2.6499,-2.6499,-2.6499,-2.6499,-2.6499,-2.6499,-2.6499,-2.6499,-2.6499,-2.6499,-2.6474,-2.6361,-2.6336,-2.6172,-2.546,-2.4971,-2.4519,-2.3966,-2.3446,-2.3108,-2.3108,-2.3108,-2.3108,-2.3108,-2.3108,-2.3108,-2.3108,-2.3108,-2.307,-2.2957,-2.2945,-2.2907,-2.2794,-2.2782,-2.2832,-2.2932,-2.2945,-2.2995,-2.3095,-2.3108,-2.3108,-2.3108,-2.3108,-2.3035,-2.2884,-2.2884,-2.2793,-2.2628,-2.2628,-2.2628,-2.2628,-2.197,-2.1647,-2.1628,-2.0942,-2.1322,-2.1834,-2.13,-2.1173,-2.2014,-2.2207,-2.2568,0.0,-2.4239,-2.4333,-2.4867,-2.5402,-2.6142,-2.7248,-2.7097,-2.7099,-2.8124,-2.8307,-2.8115,-2.755,-2.8282,-2.8712,-2.826,-2.8687,-2.9189,-2.9741,-2.9792,-2.9792,-2.9792,-2.9792,-2.9792,-2.9792,-2.9792,-2.9792,-2.9792,-2.9289,-2.8988,-2.8988,-2.8473,-2.8197,-2.8185,-2.7645,-2.7369,-2.7356,-2.6901,-2.665,-2.6587,-2.6587,-2.6549,-2.6499,-2.6499,-2.6499,-2.6499,-2.6499,-2.6499,-2.6499,-2.6499,-2.6499,-2.6499,-2.6499,-2.6499,-2.6499,-2.6499,-2.6499,-2.6499,-2.6499,-2.6499,-2.6386,-2.5837,-2.5686,-2.546,-2.4443,-2.413,-2.3941,-2.3333,-2.3145,-2.3108,-2.3108,-2.3108,-2.3108,-2.3108,-2.3108,-2.3108,-2.3108,-2.3108,-2.2945,-2.2443,-2.2397,-2.2234,-2.1732,-2.1669,-2.1857,-2.2347,-2.2397,-2.2569,-2.3058,-2.3108,-2.3108,-2.3108,-2.3108,-2.2793,-2.2063,-2.2032,-2.1678,-2.0878,-2.0878,-2.0878,-2.0878,-2.0782,-2.0751,-2.0751,-2.0655,-2.0687,-2.1509,-2.1621,-2.2003,-2.2337,-2.2838,-2.346,-2.4363,-2.4737,-2.4993,-2.5204,-2.573,-2.628,-2.6766,-2.6653,-2.6637,-2.7087,-2.7168,-2.7093,-2.6887,-2.749,-2.7998,-2.8086,-2.8549,-2.8988,-2.9264,-2.9591,-2.9792,-2.9792,-2.9792,-2.9792,-2.9792,-2.9478,-2.9289,-2.9289,-2.875,-2.8411,-2.8411,-2.7896,-2.762,-2.762,-2.7102,-2.6839,-2.6839,-2.66,-2.6499,-2.6499,-2.6499,-2.6499,-2.6499,-2.6499,-2.6499,-2.6499,-2.6499,-2.6499,-2.6499,-2.6499,-2.6499,-2.6499,-2.6499,-2.6499,-2.6499,-2.6499,-2.6499,-2.6499,-2.6499,-2.626,-2.59,-2.5661,-2.5385,-2.4971,-2.4205,-2.4004,-2.3853,-2.3246,-2.3108,-2.3108,-2.3108,-2.3108,-2.3108,-2.3108,-2.3108,-2.3108,-2.3108,-2.3108,-2.292,-2.2397,-2.2309,-2.2234,-2.1995,-2.197,-2.2184,-2.2706,-2.2757,-2.2857,-2.3083,-2.2659,-2.2414,-2.2414,-2.1928,-2.1479,-2.1164,-2.1132,-2.0974,-2.059,-2.059,-2.059,-2.059,-2.0074,-1.9846,-1.9814,-1.9332,-1.9077,-2.091,-2.1257,-2.1778,-2.206,-2.2746,-2.3511,-2.4025,-2.457,-2.4871,-2.4783,-2.5072,-2.5487,-2.5818,-2.5611,-2.553,-2.5953,-2.6307,-2.64,-2.6073,-2.678,-2.745,-2.7829,-2.82,-2.8561,-2.8888,-2.9453,-2.9792,-2.9792,-2.9792,-2.9729,-2.9566,-2.9151,-2.8825,-2.8662,-2.816,-2.7871,-2.7871,-2.7331,-2.709,-2.709,-2.6688,-2.6499,-2.6499,-2.6499,-2.6499,-2.6499,-2.6499,-2.6349,-2.6082,-2.5955,-2.5743,-2.5489,-2.5377,-2.5539,-2.5859,-2.5605,-2.5924,-2.6499,-2.6499,-2.6499,-2.6461,-2.6311,-2.6248,-2.6189,-2.5788,-2.5363,-2.4925,-2.4566,-2.416,-2.3758,-2.3208,-2.3074,-2.2933,-2.25,-2.2402,-2.2402,-2.2402,-2.2402,-2.2402,-2.2402,-2.2402,-2.2402,-2.2402,-2.2402,-2.222,-2.1684,-2.1569,-2.1697,-2.2038,-2.2006,-2.1994,-2.2177,-2.2317,-2.2402,-2.2402,-2.1877,-2.1522,-2.1522,-2.0942,-2.0494,-2.0236,-2.0236,-2.0139,-1.9879,-1.9879,-1.9879,-1.9879,-1.9243,-1.8944,-1.8921,-1.8303,-1.8008,-1.9223,-1.9046,-1.9046,-2.0339,-2.0968,-2.1536,-2.2379,-2.2899,-2.3085,-2.2673,-2.2605,-2.2976,-2.4054,-2.3377,-2.3105,-2.4597,-2.5766,-2.613,-2.4999,-2.6284,-2.7299,-2.7326,-2.7338,-2.776,-2.8812,-2.9453,-2.9792,-2.9792,-2.9792,-2.9553,-2.895,-2.89,-2.865,-2.8147,-2.7595,-2.7306,-2.7306,-2.6801,-2.6512,-2.6512,-2.6499,-2.6499,-2.6499,-2.6499,-2.6499,-2.6499,-2.6499,-2.5955,-2.5004,-2.456,-2.3816,-2.2952,-2.2501,-2.3178,-2.4265,-2.335,-2.4495,-2.6499,-2.6499,-2.6499,-2.6399,-2.5799,-2.5624,-2.5378,-2.4017,-2.3582,-2.3285,-2.1898,-2.153,-2.1361,-2.0833,-2.0709,-2.0709,-2.0687,-2.0687,-2.0687,-2.0687,-2.0687,-2.0687,-2.0687,-2.0687,-2.0687,-2.0687,-2.0687,-2.0475,-1.9876,-1.9767,-2.0208,-2.1372,-2.1241,-2.0738,-1.9966,-2.0374,-2.0687,-2.0687,-2.0655,-2.0655,-2.0655,-2.0623,-2.0236,-1.9365,-1.9332,-1.8944,-1.811,-1.8076,-1.8076,-1.8076,-1.8042,-1.8042,-1.8042,-1.8008,-1.8008,-1.8896,-1.9124,-1.9658,-2.0419,-2.0898,-2.1346,-2.1963,-2.2207,-2.2266,-2.2129,-2.21,-2.2215,-2.261,-2.2567,-2.2676,-2.3188,-2.3823,-2.4246,-2.4284,-2.5045,-2.5784,-2.6115,-2.7135,-2.7573,-2.6917,-2.8262,-2.9176,-2.9176,-2.8875,-2.8586,-2.8398,-2.8034,-2.7758,-2.7557,-2.7065,-2.6776,-2.6776,-2.6587,-2.6176,-2.5488,-2.4838,-2.4505,-2.4493,-2.4237,-2.412,-2.4097,-2.3791,-2.3467,-2.3133,-2.2949,-2.2719,-2.2432,-2.2263,-2.2503,-2.288,-2.2547,-2.2937,-2.3686,-2.4003,-2.412,-2.4038,-2.3511,-2.3335,-2.3266,-2.2798,-2.2375,-2.201,-2.1541,-2.1149,-2.0836,-2.0635,-2.059,-2.059,-2.059,-2.059,-2.059,-2.059,-2.059,-2.059,-2.059,-2.059,-2.059,-2.059,-2.059,-2.0534,-2.0335,-1.9948,-1.9854,-2.0241,-2.0557,-2.0628,-2.0376,-2.049,-2.059,-2.059,-2.0074,-1.9759,-1.9759,-1.9199,-1.8754,-1.8462,-1.8428,-1.8303,-1.8008,-1.8008,-1.8008,-1.8008,-1.8008,-1.8008,-1.8008,-1.8008,-1.8008,-1.8906,-1.9348,-2.0059,-2.0654,-2.1025,-2.1307,-2.1787,-2.1885,-2.1846,-2.168,-2.165,-2.165,-2.165,-2.1875,-2.2158,-2.2461,-2.3067,-2.3529,-2.3662,-2.4334,-2.4925,-2.5278,-2.6289,-2.6626,-2.5858,-2.6847,-2.7685,-2.8063,-2.7977,-2.7718,-2.7286,-2.6965,-2.6694,-2.6473,-2.6489,-2.6499,-2.6499,-2.6499,-2.5914,-2.4742,-2.3737,-2.3203,-2.3024,-2.278,-2.2645,-2.2622,-2.2342,-2.2024,-2.1702,-2.1526,-2.1254,-2.0887,-2.076,-2.0998,-2.1414,-2.1036,-2.1259,-2.1792,-2.2428,-2.2645,-2.2566,-2.206,-2.1891,-2.1834,-2.1318,-2.0918,-2.0566,-2.0277,-1.9929,-1.965,-1.965,-1.965,-1.965,-1.965,-1.965,-1.965,-1.965,-1.965,-1.965,-1.965,-1.965,-1.965,-1.965,-1.965,-1.965,-1.965,-1.9329,-1.9222,-1.9541,-1.991,-2.0009,-1.9683,-1.965,-1.965,-1.965,-1.9177,-1.8854,-1.8854,-1.8303,-1.8008,-1.8008,-1.8008,-1.8008,-1.8008,-1.8008,-1.8008,-1.8008,-1.8008,-1.8008,-1.8008,-1.8008,-1.8008,-1.9209,-1.9629,-2.0146,-2.0947,-2.1161,-2.1309,-2.1719,-2.1816,-2.1699,-2.1249,-2.1161,-2.1161,-2.1161,-2.12,-2.1492,-2.2353,-2.3398,-2.3897,-2.3207,-2.4049,-2.4702,-2.4702,-2.4745,-2.5018,-2.5543,-2.5256,-2.542,-2.6292,-2.6995,-2.689,-2.5827,-2.5779,-2.5492,-2.4945,-2.5908,-2.6383,-2.6349,-2.6277,-2.5541,-2.409,-2.3176,-2.2482,-2.2058,-2.2024,-2.2024,-2.2013,-2.1991,-2.1474,-2.0614,-2.0173,-1.941,-1.8529,-1.8164,-1.8815,-1.9891,-1.8909,-1.945,-2.0787,-2.1681,-2.1991,-2.1935,-2.1408,-2.1219,-2.0964,-1.9634,-1.9243,-1.9044,-1.8236,-1.8008,-1.8008,-1.8008,-1.8008,-1.8008,-1.8008,-1.8008,-1.8008,-1.8008,-1.8008,-1.8008,-1.8008,-1.8008,-1.8008,-1.8008,-1.8008,-1.8008,-1.8008,-1.8008,-1.8303,-1.9144,-1.9243,-1.8921,-1.8076,-1.8008,-1.8008,-1.8008,-1.8008,-1.8008,-1.8008,-1.8008,-1.8008,-1.8008,-1.8008,-1.8008,-1.8008,-1.8008,-1.8008,-1.8008,-1.8008,-1.8008,-1.8008,-1.8008,-1.8008,-1.9727,-2.0068,-2.0488,-2.0684,-2.0732,-2.0762,-2.0918,-2.0938,-2.0909,-2.0801,-2.0732,-2.0732,-2.0732,-2.1269,-2.1787,-2.2012,-2.2814,-2.3301,-2.3125,-2.3343,-2.3551,-2.3551,-2.4286,-2.4283,-2.3032,-2.454,-2.4915,-2.3286,-2.4687,-2.5516,-2.5206,-2.5195,-2.4801,-2.3891,-2.485,-2.5028,-2.4289,-2.3228,-2.2375,-2.168,-2.0673,-2.0164,-2.0042,-1.9661,-1.9509,-1.9489,-1.9198,-1.893,-1.869,-1.858,-1.837,-1.812,-1.8047,-1.8203,-1.8496,-1.8233,-1.8404,-1.8734,-1.8998,-1.927,-1.9438,-1.9002,-1.886,-1.8805,-1.8434,-1.8337,-1.8303,-1.8076,-1.8008,-1.8008,-1.8008,-1.8008,-1.8008,-1.8008,-1.8008,-1.8008,-1.8008,-1.8008,-1.8008,-1.8008,-1.8008,-1.8008,-1.8008,-1.8008,-1.8008,-1.8008,-1.8008,-1.8076,-1.8303,-1.8337,-1.8236,-1.8008,-1.8008,-1.8008,-1.8008,-1.8008,-1.8008,-1.8008,-1.8008,-1.8008,-1.8008,-1.8008,-1.8008,-1.8008,-1.8008,-1.8008,-1.8008,-1.8008,-1.8008,-1.8008,-1.8008,-1.8008,-1.9912,-2.0234,-2.0605,-2.0605,-2.0605,-2.0605,-2.0605,-2.0605,-2.0605,-2.0605,-2.0605,-2.0605,-2.0605,-2.1133,-2.166,-2.1855,-2.2441,-2.2886,-2.3071,-2.3091,-2.3023,-2.2847,-2.339,-2.3209,-2.1721,-2.2909,-2.3306,-2.2111,-2.3282,-2.3946,-2.372,-2.3672,-2.3404,-2.285,-2.365,-2.3719,-2.2947,-2.1729,-2.0902,-2.0484,-1.9484,-1.8906,-1.8721,-1.8477,-1.8325,-1.8315,-1.8115,-1.8008,-1.8008,-1.8008,-1.8008,-1.8008,-1.8008,-1.8008,-1.8008,-1.8008,-1.8008,-1.8008,-1.8008,-1.8164,-1.8286,-1.8086,-1.8008,-1.8008,-1.8008,-1.8008,-1.8008,-1.8008,-1.8008,-1.8008,-1.8008,-1.8008,-1.8008,-1.8008,-1.8008,-1.8008,-1.8008,-1.8008,-1.8008,-1.8008,-1.8008,-1.8008,-1.8008,-1.8008,-1.8008,-1.8008,-1.8008,-1.8008,-1.8008,-1.8008,-1.8008,-1.8008,-1.8008,-1.8008,-1.8008,-1.8008,-1.8008,-1.8008,-1.8008,-1.8008,-1.8008,-1.8008,-1.8008,-1.8008,-1.8008,-1.8008,-1.8008,-1.8008,-1.8008,-1.8008,-1.8008,-1.8008,-2.0,-2.0273,-2.0605,-2.0605,-2.0556,-2.0537,-2.0595,-2.0556,-2.0537,-2.0595,-2.0605,-2.0605,-2.0605,-2.0937,-2.1337,-2.1816,-2.2236,-2.2656,-2.3033,-2.3091,-2.2945,-2.2568,-2.251,-2.2178,-2.1278,-2.1142,-2.1292,-2.1683,-2.2154,-2.2283,-2.1954,-2.1906,-2.1912,-2.1849,-2.2237,-2.2251,-2.1923,-2.0965,-2.0299,-1.9795,-1.8929,-1.8325,-1.8008,-1.8008,-1.8008,-1.8008,-1.8008,-1.8008,-1.8008,-1.8008,-1.8008,-1.8008,-1.8008,-1.8008,-1.8008,-1.8008,-1.8008,-1.8008,-1.8008,-1.8008,-1.8008,-1.8008,-1.8008,-1.8008,-1.8008,-1.8008,-1.8008,-1.8008,-1.8008,-1.8008,-1.8008,-1.8008,-1.8008,-1.8008,-1.8008,-1.8008,-1.8008,-1.8008,-1.8008,-1.8008,-1.8008,-1.8008,-1.8008,-1.8008,-1.8008,-1.8008,-1.8008,-1.8008,-1.8008,-1.8008,-1.8008,-1.8008,-1.8008,-1.8008,-1.8008,-1.8008,-1.8008,-1.8008,-1.8008,-1.8008,-1.8008,-1.8008,-1.8008,-1.8008,-1.8008,-1.8008,-1.8008,-1.8008,-1.8008,-1.8008,-1.8008,-1.8008,-2.0488,-2.0546,-2.0605,-2.0605,-2.0293,-2.0117,-2.0517,-2.0283,-2.0127,-2.0527,-2.0605,-2.0605,-2.0605,-2.0937,-2.1337,-2.1816,-2.2236,-2.2656,-2.3033,-2.3091,-2.2945,-2.2568,-2.251,-2.2178,-2.1278,-2.0898,-2.0575,-2.0276,-2.0064,-2.0383,-2.146,-2.1508,-2.134,-2.1007,-2.0313,-2.0093,-2.045,-1.9493,-1.877,-1.8344,-1.8184,-1.8076,-1.8008,-1.8008,-1.8008,-1.8008,-1.8008,-1.8008,-1.8008,-1.8008,-1.8008,-1.8008,-1.8008,-1.8008,-1.8008,-1.8008,-1.8008,-1.8008,-1.8008,-1.8008,-1.8008,-1.8008,-1.8008,-1.8008,-1.8008,-1.8008,-1.8008,-1.8008,-1.8008,-1.8008,-1.8008,-1.8008,-1.8008,-1.8008,-1.8008,-1.8008,-1.8008,-1.8008,-1.8008,-1.8008,-1.8008,-1.8008,-1.8008,-1.8008,-1.8008,-1.8008,-1.8008,-1.8008,-1.8008,-1.8008,-1.8008,-1.8008,-1.8008,-1.8008,-1.8008,-1.8008,-1.8008,-1.8008,-1.8008,-1.8008,-1.8008,-1.8008,-1.8008,-1.8008,-1.8008,-1.8008,-1.8008,-1.8008,-1.8008,-1.8008,-1.8008,-1.8008,-2.0546,-2.0605,-2.0605,-2.0605,-2.0244,-1.9971,-2.0176,-2.0059,-1.9971,-2.0185,-2.0449,-2.0605,-2.0605,-2.0937,-2.1268,-2.1514,-2.1904,-2.2334,-2.2711,-2.2769,-2.2656,-2.2236,-2.2187,-2.1846,-2.0967,-2.0488,-2.0137,-1.9932,-1.9531,-1.9584,-2.0258,-2.0305,-2.0092,-1.9682,-1.9185,-1.8952,-1.9012,-1.8542,-1.8178,-1.8008,-1.8008,-1.8008,-1.8008,-1.8008,-1.8008,-1.8008,-1.8008,-1.8008,-1.8008,-1.8008,-1.8008,-1.8008,-1.8008,-1.8008,-1.8008,-1.8008,-1.8008,-1.8008,-1.8008,-1.8008,-1.8008,-1.8008,-1.8008,-1.8008,-1.8008,-1.8008,-1.8008,-1.8008,-1.8008,-1.8008,-1.8008,-1.8008,-1.8008,-1.8008,-1.8008,-1.8008,-1.8008,-1.8008,-1.8008,-1.8008,-1.8008,-1.8008,-1.8008,-1.8008,-1.8008,-1.8008,-1.8008,-1.8008,-1.8008,-1.8008,-1.8008,-1.8008,-1.8008,-1.8008,-1.8008,-1.8008,-1.8008,-1.8008,-1.8008,-1.8008,-1.8008,-1.8008,-1.8008,-1.8008,-1.8008,-1.8008,-1.8008,-1.8008,-1.8008,-1.8008,-1.8008,-1.8008,-2.0507,-2.0605,-2.0605,-2.0605,-2.0166,-1.9805,-1.9893,-1.9775,-1.965,-1.9873,-2.0185,-2.0488,-2.0586,-2.0859,-2.1083,-2.1181,-2.1523,-2.1894,-2.2314,-2.2373,-2.2217,-2.1797,-2.1748,-2.1396,-2.0546,-2.0039,-1.9746,-1.9648,-1.9258,-1.9053,-1.915,-1.9062,-1.8857,-1.8481,-1.8461,-1.8315,-1.8018,-1.8008,-1.8008,-1.8008,-1.8008,-1.8008,-1.8008,-1.8008,-1.8008,-1.8008,-1.8008,-1.8008,-1.8008,-1.8008,-1.8008,-1.8008,-1.8008,-1.8008,-1.8008,-1.8008,-1.8008,-1.8008,-1.8008,-1.8008,-1.8008,-1.8008,-1.8008,-1.8008,-1.8008,-1.8008,-1.8008,-1.8008,-1.8008,-1.8008,-1.8008,-1.8008,-1.8008,-1.8008,-1.8008,-1.8008,-1.8008,-1.8008,-1.8008,-1.8008,-1.8008,-1.8008,-1.8008,-1.8008,-1.8008,-1.8008,-1.8008,-1.8008,-1.8008,-1.8008,-1.8008,-1.8008,-1.8008,-1.8008,-1.8008,-1.8008,-1.8008,-1.8008,-1.8008,-1.8008,-1.8008,-1.8008,-1.7906,-1.7681,-1.7681,-1.7613,-1.7407,-1.7407,-1.7407,-1.7407,-1.7613,-1.7579,-2.0595,-2.0605,-2.0605,-2.0605,-1.9989,-1.9443,-1.9824,-1.927,-1.8939,-1.9756,-1.9941,-2.0098,-2.0537,-2.0635,-2.0762,-2.1132,0.0,-2.1445,-2.1885,-2.1943,-2.1787,-2.1307,-2.1249,-2.0908,-2.0059,-1.959,-1.918,-1.8744,-1.8369,-1.8291,-1.8637,-1.834,-1.8105,-1.8066,-1.8066,-1.8047,-1.8008,-1.8008,-1.8008,-1.8008,-1.8008,-1.8008,-1.8008,-1.8008,-1.8008,-1.8008,-1.8008,-1.8008,-1.8008,-1.8008,-1.8008,-1.8008,-1.8008,-1.8008,-1.8008,-1.8008,-1.8008,-1.8008,-1.8008,-1.8008,-1.8008,-1.8008,-1.8008,-1.8008,-1.8008,-1.8008,-1.8008,-1.8008,-1.8008,-1.8008,-1.8008,-1.8008,-1.8008,-1.8008,-1.8008,-1.8008,-1.8008,-1.8008,-1.8008,-1.8008,-1.8008,-1.8008,-1.8008,-1.8008,-1.8008,-1.8008,-1.8008,-1.8008,-1.8008,-1.8008,-1.8008,-1.8008,-1.8008,-1.8008,-1.8008,-1.8008,-1.8008,-1.8008,-1.8008,-1.8008,-1.8008,-1.8008,-1.7613,-1.674,-1.674,-1.6324,-1.5446,-1.5446,-1.5446,-1.5482,-1.6324,-1.6289,-2.0107,-2.0361,-2.0605,-2.0605,-1.9959,-1.9336,-1.9502,-1.9036,-1.8773,-1.9414,-1.9736,-2.0049,-2.0517,-2.0352,-2.0322,0.0,0.0,0.0,-2.1396,-2.1494,-2.1385,-2.121,-2.119,-2.0849,-2.0,-1.9531,-1.9004,-1.8276,-1.8105,-1.8086,-1.8217,-1.8105,-1.8008,-1.8008,-1.8008,-1.8008,-1.8008,-1.8008,-1.8008,-1.8008,-1.8008,-1.8008,-1.8008,-1.8008,-1.8008,-1.8008,-1.8008,-1.8008,-1.8008,-1.8008,-1.8008,-1.8008,-1.8008,-1.8008,-1.8008,-1.8008,-1.8008,-1.8008,-1.8008,-1.8008,-1.8008,-1.8008,-1.8008,-1.8008,-1.8008,-1.8008,-1.8008,-1.8008,-1.8008,-1.8008,-1.8008,-1.8008,-1.8008,-1.8008,-1.8008,-1.8008,-1.8008,-1.8008,-1.8008,-1.8008,-1.8008,-1.8008,-1.8008,-1.8008,-1.8008,-1.8008,-1.8008,-1.8008,-1.8008,-1.8008,-1.8008,-1.8008,-1.8008,-1.8008,-1.8008,-1.8008,-1.8008,-1.8008,-1.8008,-1.8008,-1.8008,-1.7467,-1.7001,-1.6602,-1.6044,-1.5579,-1.5199,-1.5199,-1.5199,-1.5199,-1.5587,-1.5552,-1.9834,-2.0234,-2.0605,-2.0605,-1.9959,-1.9287,-1.9287,-1.8848,-1.8578,-1.917,-1.9521,-1.9863,-2.0293,-2.0225,-2.0166,0.0,0.0,-2.0322,-2.0947,-2.1035,-2.1035,-2.1035,-2.1035,-2.0693,-1.9814,-1.9228,-1.8662,-1.8057,-1.8008,-1.8008,-1.8008,-1.8008,-1.8008,-1.8008,-1.8008,-1.8008,-1.8008,-1.7881,-1.7881,-1.8008,-1.7881,-1.7891,-1.8008,-1.8008,-1.8008,-1.8008,-1.8008,-1.8008,-1.8008,-1.8008,-1.8008,-1.8008,-1.8008,-1.8008,-1.8008,-1.8008,-1.8008,-1.8008,-1.8008,-1.8008,-1.8008,-1.8008,-1.8008,-1.8008,-1.8008,-1.8008,-1.8008,-1.8008,-1.8008,-1.8008,-1.8008,-1.8008,-1.8008,-1.8008,-1.8008,-1.8008,-1.8008,-1.8008,-1.8008,-1.8008,-1.8008,-1.8008,-1.8008,-1.8008,-1.8008,-1.8008,-1.8008,-1.8008,-1.8008,-1.8008,-1.8008,-1.8008,-1.8008,-1.8008,-1.8008,-1.8008,-1.8008,-1.8008,-1.8008,-1.8008,-1.8008,-1.7104,-1.6463,-1.6175,-1.5226,-1.4629,-1.4343,-1.4343,-1.4343,-1.4343,-1.4629,-1.4848,-1.9912,-2.0234,-2.0605,-2.0605,-1.9959,-1.9287,-1.9287,-1.8623,-1.8262,-1.9111,-1.9287,-1.9424,-1.9844,-2.0273,-2.0458,0.0,0.0,0.0,-2.0605,-2.0615,-2.0615,-2.0615,-2.0615,-2.0273,-1.9375,-1.8525,-1.8018,-1.8008,-1.8008,-1.8008,-1.8008,-1.8008,-1.8008,-1.8008,-1.8008,-1.8008,-1.8008,-1.7598,-1.7598,-1.8008,-1.7588,-1.7607,-1.8008,-1.8008,-1.8008,-1.8008,-1.8008,-1.8008,-1.8008,-1.8008,-1.8008,-1.8008,-1.8008,-1.8008,-1.8008,-1.8008,-1.8008,-1.8008,-1.8008,-1.8008,-1.8008,-1.8008,-1.8008,-1.8008,-1.8008,-1.8008,-1.8008,-1.8008,-1.8008,-1.8008,-1.8008,-1.8008,-1.8008,-1.8008,-1.8008,-1.8008,-1.8008,-1.8008,-1.8008,-1.8008,-1.8008,-1.8008,-1.8008,-1.8008,-1.8008,-1.8008,-1.8008,-1.8008,-1.8008,-1.8008,-1.8008,-1.8008,-1.8008,-1.8008,-1.8008,-1.8008,-1.8008,-1.8008,-1.8008,-1.8008,-1.8008,-1.7104,-1.614,-1.5234,-1.4243,-1.3273,-1.2342,-1.2342,-1.2342,-1.2342,-1.3273,-1.4059,-1.9007,-1.9355,-1.9697,-1.9697,-1.9268,-1.8812,-1.8812,-1.8418,-1.8252,-1.9111,-1.9287,-1.9512,-2.0263,-1.999,-1.9881,-2.0331,0.0,0.0,-2.0527,-2.0605,-2.0605,-2.0605,-2.0087,-1.9463,-1.8896,-1.834,-1.8008,-1.8008,-1.7744,-1.7578,-1.7578,-1.7305,-1.7275,-1.7568,-1.7578,-1.7441,-1.7106,-1.7002,-1.698,-1.7096,-1.697,-1.698,-1.7116,-1.7441,-1.7578,-1.7598,-1.7881,-1.8008,-1.8008,-1.8008,-1.8008,-1.8008,-1.8008,-1.8008,-1.8008,-1.8008,-1.8008,-1.8008,-1.8008,-1.8008,-1.8008,-1.8008,-1.8008,-1.8008,-1.8008,-1.8008,-1.8008,-1.8008,-1.8008,-1.8008,-1.8008,-1.8008,-1.8008,-1.8008,-1.8008,-1.8008,-1.8008,-1.8008,-1.8008,-1.8008,-1.8008,-1.8008,-1.8008,-1.8008,-1.8008,-1.8008,-1.8008,-1.8008,-1.8008,-1.8008,-1.8008,-1.8008,-1.7432,-1.7285,-1.794,-1.8008,-1.8008,-1.8008,-1.7398,-1.7035,-1.7035,-1.5473,-1.4486,-1.4171,-1.3237,-1.2592,-1.2305,-1.2305,-1.2405,-1.2643,-1.2938,-1.3383,-1.8654,-1.8955,-1.9287,-1.9287,-1.8965,-1.8598,-1.8598,-1.8276,-1.8252,-1.9111,-1.9287,-1.949,-2.0018,-1.9775,-1.959,-1.9805,-1.9531,-1.9531,-2.0225,-2.0361,-2.0361,-2.0361,-1.9561,-1.8936,-1.8627,-1.8252,-1.8008,-1.8008,-1.7627,-1.7383,-1.7383,-1.6941,-1.6746,-1.6917,-1.7051,-1.7002,-1.6697,-1.6562,-1.6562,-1.6697,-1.6562,-1.6541,-1.6716,-1.7012,-1.7227,-1.7402,-1.7656,-1.7861,0.0,-1.8008,-1.8008,-1.8008,-1.8008,-1.8008,-1.8008,-1.8008,-1.8008,-1.8008,-1.8008,-1.8008,-1.8008,-1.8008,-1.8008,-1.8008,-1.8008,-1.8008,-1.8008,-1.8008,-1.8008,-1.8008,-1.8008,-1.8008,-1.8008,-1.8008,-1.8008,-1.8008,-1.8008,-1.8008,-1.8008,-1.8008,-1.8008,-1.8008,-1.8008,-1.8008,-1.8008,-1.8008,-1.7681,-1.7467,-1.7467,-1.7148,-1.6941,-1.6941,-1.6428,-1.6324,-1.6897,-1.6941,-1.6941,-1.6941,-1.6402,-1.607,-1.607,-1.4557,-1.3709,-1.3709,-1.2776,-1.2305,-1.2305,-1.2412,-1.2603,-1.279,-1.3018,-1.3287,0.0,-1.8971,-1.9238,-1.9209,-1.8916,-1.8598,-1.8559,-1.8256,0.0,-1.9111,-1.9268,-1.9268,-1.9365,-1.9619,-1.9543,-1.8812,-1.9043,-1.9424,-1.9814,-1.9873,-1.9853,-1.9824,-1.9085,-1.8588,-1.8559,-1.8208,-1.7998,-1.7969,-1.7578,-1.7324,-1.7328,-1.6843,-1.6445,-1.6065,-1.6426,-1.6609,-1.6609,-1.623,-1.623,-1.6599,-1.6221,-1.6261,-1.6609,-1.6638,-1.6904,-1.7328,-1.7353,-1.7607,-1.7969,-1.7998,-1.8008,-1.8008,-1.7978,-1.7978,-1.8008,-1.7978,-1.7978,-1.8008,-1.8008,-1.7988,-1.7969,-1.7969,-1.7988,-1.8008,-1.8008,-1.8008,-1.8008,-1.8008,-1.8008,-1.8008,-1.8008,-1.8008,-1.8008,-1.8008,-1.8008,-1.8008,-1.8008,-1.8008,-1.8008,-1.8008,-1.8008,-1.8008,-1.8008,-1.794,-1.7896,-1.7896,-1.7104,-1.6498,-1.6498,-1.572,-1.5199,-1.5199,-1.5128,-1.5092,-1.5092,-1.5163,-1.5199,-1.5199,-1.5128,-1.5092,-1.5092,-1.4135,-1.36,-1.36,-1.276,-1.2338,-1.2338,-1.267,-1.2831,-1.2864,-1.338,-1.3613,-1.9719,0.0,-1.8676,-1.8389,-1.8442,-1.852,0.0,-1.8076,-1.8252,-1.9111,0.0,-1.9092,-2.0126,-1.9531,-1.9046,-1.9504,-1.9434,-1.9316,-1.9424,-1.9434,-1.9316,-1.8939,-1.8724,-1.8481,-1.8184,-1.8066,-1.7881,-1.7549,-1.7129,-1.6738,-1.6418,-1.5957,-1.5674,-1.5566,-1.5664,-1.5723,-1.5723,-1.5615,-1.5615,-1.5693,-1.5615,-1.5615,-1.5732,-1.6064,-1.631,-1.6447,-1.7122,-1.7441,-1.7549,-1.7881,-1.8008,-1.7978,-1.7656,-1.7725,-1.7969,-1.7646,-1.7734,-1.8008,-1.8008,-1.7803,-1.7529,-1.7529,-1.7744,-1.8008,-1.8008,-1.8008,-1.8008,-1.8008,-1.8008,-1.8008,-1.8008,-1.8008,-1.8008,-1.8008,-1.8008,-1.8008,-1.8008,-1.8008,-1.8008,-1.8008,-1.8008,-1.8008,-1.8008,-1.7398,-1.6922,-1.6922,-1.6114,-1.5517,-1.5517,-1.534,-1.5199,-1.5199,-1.4522,-1.4063,-1.4063,-1.4772,-1.5199,-1.5199,-1.4494,-1.4063,-1.4063,-1.3135,-1.2629,-1.2629,-1.2675,-1.2683,-1.2683,-1.2953,-1.3213,-1.3434,-1.354,-1.3726,-2.038,-1.9711,-1.9093,-1.8709,-1.8588,-1.8539,-1.8315,0.0,0.0,0.0,0.0,0.0,-1.9551,-1.9075,-1.8754,-1.9212,-1.8975,-1.8769,-1.8965,-1.8994,-1.8861,-1.8627,-1.8432,-1.8227,-1.8037,-1.7832,-1.7627,-1.7435,-1.6787,-1.6318,-1.6105,-1.5644,-1.541,-1.541,-1.541,-1.541,-1.541,-1.541,-1.541,-1.541,-1.541,-1.541,-1.542,-1.5654,-1.5909,-1.6124,-1.6604,-1.6926,-1.7109,-1.7301,-1.7389,-1.7369,-1.7168,-1.7227,-1.7393,-1.7168,-1.7227,-1.7389,-1.7389,-1.7275,-1.7119,-1.7314,-1.7539,-1.7764,-1.7949,-1.8008,-1.8008,-1.8008,-1.8008,-1.8008,-1.8008,-1.8008,-1.8008,-1.8008,-1.8008,-1.8008,-1.8008,-1.8008,-1.7862,-1.7432,-1.7364,-1.7217,-1.6793,-1.6298,-1.5965,-1.5965,-1.5119,-1.4522,-1.4522,-1.4127,-1.3875,-1.3875,-1.3375,-1.3062,-1.3062,-1.3557,-1.3875,-1.3875,-1.3339,-1.3062,-1.3062,-1.2556,-1.2365,-1.2543,-1.2703,-1.2857,-1.2998,-1.326,-1.3447,-1.3606,-1.374,-1.3935,-2.1028,-2.0521,-2.0035,-1.9274,-1.8906,-1.8666,-1.8539,0.0,0.0,0.0,0.0,0.0,-1.8754,-1.8685,-1.8637,-1.8773,-1.8383,-1.8183,-1.846,-1.8517,-1.8465,-1.8315,-1.8119,-1.8008,-1.8008,-1.7627,-1.7353,-1.7285,-1.6555,-1.6065,-1.5997,-1.5615,-1.541,-1.541,-1.541,-1.541,-1.541,-1.541,-1.541,-1.541,-1.541,-1.541,-1.541,-1.541,-1.5615,-1.5997,-1.6065,-1.6279,-1.6609,-1.6668,-1.6697,-1.6697,-1.6619,-1.6638,-1.6697,-1.6619,-1.6638,-1.6687,-1.6619,-1.6648,-1.6746,-1.709,-1.7227,-1.7353,-1.7705,-1.7861,-1.791,-1.791,-1.7959,-1.8008,-1.8008,-1.8008,-1.8008,-1.8008,-1.8008,-1.8008,-1.8008,-1.7906,-1.7545,-1.674,-1.6498,-1.614,-1.534,-1.5057,-1.4985,-1.4985,-1.4135,-1.3491,-1.3491,-1.2806,-1.2305,-1.2305,-1.2305,-1.2305,-1.2305,-1.2305,-1.2305,-1.2305,-1.2305,-1.2305,-1.2305,-1.2345,-1.2522,-1.2777,-1.2878,-1.3013,-1.328,-1.3527,-1.3666,-1.3673,-1.3968,-1.4088,-2.1934,-2.164,-2.1038,-1.8764,-1.8701,-1.8994,-1.8271,0.0,0.0,0.0,0.0,0.0,-1.9485,-1.9085,-1.8841,-1.9563,-1.9017,-1.8399,-1.8046,-1.8062,-1.7812,-1.7014,-1.7539,-1.8008,-1.8008,-1.7627,-1.7227,-1.6833,-1.6357,-1.5938,-1.5527,-1.5449,-1.541,-1.541,-1.541,-1.541,-1.541,-1.541,-1.541,-1.541,-1.541,-1.541,-1.541,-1.541,-1.5449,-1.5527,-1.5938,-1.6134,-1.6232,-1.6541,-1.6697,-1.6668,-1.6318,-1.6396,-1.6658,-1.6309,-1.6406,-1.6648,-1.6299,-1.6416,-1.6648,-1.6398,-1.6523,-1.6814,-1.6872,-1.7187,-1.748,-1.748,-1.7734,-1.8008,-1.8008,-1.8008,-1.8008,-1.8008,-1.8008,-1.8008,-1.8008,-1.7373,-1.6768,-1.6636,-1.5965,-1.5376,-1.5234,-1.4486,-1.3918,-1.3918,-1.3127,-1.2519,-1.2519,-1.2372,-1.2305,-1.2305,-1.2305,-1.2305,-1.2305,-1.2305,-1.2305,-1.2305,-1.2305,-1.2305,-1.2305,-1.2583,-1.2737,-1.2784,-1.3247,-1.3487,-1.354,-1.3874,-1.4021,-1.4021,-1.4068,-1.4088,-2.1533,-2.1353,-2.1002,-1.8878,-1.8994,-1.9404,-1.851,-1.8315,0.0,0.0,0.0,0.0,-1.9036,-1.8385,-1.7733,-1.7769,-1.7527,-1.713,-1.6698,-1.6554,-1.6332,-1.5904,-1.6455,-1.688,-1.688,-1.675,-1.6623,-1.6387,-1.5957,-1.5625,-1.542,-1.541,-1.541,-1.541,-1.541,-1.541,-1.541,-1.541,-1.541,-1.541,-1.541,-1.541,-1.541,-1.541,-1.541,-1.542,-1.5625,-1.5713,-1.5723,-1.5928,-1.5985,-1.5966,-1.5791,-1.584,-1.5996,-1.5781,-1.584,-1.5956,-1.5781,-1.585,-1.6025,-1.6085,-1.6232,-1.6416,-1.6629,-1.6843,-1.7031,-1.7031,-1.75,-1.8008,-1.8008,-1.8008,-1.8008,-1.8008,-1.7613,-1.7242,-1.7242,-1.6515,-1.5666,-1.5155,-1.47,-1.4243,-1.3738,-1.3237,-1.2952,-1.2952,-1.2592,-1.2305,-1.2305,-1.2305,-1.2305,-1.2305,-1.2305,-1.2305,-1.2305,-1.2305,-1.2305,-1.2305,-1.2305,-1.2371,-1.2569,-1.271,-1.2938,-1.3227,-1.346,-1.368,-1.3881,-1.4021,-1.4088,-1.4088,-1.4088,-1.4088,-2.1034,-2.0794,-2.0609,-1.8884,0.0,-1.9473,-1.888,-1.8676,-1.8539,0.0,0.0,-1.8281,-1.8676,-1.7912,-1.6967,-1.6224,-1.6116,-1.593,-1.5401,-1.525,-1.5128,-1.4879,-1.5317,-1.5627,-1.5627,-1.5556,-1.5588,-1.5811,-1.5387,-1.5196,-1.5381,-1.541,-1.541,-1.541,-1.541,-1.541,-1.541,-1.541,-1.541,-1.541,-1.541,-1.541,-1.541,-1.541,-1.541,-1.541,-1.541,-1.541,-1.541,-1.541,-1.541,-1.541,-1.541,-1.541,-1.541,-1.541,-1.541,-1.541,-1.541,-1.541,-1.5469,-1.5831,-1.5938,-1.6007,-1.6287,-1.6338,-1.629,-1.629,-1.6754,-1.7256,-1.747,-1.7434,-1.7329,-1.7329,-1.6793,-1.628,-1.628,-1.5508,-1.4629,-1.3854,-1.3528,-1.3135,-1.2409,-1.2305,-1.2305,-1.2305,-1.2305,-1.2305,-1.2305,-1.2305,-1.2305,-1.2305,-1.2305,-1.2305,-1.2305,-1.2305,-1.2305,-1.2305,-1.2305,-1.2405,-1.267,-1.2817,-1.3073,-1.3493,-1.364,-1.3854,-1.4088,-1.4088,-1.4088,-1.4088,-1.4088,-1.4088,-2.0911,-2.0537,-2.0085,-1.8444,-1.8354,-1.8783,-1.916,-1.8926,0.0,-1.9121,-1.8877,-1.8695,-1.916,-1.8451,-1.7507,-1.6523,-1.6059,-1.5503,-1.4605,-1.4888,-1.4843,-1.3918,-1.4388,-1.4789,-1.4789,-1.4194,-1.4104,-1.4932,-1.456,-1.4599,-1.5352,-1.541,-1.541,-1.541,-1.541,-1.541,-1.541,-1.541,-1.541,-1.541,-1.541,-1.541,-1.541,-1.541,-1.541,-1.541,-1.541,-1.541,-1.541,-1.541,-1.541,-1.541,-1.541,-1.541,-1.541,-1.541,-1.541,-1.541,-1.541,-1.541,-1.542,-1.5449,-1.5459,-1.5469,-1.5469,-1.5292,-1.504,-1.504,-1.4991,-1.5095,-1.5874,-1.5739,-1.5411,-1.5411,-1.534,-1.5305,-1.5305,-1.4522,-1.3781,-1.3709,-1.2989,-1.2378,-1.2305,-1.2305,-1.2305,-1.2305,-1.2305,-1.2305,-1.2305,-1.2305,-1.2305,-1.2305,-1.2305,-1.2305,-1.2305,-1.2305,-1.2305,-1.2305,-1.2305,-1.2311,-1.2331,-1.2879,-1.32,-1.324,-1.3774,-1.4068,-1.4088,-1.4088,-1.4088,-1.4088,-1.4088,-1.4088,-2.0542,-2.0089,-1.9649,-1.8325,-1.8091,0.0,0.0,-1.8965,-1.9092,-1.9248,-1.8459,-1.7406,-1.6334,-1.6058,-1.5642,-1.4576,-1.4143,-1.3818,-1.3454,-1.3273,-1.302,-1.2635,-1.2926,-1.3146,-1.3146,-1.3171,-1.3361,-1.3699,-1.354,-1.3786,-1.4599,-1.4658,-1.4874,-1.5381,-1.541,-1.541,-1.541,-1.541,-1.541,-1.541,-1.541,-1.541,-1.541,-1.541,-1.541,-1.541,-1.541,-1.541,-1.541,-1.541,-1.541,-1.541,-1.541,-1.541,-1.541,-1.541,-1.541,-1.541,-1.541,-1.541,-1.541,-1.541,-1.541,-1.541,-1.541,-1.4948,-1.4469,-1.4469,-1.3838,-1.3447,-1.4799,-1.5195,-1.5199,-1.5199,-1.4736,-1.4279,-1.4279,-1.3528,-1.2842,-1.2842,-1.2556,-1.2305,-1.2305,-1.2305,-1.2305,-1.2305,-1.2305,-1.2305,-1.2305,-1.2305,-1.2305,-1.2305,-1.2305,-1.2305,-1.2305,-1.2305,-1.2305,-1.2305,-1.2305,-1.2385,-1.261,-1.2986,-1.33,-1.344,-1.3881,-1.4088,-1.4088,-1.4088,-1.4088,-1.4088,-1.4088,-1.3988,-2.0011,-1.9481,-1.9083,-1.8048,0.0,0.0,-1.851,-1.8975,-1.9214,-1.8912,-1.7752,-1.6186,-1.4393,-1.4261,-1.4114,-1.3074,-1.2746,-1.261,-1.2522,-1.2161,-1.1873,-1.1737,-1.1781,-1.1812,-1.1812,-1.2092,-1.2366,-1.2604,-1.2604,-1.297,-1.3786,-1.3816,-1.4183,-1.4991,-1.5021,-1.5021,-1.5021,-1.5021,-1.5021,-1.5021,-1.5021,-1.5138,-1.541,-1.541,-1.541,-1.541,-1.541,-1.541,-1.541,-1.541,-1.541,-1.541,-1.541,-1.541,-1.541,-1.541,-1.541,-1.541,-1.541,-1.541,-1.541,-1.541,-1.541,-1.541,-1.541,-1.4658,-1.3816,-1.3816,-1.2852,-1.2109,-1.3215,-1.3757,-1.398,-1.398,-1.3467,-1.3006,-1.3107,-1.263,-1.2191,-1.2285,-1.2305,-1.2305,-1.2305,-1.2305,-1.2305,-1.2305,-1.2305,-1.2305,-1.2305,-1.2305,-1.2305,-1.2305,-1.2305,-1.2305,-1.2305,-1.2305,-1.2305,-1.2305,-1.2305,-1.2392,-1.2636,-1.2993,-1.3307,-1.346,-1.3888,-1.4088,-1.4088,-1.4088,-1.4041,-1.3948,-1.3948,-1.3788,-1.9308,-1.8797,-1.8329,-1.7592,0.0,0.0,-1.85,-1.8965,-1.9012,-1.8082,-1.6772,-1.5365,-1.395,-1.3673,-1.3382,-1.2445,-1.2298,-1.2198,-1.194,-1.1899,-1.1785,-1.1456,-1.1169,-1.0989,-1.0989,-1.076,-1.0926,-1.1741,-1.1803,-1.2143,-1.2948,-1.2978,-1.3373,-1.4154,-1.4183,-1.4183,-1.4183,-1.4183,-1.4183,-1.4183,-1.4183,-1.4599,-1.541,-1.541,-1.541,-1.541,-1.541,-1.541,-1.541,-1.541,-1.541,-1.541,-1.541,-1.541,-1.541,-1.541,-1.541,-1.541,-1.541,-1.541,-1.541,-1.541,-1.541,-1.541,-1.541,-1.4273,-1.3009,-1.3009,-1.2019,-1.0989,-1.0989,-1.1202,-1.1382,-1.1389,-1.1389,-1.151,-1.1839,-1.1899,-1.1986,-1.2238,-1.2298,-1.2298,-1.2305,-1.2305,-1.2305,-1.2305,-1.2305,-1.2305,-1.2305,-1.2305,-1.2305,-1.2305,-1.2305,-1.2305,-1.2305,-1.2305,-1.2305,-1.2305,-1.2305,-1.2305,-1.2305,-1.2886,-1.3213,-1.3213,-1.3788,-1.4088,-1.4088,-1.4088,-1.3935,-1.36,-1.36,-1.3447,-1.9103,-1.8718,-1.8473,-1.7223,-1.7471,-1.7857,0.0,-1.804,0.0,-1.675,-1.5552,-1.4386,-1.2972,-1.2732,-1.2561,-1.2103,-1.2033,-1.1891,-1.1597,-1.1383,-1.1216,-1.1129,-1.0868,-1.072,-1.072,-1.064,-1.0713,-1.0926,-1.0958,-1.1327,-1.2112,-1.2174,-1.2512,-1.3334,-1.3373,-1.3373,-1.3373,-1.3373,-1.3373,-1.3373,-1.3373,-1.4055,-1.541,-1.541,-1.541,-1.541,-1.541,-1.541,-1.541,-1.541,-1.541,-1.541,-1.541,-1.541,-1.541,-1.541,-1.541,-1.541,-1.541,-1.541,-1.541,-1.541,-1.541,-1.541,-1.541,-1.4273,-1.3009,-1.3009,-1.1885,-1.072,-1.072,-1.0787,-1.0922,-1.1295,-1.1389,-1.1415,-1.1536,-1.1557,-1.1643,-1.198,-1.2033,-1.2064,-1.2265,-1.2305,-1.2305,-1.2305,-1.2305,-1.2305,-1.2305,-1.2305,-1.2305,-1.2305,-1.2305,-1.2305,-1.2305,-1.2305,-1.2305,-1.2305,-1.2305,-1.2305,-1.2305,-1.2886,-1.3213,-1.3213,-1.3788,-1.4088,-1.4088,-1.4088,-1.3935,-1.36,-1.36,-1.3373,-1.9254,-1.8768,-1.8333,-1.7454,-1.7594,-1.7711,-1.6642,-1.6534,-1.6393,-1.5446,-1.4342,-1.3319,-1.2442,-1.2204,-1.2107,-1.1933,-1.1806,-1.159,-1.1296,-1.1102,-1.0949,-1.0835,-1.07,-1.0593,-1.0593,-1.0593,-1.0593,-1.0593,-1.0593,-1.08,-1.1288,-1.132,-1.1686,-1.2512,-1.2512,-1.2512,-1.2512,-1.2512,-1.2512,-1.2512,-1.2512,-1.3205,-1.4451,-1.4776,-1.5108,-1.541,-1.541,-1.541,-1.541,-1.541,-1.541,-1.541,-1.541,-1.541,-1.541,-1.541,-1.541,-1.541,-1.541,-1.541,-1.5352,-1.5021,-1.4932,-1.4874,-1.454,-1.3545,-1.2512,-1.2512,-1.16,-1.0593,-1.0593,-1.0593,-1.068,-1.1002,-1.1082,-1.1109,-1.1229,-1.1249,-1.1376,-1.1826,-1.1906,-1.2,-1.2251,-1.2305,-1.2305,-1.2305,-1.2305,-1.2305,-1.2305,-1.2305,-1.2305,-1.2305,-1.2305,-1.2305,-1.2305,-1.2305,-1.2305,-1.2305,-1.2305,-1.2305,-1.2305,-1.2886,-1.3213,-1.3213,-1.3788,-1.4088,-1.4088,-1.3968,-1.3761,-1.3427,-1.3347,-1.3026,-1.9449,-1.8773,-1.7968,-1.7939,-1.7804,-1.7373,-1.6108,-1.4608,-1.3644,-1.4185,-1.3218,-1.2265,-1.2265,-1.2044,-1.1886,-1.1832,-1.1563,-1.1283,-1.0995,-1.0955,-1.0855,-1.0626,-1.0593,-1.0593,-1.0593,-1.0593,-1.0593,-1.0593,-1.0593,-1.0593,-1.0593,-1.0593,-1.0926,-1.1679,-1.1679,-1.1679,-1.1679,-1.1679,-1.1664,-1.1634,-1.1634,-1.2051,-1.2849,-1.3781,-1.458,-1.5264,-1.5284,-1.5264,-1.5264,-1.5323,-1.5313,-1.5294,-1.5294,-1.5264,-1.5167,-1.5167,-1.5167,-1.5167,-1.5167,-1.5167,-1.505,-1.4332,-1.4085,-1.3936,-1.3221,-1.2451,-1.1803,-1.1803,-1.1226,-1.0593,-1.0593,-1.0593,-1.0593,-1.0593,-1.0593,-1.0667,-1.0895,-1.0955,-1.1129,-1.1752,-1.1866,-1.1966,-1.2245,-1.2305,-1.2305,-1.2305,-1.2305,-1.2305,-1.2305,-1.2305,-1.2305,-1.2305,-1.2305,-1.2305,-1.2305,-1.2305,-1.2305,-1.2305,-1.2305,-1.2305,-1.2305,-1.2886,-1.3213,-1.3213,-1.3788,-1.4088,-1.4088,-1.3746,-1.3453,-1.32,-1.2931,-1.2623,-1.8751,-1.8216,-1.7786,-1.7586,-1.6462,-1.5087,-1.3852,-1.2719,-1.2214,-1.3295,-1.2714,-1.2,-1.2,-1.1946,-1.1752,-1.1256,-1.1129,-1.0982,-1.0727,-1.0687,-1.066,-1.06,-1.0593,-1.0593,-1.0593,-1.0593,-1.0593,-1.0593,-1.0593,-1.0593,-1.0593,-1.0593,-1.0681,-1.0863,-1.0863,-1.0863,-1.0863,-1.0863,-1.0746,-1.0475,-1.0475,-1.0795,-1.1422,-1.3329,-1.4189,-1.4146,-1.4303,-1.4286,-1.4193,-1.4714,-1.4725,-1.4451,-1.4451,-1.4055,-1.3515,-1.3515,-1.3515,-1.3515,-1.3515,-1.3515,-1.3494,-1.3304,-1.3252,-1.3221,-1.3039,-1.2451,-1.1803,-1.1803,-1.1226,-1.0593,-1.0593,-1.0593,-1.0593,-1.0593,-1.0593,-1.0613,-1.0673,-1.0687,-1.0854,-1.141,-1.1523,-1.1683,-1.2211,-1.2305,-1.2305,-1.2305,-1.2305,-1.2305,-1.2305,-1.2305,-1.2305,-1.2305,-1.2305,-1.2305,-1.2305,-1.2305,-1.2305,-1.2305,-1.2305,-1.2305,-1.2305,-1.2886,-1.3213,-1.3213,-1.3788,-1.4088,-1.4088,-1.3746,-1.3453,-1.32,-1.2931,-1.2623,-1.8722,-1.7997,-1.7158,-1.6628,-1.5437,-1.4104,-1.294,-1.1912,-1.1391,-1.205,-1.1895,-1.1657,-1.1657,-1.1543,-1.1383,-1.1042,-1.0875,-1.0767,-1.0613,-1.0593,-1.0593,-1.0593,-1.0593,-1.0593,-1.0593,-1.0593,-1.0593,-1.0593,-1.0459,-1.0347,-1.0347,-1.0244,-1.0171,-1.0171,-1.0171,-1.0171,-1.0171,-1.0171,-1.009,-0.9913,-0.9913,-1.0253,-1.0942,-1.248,-1.3109,-1.2993,-1.3094,-1.3066,-1.3048,-1.3951,-1.4184,-1.401,-1.4141,-1.3936,-1.3524,-1.313,-1.3009,-1.3009,-1.3009,-1.3009,-1.2948,-1.2543,-1.242,-1.2358,-1.1973,-1.1569,-1.1226,-1.1226,-1.0926,-1.0593,-1.0593,-1.0593,-1.0593,-1.0593,-1.0593,-1.0593,-1.0593,-1.0593,-1.072,-1.1136,-1.1295,-1.1535,-1.2017,-1.2204,-1.2305,-1.2305,-1.2305,-1.2305,-1.2305,-1.2305,-1.2305,-1.2305,-1.2305,-1.2305,-1.2305,-1.2305,-1.2305,-1.2305,-1.2305,-1.2365,-1.2549,-1.2959,-1.3213,-1.3213,-1.3788,-1.4015,-1.3874,-1.354,-1.328,-1.2979,-1.2717,-1.2221,-1.8713,-1.7746,-1.6381,-1.5414,-1.4577,-1.3672,-1.2362,-1.1495,-1.0915,-1.0915,-1.1149,-1.1315,-1.1315,-1.1156,-1.0975,-1.0929,-1.0747,-1.0593,-1.0593,-1.0546,-1.0512,-1.0512,-1.0472,-1.0439,-1.0439,-1.0439,-1.0439,-1.0439,-1.018,-1.004,-1.004,-0.9813,-0.9715,-0.9715,-0.9715,-0.9715,-0.9715,-0.9715,-0.9659,-0.9606,-0.9552,-0.9889,-1.0572,-1.1241,-1.1633,-1.1828,-1.1872,-1.1853,-1.1909,-1.2977,-1.3387,-1.3396,-1.3617,-1.3665,-1.3507,-1.2826,-1.2581,-1.2581,-1.2581,-1.2581,-1.2489,-1.1803,-1.1586,-1.1469,-1.0807,-1.0593,-1.0593,-1.0593,-1.0593,-1.0593,-1.0593,-1.0593,-1.0593,-1.0593,-1.0593,-1.0593,-1.0593,-1.0593,-1.068,-1.0935,-1.1269,-1.1597,-1.1891,-1.2144,-1.2305,-1.2305,-1.2305,-1.2305,-1.2305,-1.2305,-1.2305,-1.2305,-1.2305,-1.2305,-1.2305,-1.2305,-1.2305,-1.2305,-1.2305,-1.2438,-1.277,-1.3046,-1.3114,-1.2994,-1.3725,-1.3968,-1.368,-1.3173,-1.2838,-1.262,-1.2047,-1.1354,-1.7784,-1.7,-1.5806,-1.4245,-1.377,-1.3172,-1.1273,-1.0742,-1.0646,-1.0646,-1.0881,-1.1049,-1.1049,-1.1015,-1.0909,-1.0687,-1.062,-1.0593,-1.0593,-1.0341,-1.0174,-1.0174,-0.9953,-0.9829,-0.9829,-0.9829,-0.9829,-0.9829,-0.9796,-0.974,-0.974,-0.9706,-0.9715,-0.9715,-0.9715,-0.9715,-0.9715,-0.9715,-0.9552,-0.9264,-0.9045,-0.8971,-0.9078,-0.9185,-0.9773,-1.0705,-1.0894,-1.0856,-1.0783,-1.149,-1.1739,-1.1626,-1.1673,-1.1434,-1.1083,-1.0958,-1.0926,-1.0926,-1.0926,-1.0926,-1.0902,-1.0807,-1.0776,-1.0744,-1.0618,-1.0593,-1.0593,-1.0593,-1.0593,-1.0593,-1.0593,-1.0593,-1.0593,-1.0593,-1.0593,-1.0593,-1.0593,-1.0593,-1.068,-1.0935,-1.1436,-1.1904,-1.2191,-1.2278,-1.2305,-1.2305,-1.2305,-1.2305,-1.2305,-1.2305,-1.2305,-1.2305,-1.2305,-1.2305,-1.2305,-1.2305,-1.2305,-1.2305,-1.2305,-1.2438,-1.277,-1.3046,-1.2833,-1.2105,-1.3394,-1.4068,-1.4028,-1.2603,-1.189,-1.1796,-1.0374,-0.9636,-1.6159,-1.5366,-1.4471,-1.3498,-1.2921,-1.2226,-1.0898,-1.0593,-1.0593,-1.0593,-1.0693,-1.0787,-1.0787,-1.0787,-1.074,-1.0613,-1.0593,-1.0533,-1.0334,-1.02,-1.0053,-0.9893,-0.976,-0.9715,-0.9715,-0.9715,-0.9715,-0.9715,-0.9526,-0.9411,-0.9411,-0.9279,-0.9192,-0.9192,-0.9192,-0.9192,-0.9192,-0.9192,-0.9125,-0.8964,-0.8871,-0.8804,-0.8804,-0.8804,-0.9083,-0.9567,-0.9654,-0.9616,-0.9608,-1.0547,-1.0903,-1.0861,-1.1014,-1.1034,-1.0911,-1.0332,-1.0204,-1.0314,-1.0314,-1.0238,-1.0151,-1.0486,-1.0479,-1.0341,-1.0539,-1.0593,-1.0593,-1.0593,-1.0593,-1.0593,-1.0593,-1.0593,-1.0593,-1.0593,-1.0593,-1.0593,-1.0593,-1.0593,-1.0727,-1.1149,-1.1443,-1.1764,-1.2225,-1.2305,-1.2305,-1.2305,-1.2305,-1.2305,-1.2305,-1.2305,-1.2305,-1.2305,-1.2305,-1.2305,-1.2305,-1.2305,-1.2305,-1.2305,-1.2305,-1.217,-1.1921,-1.2118,-1.183,-1.0955,-1.2344,-1.2662,-1.174,-1.1022,-1.0585,-1.0329,-0.9616,-0.8993,-1.4874,-1.3997,-1.3249,-1.294,-1.2255,-1.1483,-1.0755,-1.0593,-1.0593,-1.0593,-1.0593,-1.053,-1.0301,-1.0368,-1.0416,-1.0222,-1.0287,-1.023,-0.9793,-0.9821,-0.9784,-0.9599,-0.9506,-0.9459,-0.9459,-0.9459,-0.9459,-0.9459,-0.9224,-0.9104,-0.9104,-0.8898,-0.8804,-0.8804,-0.8804,-0.8804,-0.8804,-0.8804,-0.8804,-0.8804,-0.8804,-0.8804,-0.8804,-0.8804,-0.8804,-0.8804,-0.8804,-0.8804,-0.8877,-0.9717,-1.0105,-1.0201,-1.0381,-1.0638,-1.0806,-0.9986,-0.982,-1.0007,-1.0007,-0.9866,-0.9789,-1.0224,-1.0187,-1.006,-1.0392,-1.0479,-1.0492,-1.0573,-1.0593,-1.0593,-1.0593,-1.0593,-1.0593,-1.0593,-1.0593,-1.0593,-1.0593,-1.0593,-1.0767,-1.1316,-1.1389,-1.1575,-1.2198,-1.2305,-1.2305,-1.2305,-1.2305,-1.2305,-1.2305,-1.2305,-1.2305,-1.2305,-1.2305,-1.2305,-1.2305,-1.2305,-1.2305,-1.2305,-1.2305,-1.1983,-1.1221,-1.1331,-1.0901,-0.9751,-1.0767,-1.0856,-0.9984,-0.9646,-0.93,-0.8995,-0.868,-0.8122,-1.4376,-1.3357,-1.2538,-1.2447,-1.1872,-1.1211,-1.0707,-1.0593,-1.0593,-1.0593,-1.0593,-1.0333,-0.953,-0.9793,-0.989,-0.9205,-0.9453,-0.9486,-0.8781,-0.8998,-0.9251,-0.9237,-0.8991,-0.8851,-0.8851,-0.8851,-0.8851,-0.8851,-0.8838,-0.8831,-0.8831,-0.8818,-0.8804,-0.8804,-0.8804,-0.8804,-0.8804,-0.8804,-0.8804,-0.8804,-0.8804,-0.8804,-0.8804,-0.8804,-0.8804,-0.8804,-0.8804,-0.8804,-0.8811,-0.8877,-0.9045,-0.9266,-0.928,-0.9495,-0.9787,-0.9715,-0.9722,-0.9735,-0.9735,-0.9699,-0.9715,-0.9749,-0.9749,-0.976,-1.0053,-1.014,-1.02,-1.0512,-1.0593,-1.0593,-1.0593,-1.0593,-1.0593,-1.0593,-1.0593,-1.0593,-1.0593,-1.0593,-1.0767,-1.1316,-1.1389,-1.1575,-1.2198,-1.2305,-1.2305,-1.2305,-1.2305,-1.2305,-1.2305,-1.2305,-1.2305,-1.2305,-1.2305,-1.2305,-1.2305,-1.2305,-1.2305,-1.2305,-1.2305,-1.1983,-1.1221,-1.1206,-1.0369,-0.852,-0.8582,-0.9114,-1.0201,-0.891,-0.8295,-0.8234,-0.7021,-0.6416,-1.4032,-1.2728,-1.1785,-1.2005,-1.1297,-1.0497,-1.0309,-1.0452,-1.0593,-1.0593,-1.0174,-0.9658,-0.937,-0.9452,-0.9262,-0.8331,-0.8293,-0.8222,-0.7712,-0.7767,-0.7762,-0.7548,-0.7863,-0.8103,-0.8103,-0.8507,-0.8804,-0.8804,-0.8804,-0.8804,-0.8804,-0.8804,-0.8804,-0.8804,-0.8804,-0.8804,-0.8804,-0.8804,-0.8804,-0.8804,-0.8804,-0.8804,-0.8804,-0.8804,-0.8804,-0.8804,-0.8804,-0.8804,-0.8804,-0.8804,-0.8871,-0.8938,-0.8938,-0.9111,-0.9351,-0.9192,-0.9239,-0.9371,-0.9371,-0.9279,-0.9185,-0.9559,-0.9552,-0.9464,-0.9943,-1.0083,-1.018,-1.0506,-1.0593,-1.0593,-1.0593,-1.0593,-1.0593,-1.0593,-1.0593,-1.0593,-1.0593,-1.0593,-1.0767,-1.1316,-1.1389,-1.1575,-1.2198,-1.2305,-1.2305,-1.2305,-1.2305,-1.2305,-1.2305,-1.2305,-1.2305,-1.2305,-1.2305,-1.2305,-1.2305,-1.2305,-1.2305,-1.2305,-1.2305,-1.1596,-1.0024,-1.0048,-0.9159,-0.7079,-0.7137,-0.739,-0.7829,-0.7333,-0.7055,-0.6954,-0.6514,-0.63,-1.3908,-1.2552,-1.1529,-1.1771,-1.0982,-1.0189,-1.0255,-1.0341,-1.0472,-1.0573,-0.9913,-0.9204,-0.8909,-0.8619,-0.8153,-0.7342,-0.7265,-0.7159,-0.6642,-0.6776,-0.6837,-0.663,-0.702,-0.7343,-0.7343,-0.7996,-0.8427,-0.8427,-0.8672,-0.8804,-0.8804,-0.8804,-0.8804,-0.8804,-0.8804,-0.8804,-0.8804,-0.8804,-0.8804,-0.8804,-0.8804,-0.8804,-0.8804,-0.8804,-0.8804,-0.8804,-0.8804,-0.8804,-0.8804,-0.8804,-0.8804,-0.8804,-0.8804,-0.8898,-0.9044,-0.8878,-0.8904,-0.9071,-0.9071,-0.8944,-0.8871,-0.9265,-0.9297,-0.9304,-0.982,-1.004,-1.018,-1.0506,-1.0593,-1.0593,-1.0593,-1.0593,-1.0593,-1.0593,-1.0593,-1.0593,-1.0593,-1.0593,-1.0767,-1.1316,-1.1389,-1.1575,-1.2198,-1.2305,-1.2305,-1.2305,-1.2305,-1.2305,-1.2305,-1.2305,-1.2305,-1.2305,-1.2305,-1.2305,-1.2305,-1.2305,-1.2305,-1.2305,-1.2305,-1.1397,-0.9372,-0.9394,-0.844,-0.6338,-0.6392,-0.6443,-0.6443,-0.6443,-0.6392,-0.63,-0.63,-0.63,0.0,0.0,0.0,-1.1688,-1.0993,-1.0346,-1.0506,-1.0307,-1.0187,-1.0519,-0.9907,-0.9032,-0.8188,-0.7302,-0.6591,-0.6259,-0.6402,-0.6305,-0.5578,-0.6095,-0.6534,-0.6534,-0.6561,-0.6561,-0.6561,-0.7235,-0.767,-0.767,-0.8348,-0.8778,-0.8778,-0.8778,-0.8804,-0.8804,-0.8804,-0.8804,-0.8804,-0.8804,-0.8804,-0.8804,-0.8804,-0.8804,-0.8804,-0.8804,-0.8804,-0.8804,-0.8804,-0.8804,-0.8804,-0.8804,-0.8804,-0.8804,-0.8804,-0.8804,-0.8804,-0.8804,-0.8804,-0.8804,-0.8804,-0.8804,-0.8804,-0.8804,-0.8978,-0.9264,-0.9593,-0.9886,-1.018,-1.0506,-1.0593,-1.0593,-1.0593,-1.0593,-1.0593,-1.0593,-1.0593,-1.0593,-1.0593,-1.0593,-1.076,-1.1303,-1.1382,-1.1575,-1.2191,-1.2291,-1.2305,-1.2305,-1.2305,-1.2305,-1.2305,-1.2305,-1.2305,-1.2305,-1.2305,-1.2305,-1.2305,-1.2268,-1.2261,-1.2261,-1.2224,-1.1323,-0.9334,-0.9258,-0.8313,-0.6338,-0.63,-0.63,-0.63,-0.63,-0.63,-0.63,-0.63,-0.63,-1.3956,0.0,0.0,0.0,0.0,0.0,-0.9689,-0.9706,-0.9886,-1.018,-0.9544,-0.8939,-0.8939,-0.7607,-0.6457,-0.6355,-0.5781,-0.5276,-0.4951,-0.5003,-0.5089,-0.5089,-0.5519,-0.5814,-0.5814,-0.6475,-0.6912,-0.6912,-0.7589,-0.7996,-0.7996,-0.8507,-0.8804,-0.8804,-0.8804,-0.8804,-0.8804,-0.8804,-0.8804,-0.8804,-0.8804,-0.8804,-0.8804,-0.8804,-0.8804,-0.8804,-0.8804,-0.8804,-0.8804,-0.8804,-0.8804,-0.8804,-0.8804,-0.8804,-0.8804,-0.8804,-0.8804,-0.8804,-0.8804,-0.8804,-0.8804,-0.8804,-0.8978,-0.9264,-0.9593,-0.9886,-1.018,-1.0506,-1.0593,-1.0593,-1.0593,-1.0593,-1.0593,-1.0593,-1.0593,-1.0593,-1.0593,-1.0593,-1.07,-1.1042,-1.1283,-1.155,-1.1924,-1.2164,-1.2305,-1.2305,-1.2305,-1.2305,-1.2305,-1.2305,-1.2305,-1.2305,-1.2305,-1.2305,-1.2305,-1.162,-1.1199,-1.1199,-1.0533,-0.9556,-0.8275,-0.8199,-0.7591,-0.6338,-0.63,-0.63,-0.63,-0.63,-0.63,-0.63,-0.63,-0.63,-1.426,-1.3232,0.0,-1.1217,0.0,0.0,-0.9583,-0.9459,-0.9579,-0.9873,-0.9251,-0.8685,-0.8879,-0.7778,-0.6849,-0.6849,-0.6418,-0.5741,-0.4834,-0.4641,-0.4563,-0.4498,-0.4842,-0.5085,-0.5085,-0.5737,-0.6145,-0.6145,-0.6826,-0.7369,-0.7696,-0.8401,-0.8804,-0.8804,-0.8804,-0.8804,-0.8804,-0.8804,-0.8804,-0.8804,-0.8804,-0.8804,-0.8804,-0.8804,-0.8804,-0.8804,-0.8804,-0.8804,-0.8804,-0.8804,-0.8804,-0.8804,-0.8804,-0.8804,-0.8804,-0.8804,-0.8804,-0.8804,-0.8804,-0.8804,-0.8804,-0.8804,-0.8978,-0.9264,-0.9593,-0.9886,-1.018,-1.0506,-1.0593,-1.0593,-1.0593,-1.0593,-1.0593,-1.0593,-1.0593,-1.0593,-1.0593,-1.0593,-1.068,-1.0935,-1.1229,-1.1523,-1.1852,-1.2111,-1.2305,-1.2305,-1.2305,-1.2305,-1.2305,-1.2305,-1.2305,-1.2305,-1.2305,-1.2114,-1.1694,-1.1124,-1.0634,-1.019,-0.9631,-0.8841,-0.7859,-0.7783,-0.7326,-0.6338,-0.63,-0.63,-0.63,-0.63,-0.63,-0.63,-0.63,-0.63,-1.4698,-1.3823,0.0,-1.1618,-1.1105,0.0,-0.9897,-0.9409,-0.924,-0.9548,-0.8959,-0.8427,-0.848,-0.7958,-0.7562,-0.7588,-0.7634,-0.7024,-0.5155,-0.494,-0.4866,-0.456,-0.4581,-0.457,-0.4519,-0.503,-0.5378,-0.5378,-0.6064,-0.6804,-0.753,-0.8262,-0.8659,-0.8626,-0.8705,-0.8758,-0.8758,-0.8758,-0.8778,-0.8804,-0.8804,-0.8804,-0.8804,-0.8804,-0.8804,-0.8804,-0.8804,-0.8791,-0.8758,-0.8791,-0.8804,-0.8804,-0.8804,-0.8804,-0.8804,-0.8804,-0.8804,-0.8804,-0.8804,-0.8804,-0.8804,-0.8804,-0.8978,-0.9257,-0.9552,-0.986,-1.018,-1.0506,-1.0593,-1.0593,-1.0593,-1.0593,-1.0593,-1.0593,-1.0593,-1.0593,-1.0593,-1.0593,-1.0667,-1.0895,-1.1182,-1.147,-1.1806,-1.2058,-1.2265,-1.2298,-1.2305,-1.2305,-1.2305,-1.2305,-1.2305,-1.2305,-1.2187,-1.1768,-1.0901,-1.0596,-1.0078,-0.9183,-0.9031,-0.858,-0.7668,-0.7629,-0.7215,-0.63,-0.6282,-0.6282,-0.63,-0.63,-0.63,-0.63,-0.63,-0.63,-1.4698,-1.3823,-1.272,-1.1897,-1.1414,0.0,-0.9997,-0.9275,-0.8838,-0.8944,-0.8679,-0.8527,-0.8955,-0.8387,-0.7901,-0.8191,-0.7842,-0.7195,-0.6193,-0.6404,-0.6131,-0.4819,-0.5031,-0.5081,-0.4543,-0.4625,-0.4704,-0.4704,-0.5328,-0.6036,-0.6777,-0.7509,-0.7814,-0.7609,-0.8171,-0.8482,-0.8482,-0.8482,-0.8577,-0.8804,-0.8804,-0.8804,-0.8804,-0.8804,-0.8804,-0.8804,-0.8804,-0.8671,-0.8502,-0.8711,-0.8804,-0.8804,-0.8804,-0.8804,-0.8804,-0.8804,-0.8804,-0.8804,-0.8804,-0.8804,-0.8804,-0.8804,-0.8978,-0.9224,-0.9284,-0.967,-1.018,-1.0506,-1.0593,-1.0593,-1.0593,-1.0593,-1.0593,-1.0593,-1.0593,-1.0593,-1.0593,-1.0593,-1.0613,-1.0667,-1.0875,-1.1169,-1.1463,-1.1757,-1.2067,-1.2265,-1.2305,-1.2305,-1.2305,-1.2305,-1.2305,-1.2305,-1.1583,-1.1013,-1.0826,-0.9324,-0.8309,-0.8084,-0.7326,-0.6795,-0.6606,-0.6606,-0.649,-0.63,-0.6139,-0.6135,-0.63,-0.63,-0.63,-0.63,-0.63,-0.63,-1.5231,-1.426,-1.312,-1.2187,-1.1724,0.0,0.0,-0.9152,-0.8968,-0.8651,-0.8357,-0.829,-0.8724,-0.8563,-0.8391,-0.8562,-0.8711,-0.8485,-0.7537,-0.704,-0.6541,-0.597,-0.5438,-0.507,-0.5011,-0.4704,-0.4491,-0.4491,-0.5109,-0.5651,-0.6036,-0.6691,-0.6998,-0.6852,-0.7442,-0.7815,-0.7955,-0.8245,-0.8543,-0.8804,-0.8804,-0.8804,-0.8804,-0.8657,-0.8591,-0.8584,-0.8437,-0.8283,-0.8163,-0.8285,-0.8345,-0.8372,-0.8691,-0.8717,-0.8611,-0.8751,-0.8804,-0.8804,-0.8804,-0.8804,-0.8804,-0.8804,-0.8878,-0.9024,-0.9171,-0.9617,-1.018,-1.0506,-1.0593,-1.0593,-1.0593,-1.0593,-1.0593,-1.0593,-1.0593,-1.0593,-1.0593,-1.0593,-1.0593,-1.0593,-1.0713,-1.0901,-1.1156,-1.1577,-1.1953,-1.2064,-1.2204,-1.2305,-1.2305,-1.2305,-1.2114,-1.162,-1.1087,-1.0372,-0.9399,-0.8385,-0.7595,-0.7099,-0.6567,-0.63,-0.63,-0.63,-0.6262,-0.6146,-0.5996,-0.5993,-0.6146,-0.6146,-0.6186,-0.63,-0.63,-0.63,-1.5752,-1.4654,-1.3445,-1.2516,-1.1949,-1.1185,0.0,0.0,0.0,-0.8525,-0.8129,-0.7967,-0.8192,-0.8415,-0.8584,-0.8704,-0.9365,-0.9558,-0.8661,-0.7542,-0.681,-0.685,-0.5862,-0.5205,-0.5337,-0.4862,-0.4522,-0.4491,-0.5003,-0.53,-0.53,-0.5869,-0.6155,-0.6116,-0.6613,-0.7048,-0.7429,-0.7929,-0.8389,-0.8804,-0.8804,-0.8778,-0.8717,-0.8509,-0.8368,-0.8301,-0.8012,-0.7872,-0.7819,-0.7879,-0.7872,-0.7879,-0.8497,-0.8577,-0.8435,-0.8697,-0.8804,-0.8804,-0.8804,-0.8804,-0.8804,-0.8804,-0.8804,-0.8871,-0.9191,-0.963,-1.0107,-1.0492,-1.0593,-1.0593,-1.0593,-1.0593,-1.0593,-1.0593,-1.0593,-1.0593,-1.0593,-1.0593,-1.0593,-1.0593,-1.0593,-1.0687,-1.0942,-1.1436,-1.1839,-1.1899,-1.2118,-1.2305,-1.2305,-1.2114,-1.1694,-1.0901,-1.0447,-0.9545,-0.7936,-0.7633,-0.7176,-0.6338,-0.63,-0.63,-0.63,-0.6272,-0.6142,-0.5952,-0.5837,-0.5833,-0.5949,-0.5949,-0.6081,-0.63,-0.63,-0.63,-1.5752,-1.4429,-1.3161,-1.3008,-1.1981,-1.0894,-1.0486,0.0,-0.926,-0.8475,0.0,-0.7831,-0.765,0.0,0.0,-0.8362,-0.8724,-0.8977,-0.9085,-0.8566,-0.7616,-0.6138,-0.6459,-0.6283,-0.4923,-0.4721,-0.4638,-0.4501,-0.457,-0.4625,-0.4625,-0.5139,-0.5306,-0.5089,-0.5746,-0.6452,-0.714,-0.733,-0.7889,-0.8804,-0.8804,-0.8671,-0.8449,-0.8415,-0.823,-0.7952,-0.7919,-0.7776,-0.7564,-0.7792,-0.7769,-0.7598,-0.8208,-0.8429,-0.8435,-0.8697,-0.8804,-0.8804,-0.8804,-0.8804,-0.8804,-0.8804,-0.8804,-0.8911,-0.9466,-0.9679,-0.9876,-1.0432,-1.0593,-1.0593,-1.0593,-1.0593,-1.0593,-1.0593,-1.0593,-1.0593,-1.0593,-1.0593,-1.0593,-1.0593,-1.0593,-1.0687,-1.0942,-1.1263,-1.1563,-1.1866,-1.2118,-1.2305,-1.2305,-1.1502,-1.0938,-1.082,-0.921,-0.8046,-0.7821,-0.6984,-0.6416,-0.63,-0.63,-0.63,-0.63,-0.6129,-0.5983,-0.583,-0.5688,-0.5684,-0.5827,-0.5827,-0.5976,-0.63,-0.63,-0.63,-1.6744,-1.5367,-1.4021,-1.3746,-1.2689,-1.1466,-1.0572,-1.0102,-0.965,-0.892,0.0,0.0,0.0,0.0,0.0,0.0,-0.839,-0.8731,-0.8485,-0.8687,-0.8598,-0.7858,-0.6937,-0.5873,-0.4706,-0.4586,-0.4559,-0.4494,-0.4491,-0.4491,-0.4491,-0.4524,-0.4528,-0.4485,-0.4975,-0.5499,-0.6042,-0.6457,-0.7175,-0.8156,-0.7995,-0.7916,-0.7892,-0.7883,-0.7612,-0.7142,-0.7318,-0.7306,-0.7214,-0.7326,-0.7428,-0.7531,-0.7949,-0.8223,-0.8435,-0.8697,-0.8804,-0.8804,-0.8804,-0.8804,-0.8804,-0.8804,-0.8804,-0.8918,-0.9506,-0.9715,-0.9836,-1.0425,-1.0593,-1.0593,-1.0593,-1.0593,-1.0593,-1.0593,-1.0593,-1.0593,-1.0593,-1.0593,-1.0593,-1.0593,-1.0593,-1.0633,-1.0754,-1.0982,-1.1216,-1.1343,-1.1278,-1.1198,-1.1198,-1.0479,-0.9701,-0.9135,-0.8309,-0.7553,-0.6984,-0.6443,-0.6129,-0.6129,-0.6044,-0.5993,-0.5993,-0.5854,-0.5745,-0.5681,-0.5569,-0.5566,-0.5677,-0.5762,-0.5915,-0.6129,-0.6255,-0.63,-1.6977,-1.5719,-1.4466,-1.399,-1.3006,-1.1847,-1.0683,-1.037,-1.0141,-0.9371,-0.9063,0.0,0.0,0.0,-0.8077,-0.7767,0.0,-0.8317,-0.7952,-0.8452,-0.8804,-0.8688,-0.6974,-0.5446,-0.4588,-0.4528,-0.4535,-0.4494,-0.4491,-0.4491,-0.4491,-0.4222,-0.4109,-0.419,-0.4427,-0.4808,-0.5302,-0.5757,-0.6461,-0.7348,-0.7327,-0.729,-0.7254,-0.7241,-0.7058,-0.671,-0.6751,-0.6852,-0.7,-0.7,-0.7248,-0.7638,-0.7819,-0.8163,-0.8543,-0.8731,-0.8804,-0.8804,-0.8804,-0.8804,-0.8804,-0.8804,-0.8804,-0.8918,-0.9506,-0.9715,-0.9836,-1.0425,-1.0593,-1.0593,-1.0593,-1.0593,-1.0593,-1.0593,-1.0593,-1.0593,-1.0593,-1.0593,-1.053,-1.0301,-1.0238,-1.0174,-0.9939,-1.0302,-1.0626,-1.0626,-1.0262,-0.9962,-1.0035,-0.9301,-0.8501,-0.7774,-0.7434,-0.6957,-0.6211,-0.6034,-0.5929,-0.5929,-0.5864,-0.5783,-0.5745,-0.5644,-0.5569,-0.5562,-0.545,-0.545,-0.5562,-0.5711,-0.5861,-0.5936,-0.6207,-0.63,-1.5803,-1.4817,-1.3901,-1.3444,-1.2572,-1.1678,-1.1094,-1.0973,-1.0687,-0.9695,-0.9487,-0.9319,-0.8773,-0.827,-0.7997,0.0,-0.7869,0.0,0.0,-0.7932,-0.7809,-0.7412,-0.6435,-0.5446,-0.4588,-0.4624,-0.4651,-0.4501,-0.4491,-0.4491,-0.4491,-0.4294,-0.419,-0.4197,-0.4213,-0.4573,-0.5302,-0.5449,-0.5819,-0.6442,-0.703,-0.7053,-0.6629,-0.664,-0.6758,-0.695,-0.6441,-0.652,-0.7,-0.7,-0.7353,-0.7892,-0.7905,-0.8258,-0.8791,-0.8804,-0.8804,-0.8804,-0.8804,-0.8804,-0.8804,-0.8804,-0.8804,-0.8918,-0.9506,-0.9715,-0.9836,-1.0425,-1.0593,-1.0593,-1.0593,-1.0593,-1.0593,-1.0593,-1.0593,-1.0593,-1.0593,-1.0593,-1.0333,-0.9498,-0.9338,-0.9075,-0.8221,-0.9013,-0.9756,-0.9756,-0.9245,-0.8917,-0.9114,-0.809,-0.7408,-0.7482,-0.6513,-0.5849,-0.5817,-0.5813,-0.581,-0.581,-0.5803,-0.5739,-0.5603,-0.5593,-0.5552,-0.5405,-0.5395,-0.5395,-0.5402,-0.5661,-0.5803,-0.5817,-0.6156,-0.63,-1.6508,-1.547,-1.443,-1.4282,-1.324,-1.221,-1.2036,-1.1744,-1.1338,-1.0629,-1.0495,-1.0225,-0.939,-0.9079,0.0,0.0,0.0,-0.7989,0.0,-0.7748,-0.7467,-0.7012,-0.6442,-0.564,-0.4594,-0.4539,-0.4545,-0.4494,-0.4491,-0.4491,-0.4491,-0.4301,-0.4264,-0.4389,-0.4271,-0.437,-0.4765,-0.4816,-0.5108,-0.566,-0.5709,-0.5814,-0.602,-0.6229,-0.6168,-0.5905,-0.6492,-0.6626,-0.6511,-0.7083,-0.7562,-0.7925,-0.815,-0.8464,-0.8804,-0.8804,-0.8804,-0.8804,-0.8804,-0.8804,-0.8804,-0.8804,-0.8911,-0.9144,-0.9566,-0.982,-1.0053,-1.0479,-1.0593,-1.0593,-1.0593,-1.0174,-0.9754,-0.9754,-0.9294,-0.8865,-0.8865,-0.8865,-0.8807,-0.8484,-0.8452,-0.8355,-0.8059,-0.7859,-0.7904,-0.8499,-0.7991,-0.7571,-0.7639,-0.686,-0.6316,-0.6371,-0.6046,-0.58,-0.58,-0.5715,-0.562,-0.5549,-0.5545,-0.5521,-0.5474,-0.5474,-0.5446,-0.5395,-0.5395,-0.5395,-0.5395,-0.5657,-0.58,-0.581,-0.6156,-0.63,-1.6311,-1.5569,-1.4765,-1.4491,-1.3706,-1.2918,-1.2567,-1.2276,-1.1847,-1.1151,-1.1,-1.0753,-0.9932,-0.9626,-0.9379,0.0,0.0,0.0,0.0,-0.7424,-0.7202,-0.6836,-0.6457,-0.5832,-0.4933,-0.4576,-0.4433,-0.4487,-0.444,-0.4436,-0.4487,-0.4375,-0.4365,-0.4487,-0.4372,-0.4368,-0.4487,-0.4491,-0.4604,-0.4847,-0.4886,-0.5009,-0.5236,-0.5456,-0.5459,-0.5324,-0.5856,-0.5996,-0.596,-0.6811,-0.735,-0.7663,-0.8207,-0.855,-0.8804,-0.8804,-0.8804,-0.8804,-0.8804,-0.8804,-0.8804,-0.8804,-0.8978,-0.9264,-0.9593,-0.9886,-1.0119,-1.0122,-1.0142,-1.0079,-0.9748,-0.9262,-0.8844,-0.8844,-0.842,-0.7994,-0.7994,-0.7994,-0.7897,-0.76,-0.7535,-0.7442,-0.7116,-0.6597,-0.6531,-0.7405,-0.6864,-0.6395,-0.6424,-0.5998,-0.5667,-0.5722,-0.5677,-0.5644,-0.5644,-0.5562,-0.5501,-0.5402,-0.5395,-0.5395,-0.5395,-0.5395,-0.5395,-0.5395,-0.5395,-0.5395,-0.5395,-0.5657,-0.58,-0.581,-0.6156,-0.63]},{"header":{"parameterUnit":"m.s-1","parameterCategory":1,"la1":30.6,"la2":29.2853,"lo1":-89.7004,"lo2":-87.6739,"dy":0.0162,"dx":0.0183,"nx":112,"ny":82,"refTime":"2026-03-23T00:00:00:Z","depth":0,"parameterNumber":3,"parameterNumberName":"V-component_of_WINDS"},"data":[0.0,0.0,0.0,0.0,0.0,0.0,0.0,0.0,0.0,0.0,0.0,0.0,0.0,0.0,0.0,0.0,0.0,0.0,0.0,0.0,0.0,0.0,0.0,0.0,0.0,0.0,0.0,0.0,0.0,0.0,0.0,0.0,0.0,0.0,0.0,0.0,0.0,0.0,0.0,0.0,0.0,0.0,0.0,0.0,0.0,0.0,0.0,0.0,0.0,0.0,0.0,0.0,0.0,0.0,0.0,0.0,0.0,0.0,0.0,0.0,0.0,0.0,0.0,0.0,0.0,0.0,0.0,0.0,0.0,0.0,0.0,0.0,0.0,0.0,0.0,0.0,0.0,0.0,0.0,0.0,0.0,0.0,0.0,0.0,0.0,0.0,0.0,0.0,0.0,0.0,0.6913,0.7078,0.7095,0.7095,0.7095,0.7095,0.697,0.6719,0.0,0.0,0.0,0.0,0.0,0.0,0.0,0.0,0.0,0.0,0.0,0.0,0.0,0.0,0.0,0.0,0.0,0.0,0.0,0.0,0.0,0.0,0.0,0.0,0.0,0.0,0.0,0.0,0.0,0.0,0.0,0.0,0.0,0.0,0.0,0.0,0.0,0.0,0.0,0.0,0.0,0.0,0.0,0.0,0.0,0.0,0.0,0.0,0.0,0.0,0.0,0.0,0.0,0.0,0.0,0.0,0.0,0.0,0.0,0.0,0.0,0.0,0.0,0.0,0.0,0.0,0.0,0.0,0.0,0.0,0.0,0.0,0.0,0.0,0.0,0.0,0.0,0.0,0.0,0.0,0.0,0.0,0.0,0.0,0.0,0.0,0.0,0.0,0.0,0.0,0.0,0.0,0.0,0.0,0.0,0.0,0.0,0.0,0.0,0.0,0.0,0.0,0.0,0.0,0.6841,0.7068,0.7095,0.7095,0.7095,0.7095,0.697,0.6719,0.0,0.0,0.0,0.0,0.0,0.0,0.0,0.0,0.0,0.0,0.0,0.0,0.0,0.0,0.0,0.0,0.0,0.0,0.0,0.0,0.0,0.0,0.0,0.0,0.0,0.0,0.0,0.0,0.0,0.0,0.0,0.0,0.0,0.0,0.0,0.0,0.0,0.0,0.0,0.0,0.0,0.0,0.0,0.0,0.0,0.0,0.0,0.0,0.0,0.0,0.0,0.0,0.0,0.0,0.0,0.0,0.0,0.0,0.0,0.0,0.0,0.0,0.0,0.0,0.0,0.0,0.0,0.0,0.0,0.0,0.0,0.0,0.0,0.0,0.0,0.0,0.0,0.0,0.0,0.0,0.0,0.0,0.0,0.0,0.0,0.0,0.0,0.0,0.0,0.0,0.0,0.0,0.0,0.0,0.0,0.0,0.0,0.0,0.0,0.0,0.0,0.0,0.0,0.6824,0.6862,0.7071,0.7095,0.7095,0.7095,0.7095,0.697,0.6719,0.6702,0.0,0.0,0.0,0.0,0.0,0.0,0.0,0.0,0.0,0.0,0.0,0.0,0.0,0.0,0.0,0.0,0.0,0.0,0.0,0.0,0.0,0.0,0.0,0.0,0.0,0.0,0.0,0.0,0.0,0.0,0.0,0.0,0.0,0.0,0.0,0.0,0.0,0.0,0.0,0.0,0.0,0.0,0.0,0.0,0.0,0.0,0.0,0.0,0.0,0.0,0.0,0.0,0.0,0.0,0.0,0.0,0.0,0.0,0.0,0.0,0.0,0.0,0.0,0.0,0.0,0.0,0.0,0.0,0.0,0.0,0.0,0.0,0.0,0.0,0.0,0.0,0.0,0.0,0.0,0.0,0.0,0.0,0.0,0.0,0.0,0.0,0.0,0.0,0.0,0.0,0.0,0.0,0.0,0.0,0.0,0.0,0.0,0.0,0.0,0.0,0.0,0.0,0.7485,0.7407,0.7522,0.7272,0.7095,0.7095,0.7065,0.6937,0.6715,0.6668,0.0,0.0,0.0,0.0,0.0,0.0,0.0,0.0,0.0,0.0,0.0,0.0,0.0,0.0,0.0,0.0,0.0,0.0,0.0,0.0,0.0,0.0,0.0,0.0,0.0,0.0,0.0,0.0,0.0,0.0,0.0,0.0,0.0,0.0,0.0,0.0,0.0,0.0,0.0,0.0,0.0,0.0,0.0,0.0,0.0,0.0,0.0,0.0,0.0,0.0,0.0,0.0,0.0,0.0,0.0,0.0,0.0,0.0,0.0,0.0,0.0,0.0,0.0,0.0,0.0,0.0,0.0,0.0,0.0,0.0,0.0,0.0,0.0,0.0,0.0,0.0,0.0,0.0,0.0,0.0,0.0,0.0,0.0,0.0,0.0,0.0,0.0,0.0,0.0,0.0,0.0,0.0,0.0,0.0,0.0,0.0,0.0,0.0,0.0,0.0,0.0,0.0,0.9155,0.8746,0.8759,0.7753,0.7095,0.7095,0.6974,0.6832,0.6712,0.6566,0.0,0.0,0.0,0.0,0.0,0.0,0.0,0.0,0.0,0.0,0.0,0.0,0.0,0.0,0.0,0.0,0.0,0.0,0.0,0.0,0.0,0.0,0.0,0.0,0.0,0.0,0.0,0.0,0.0,0.0,0.0,0.0,0.0,0.0,0.0,0.0,0.0,0.0,0.0,0.0,0.0,0.0,0.0,0.0,0.0,0.0,0.0,0.0,0.0,0.0,0.0,0.0,0.0,0.0,0.0,0.0,0.0,0.0,0.0,0.0,0.0,0.0,0.0,0.0,0.0,0.0,0.0,0.0,0.0,0.0,0.0,0.0,0.0,0.0,0.0,0.0,0.0,0.0,0.0,0.0,0.0,0.0,0.0,0.0,0.0,0.0,0.0,0.0,0.0,0.0,0.0,0.0,0.0,0.0,0.0,0.0,0.0,0.0,0.0,0.0,0.0,0.0,0.9878,0.9862,0.9952,0.9575,0.9266,0.9266,0.9247,0.907,0.8709,0.0,0.0,0.0,0.0,0.0,0.0,0.0,0.0,0.0,0.0,0.0,0.0,0.0,0.0,0.0,0.0,0.0,0.0,0.0,0.0,0.0,0.0,0.0,0.0,0.0,0.0,0.0,0.0,0.0,0.0,0.0,0.0,0.0,0.0,0.0,0.0,0.0,0.0,0.0,0.0,0.0,0.0,0.0,0.0,0.0,0.0,0.0,0.0,0.0,0.0,0.0,0.0,0.0,0.0,0.0,0.0,0.0,0.0,0.0,0.0,0.0,0.0,0.0,0.0,0.0,0.0,0.0,0.0,0.0,0.0,0.0,0.0,0.0,0.0,0.0,0.0,0.0,0.0,0.0,0.0,0.0,0.0,0.0,0.0,0.0,0.0,0.0,0.0,0.0,0.0,0.0,0.0,0.0,0.0,0.0,0.0,0.0,0.0,0.0,0.0,0.0,0.0,1.1015,1.0988,1.1027,1.115,1.0826,1.0611,1.0611,1.0545,1.0343,0.9923,0.0,0.0,0.0,0.0,0.0,0.0,0.0,0.0,0.0,0.0,0.0,0.0,0.0,0.0,0.0,0.0,0.0,0.0,0.0,0.0,0.0,0.0,0.0,0.0,0.0,0.0,0.0,0.0,0.0,0.0,0.0,0.0,0.0,0.0,0.0,0.0,0.0,0.0,0.0,0.0,0.0,0.0,0.0,0.0,0.0,0.0,0.0,0.0,0.0,0.0,0.0,0.0,0.0,0.0,0.0,0.0,0.0,0.0,0.0,0.0,0.0,0.0,0.0,0.0,0.0,0.0,0.0,0.0,0.0,0.0,0.0,0.0,0.0,0.0,0.0,0.0,0.0,0.0,0.0,0.0,0.0,0.0,0.0,0.0,0.0,0.0,0.0,0.0,0.0,0.0,0.0,0.0,0.0,0.0,0.0,0.0,0.0,0.0,0.0,0.0,0.0,0.0,1.3213,1.2692,1.2328,1.2328,1.1295,1.0654,1.0654,1.053,1.03,0.0,0.0,0.0,0.0,0.0,0.0,0.0,0.0,0.0,0.0,0.0,0.0,0.0,0.0,0.0,0.0,0.0,0.0,0.0,0.0,0.0,0.0,0.0,0.0,0.0,0.0,0.0,0.0,0.0,0.0,0.0,0.0,0.0,0.0,0.0,0.0,0.0,0.0,0.0,0.0,0.0,0.0,0.0,0.0,0.0,0.0,0.0,0.0,0.0,0.0,0.0,0.0,0.0,0.0,0.0,0.0,0.0,0.0,0.0,0.0,0.0,0.0,0.0,0.0,0.0,0.0,0.0,0.0,0.0,0.0,0.0,0.0,0.0,0.0,0.0,0.0,0.0,0.0,0.0,0.0,0.0,0.0,0.0,0.0,0.0,0.0,0.0,0.0,0.0,0.0,0.0,0.0,0.0,0.0,0.0,0.0,0.0,0.0,0.0,0.0,0.0,0.0,0.0,1.318,1.342,1.3561,1.3561,1.3258,1.3082,1.3082,1.2827,1.2466,1.1948,0.0,0.0,0.0,0.0,0.0,0.0,0.0,0.0,0.0,0.0,0.0,0.0,0.0,0.0,0.0,0.0,0.0,0.0,0.0,0.0,0.0,0.0,0.0,0.0,0.0,0.0,0.0,0.0,0.0,0.0,0.0,0.0,0.0,0.0,0.0,0.0,0.0,0.0,0.0,0.0,0.0,0.0,0.0,0.0,0.0,0.0,0.0,0.0,0.0,0.0,0.0,0.0,0.0,0.0,0.0,0.0,0.0,0.0,0.0,0.0,0.0,0.0,0.0,0.0,0.0,0.0,0.0,0.0,0.0,0.0,0.0,0.0,0.0,0.0,0.0,0.0,0.0,0.0,0.0,0.0,0.0,0.0,0.0,0.0,0.0,0.0,0.0,0.0,0.0,0.0,0.0,0.0,0.0,0.0,0.0,0.0,0.0,0.0,0.0,0.0,0.0,0.0,1.3853,1.4756,1.5394,1.5394,1.5394,1.5394,1.5394,1.517,1.4816,1.4196,0.0,0.0,0.0,0.0,0.0,0.0,0.0,0.0,0.0,0.0,0.0,0.0,0.0,0.0,0.0,0.0,0.0,0.0,0.0,0.0,0.0,0.0,0.0,0.0,0.0,0.0,0.0,0.0,0.0,0.0,0.0,0.0,0.0,0.0,0.0,0.0,0.0,0.0,0.0,0.0,0.0,0.0,0.0,0.0,0.0,0.0,0.0,0.0,0.0,0.0,0.0,0.0,0.0,0.0,0.0,0.0,0.0,0.0,0.0,0.0,0.0,0.0,0.0,0.0,0.0,0.0,0.0,0.0,0.0,0.0,0.0,0.0,0.0,0.0,0.0,0.0,0.0,0.0,0.0,0.0,0.0,0.0,0.0,0.0,0.0,0.0,0.0,0.0,0.0,0.0,0.0,0.0,0.0,0.0,0.0,0.0,0.0,0.0,0.0,0.0,0.0,0.0,1.4973,1.6301,1.726,1.7293,1.7302,1.7302,1.7302,1.7269,1.6971,1.622,0.0,0.0,0.0,0.0,0.0,0.0,0.0,0.0,0.0,0.0,0.0,0.0,0.0,0.0,0.0,0.0,0.0,0.0,0.0,0.0,0.0,0.0,0.0,0.0,0.0,0.0,0.0,0.0,0.0,0.0,0.0,0.0,0.0,0.0,0.0,0.0,0.0,0.0,0.0,0.0,0.0,0.0,0.0,0.0,0.0,0.0,0.0,0.0,0.0,0.0,0.0,0.0,0.0,0.0,0.0,0.0,0.0,0.0,0.0,0.0,2.1292,2.0195,0.0,0.0,0.0,0.0,0.0,0.0,0.0,0.0,0.0,0.0,0.0,0.0,0.0,0.0,0.0,0.0,0.0,0.0,0.0,0.0,0.0,0.0,0.0,0.0,0.0,0.0,0.0,0.0,0.0,0.0,0.0,0.0,0.0,0.0,0.0,0.0,0.0,0.0,0.0,0.0,1.5843,1.646,1.6964,1.7269,1.7302,1.7302,1.7302,1.7101,1.6652,1.5922,1.5275,0.0,0.0,0.0,0.0,0.0,0.0,0.0,0.0,0.0,0.0,0.0,0.0,0.0,0.0,0.0,0.0,0.0,0.0,0.0,0.0,0.0,0.0,0.0,0.0,0.0,0.0,0.0,0.0,0.0,0.0,0.0,0.0,0.0,0.0,0.0,0.0,0.0,0.0,0.0,0.0,0.0,0.0,0.0,0.0,0.0,0.0,0.0,0.0,0.0,0.0,0.0,0.0,0.0,0.0,0.0,0.0,0.0,0.0,0.0,2.3734,2.2853,0.0,0.0,0.0,0.0,0.0,0.0,0.0,0.0,0.0,0.0,0.0,0.0,0.0,0.0,0.0,0.0,0.0,0.0,0.0,0.0,0.0,0.0,0.0,0.0,0.0,0.0,0.0,0.0,0.0,0.0,0.0,0.0,0.0,0.0,0.0,0.0,0.0,0.0,0.0,0.0,1.6629,1.7437,1.8103,1.8497,1.8542,1.8623,1.885,1.8749,1.8328,1.7533,1.6918,0.0,0.0,0.0,0.0,0.0,0.0,0.0,0.0,0.0,0.0,0.0,0.0,0.0,0.0,0.0,0.0,0.0,0.0,0.0,0.0,0.0,0.0,0.0,0.0,0.0,0.0,0.0,0.0,0.0,0.0,0.0,0.0,0.0,0.0,0.0,0.0,0.0,0.0,0.0,0.0,0.0,0.0,0.0,0.0,0.0,0.0,0.0,0.0,0.0,0.0,0.0,0.0,0.0,2.5853,2.6016,2.6016,2.6016,2.6016,2.6016,2.6016,2.5401,2.4388,2.372,0.0,0.0,0.0,0.0,0.0,0.0,0.0,0.0,0.0,0.0,0.0,0.0,0.0,0.0,0.0,0.0,0.0,0.0,0.0,0.0,0.0,0.0,2.3432,2.3041,2.3259,2.3282,2.2339,0.0,0.0,0.0,0.0,0.0,0.0,0.0,0.0,0.0,0.0,0.0,1.7447,1.8469,1.9336,1.9756,1.9805,1.998,2.0458,2.0488,2.0261,1.969,1.912,1.8388,0.0,0.0,0.0,0.0,0.0,0.0,0.0,0.0,0.0,0.0,0.0,0.0,0.0,0.0,0.0,0.0,0.0,0.0,0.0,0.0,0.0,0.0,0.0,0.0,0.0,0.0,0.0,0.0,0.0,0.0,0.0,0.0,2.3884,2.3534,0.0,0.0,0.0,0.0,0.0,0.0,0.0,0.0,0.0,0.0,0.0,0.0,0.0,2.507,2.507,2.6504,2.7189,2.7201,2.856,2.9206,2.9206,2.9206,2.9206,2.9206,2.9206,0.0,2.5104,2.5323,0.0,0.0,0.0,0.0,0.0,0.0,0.0,0.0,0.0,0.0,0.0,0.0,0.0,0.0,0.0,0.0,0.0,0.0,0.0,0.0,0.0,0.0,2.6005,2.5965,2.5968,2.5844,2.5198,2.355,2.1846,2.0746,2.0557,2.0135,0.0,0.0,0.0,0.0,0.0,0.0,1.8363,1.8576,1.8851,1.9326,1.9375,1.9541,1.9961,2.0,2.0317,2.1063,2.0253,1.9887,2.0242,1.9363,0.0,0.0,0.0,0.0,0.0,0.0,0.0,0.0,0.0,0.0,0.0,0.0,0.0,0.0,0.0,0.0,0.0,0.0,0.0,0.0,0.0,0.0,0.0,0.0,0.0,0.0,0.0,0.0,0.0,2.5288,2.5793,2.5265,2.5673,2.5793,0.0,0.0,0.0,0.0,0.0,0.0,0.0,0.0,0.0,2.6428,2.6994,2.727,2.727,2.8287,2.8801,2.8813,2.9473,2.9792,2.9792,2.9792,2.9792,2.9792,2.9792,2.9028,2.7726,2.7046,2.6294,2.5533,0.0,0.0,0.0,0.0,2.5059,2.4936,2.602,2.6194,2.5888,2.5637,0.0,0.0,0.0,0.0,0.0,0.0,0.0,2.6122,2.6122,2.6298,2.6499,2.6499,2.6499,2.6424,2.6172,2.532,2.4176,2.2632,2.2323,2.1855,2.0401,1.9703,0.0,0.0,0.0,1.9241,1.9674,1.9727,1.9906,2.0326,2.0379,2.0534,2.0997,2.1039,2.1243,2.1705,2.1053,2.0665,2.0784,2.0042,1.9422,0.0,0.0,0.0,0.0,0.0,0.0,0.0,0.0,0.0,0.0,0.0,0.0,0.0,0.0,0.0,0.0,0.0,0.0,0.0,0.0,0.0,0.0,0.0,0.0,0.0,0.0,0.0,0.0,2.6606,2.7231,2.6575,2.7102,2.7268,0.0,0.0,0.0,0.0,0.0,0.0,2.8048,2.8235,2.831,2.831,2.8825,2.9113,2.9113,2.9578,2.9792,2.9792,2.9792,2.9792,2.9792,2.9792,2.9792,2.9792,2.9792,2.9934,3.0063,2.8664,2.7728,2.7119,2.6435,2.5776,2.5396,2.6571,2.6747,2.6542,2.7691,2.8014,2.7783,2.7376,2.6875,2.6368,2.5826,0.0,0.0,0.0,0.0,2.7129,2.7129,2.6973,2.6816,2.6816,2.6658,2.6499,2.6499,2.6499,2.599,2.4195,2.3812,2.3332,2.1799,2.0905,0.0,2.0566,2.0297,2.0207,2.0546,2.059,2.0725,2.1018,2.1062,2.1219,2.1687,2.172,2.1912,2.2309,2.1811,2.1544,2.1617,2.1032,2.051,2.007,0.0,0.0,0.0,0.0,0.0,0.0,0.0,0.0,0.0,0.0,0.0,0.0,0.0,0.0,0.0,0.0,0.0,0.0,0.0,0.0,0.0,0.0,0.0,0.0,0.0,0.0,0.0,0.0,0.0,2.6625,2.7406,0.0,0.0,0.0,0.0,2.8021,2.8023,2.8035,2.8109,2.8562,2.885,2.885,2.9453,2.9741,2.9741,2.9779,2.9792,2.9792,2.9792,2.9792,2.9792,2.9792,2.9792,2.9792,2.9792,3.0317,3.1031,3.0063,2.9326,2.8762,2.8725,2.8388,2.7913,2.8011,2.8011,2.7986,2.806,2.8662,2.9377,2.928,2.9067,2.8742,2.8198,2.8046,0.0,0.0,2.847,2.8876,2.8876,2.8279,2.7637,2.7637,2.7074,2.6499,2.6499,2.6499,2.6138,2.4968,2.4723,2.4137,2.2197,0.0,2.153,2.0719,2.0568,2.0557,2.059,2.059,2.0602,2.0624,2.0624,2.0782,2.1197,2.1241,2.181,2.3142,2.2728,2.2863,2.3785,2.3267,2.2675,2.2156,2.1675,0.0,0.0,0.0,0.0,0.0,0.0,0.0,0.0,0.0,0.0,0.0,0.0,0.0,0.0,0.0,0.0,0.0,0.0,0.0,0.0,0.0,0.0,0.0,0.0,0.0,0.0,0.0,0.0,2.7153,2.8854,0.0,2.8811,2.9321,2.9893,3.0449,3.09,3.1276,3.1625,3.1817,3.1924,3.1924,3.1703,3.1586,3.1586,3.1586,3.1586,3.1586,3.1586,3.1586,3.1586,3.1586,3.1586,3.1586,3.1586,3.1792,3.2069,3.1719,3.1489,3.1288,3.1288,3.094,3.0529,3.0882,3.0775,3.0542,3.0882,3.0697,3.0201,2.9407,2.909,2.8961,2.8771,2.8702,2.8702,2.8702,2.8837,2.9002,2.9002,2.878,2.8524,2.8524,2.833,2.7977,2.7571,2.7458,2.7112,2.5921,2.5195,2.4486,2.343,2.2936,2.2567,2.2249,2.2206,2.2206,2.2206,2.2206,2.2206,2.2206,2.2206,2.2259,2.2409,2.2421,2.2788,2.3698,2.3218,2.3207,2.3979,2.3409,2.3007,2.2819,2.2747,2.2071,0.0,0.0,0.0,0.0,0.0,0.0,0.0,0.0,0.0,0.0,0.0,0.0,0.0,0.0,0.0,0.0,0.0,0.0,0.0,0.0,0.0,0.0,0.0,0.0,0.0,2.8937,2.9548,2.8669,3.025,3.1115,3.0357,3.0863,3.1584,3.2353,3.281,3.3212,3.3586,3.3614,3.3481,3.3273,3.285,3.2593,3.2593,3.2593,3.2593,3.2593,3.2593,3.2593,3.2593,3.2593,3.2593,3.2593,3.2593,3.2784,3.3066,3.3066,3.3276,3.3498,3.2855,3.2394,3.2124,3.2455,3.238,3.2145,3.2598,3.196,3.083,3.0332,3.0029,2.9858,2.9858,2.9858,2.9858,2.9858,2.9858,2.9858,2.9858,2.9628,2.9442,2.9442,2.9039,2.8557,2.8095,2.7803,2.7363,2.6402,2.5497,2.4721,2.419,2.3528,2.3108,2.3108,2.3108,2.3108,2.3108,2.3108,2.3108,2.3108,2.3108,2.3108,2.3108,2.3108,2.3271,2.3678,2.3321,2.3392,2.4075,2.346,2.3335,2.3872,2.3826,2.299,2.1433,0.0,0.0,0.0,0.0,0.0,0.0,0.0,0.0,0.0,0.0,0.0,0.0,0.0,0.0,0.0,0.0,0.0,0.0,0.0,0.0,0.0,0.0,0.0,3.0025,3.1065,3.1639,3.1096,3.1548,3.1889,3.1875,3.1909,3.2395,3.3562,3.3673,3.3687,3.3687,3.3687,3.3373,3.2755,3.2713,3.2713,3.2713,3.2713,3.2713,3.2713,3.2713,3.2713,3.2713,3.2713,3.2713,3.2713,3.2713,3.3206,3.4061,3.3998,3.4581,3.5282,3.3429,3.2713,3.2713,3.2686,3.2672,3.2667,3.2963,3.2224,3.1298,3.2168,3.2019,3.1511,3.1511,3.1511,3.1511,3.1511,3.1511,3.1511,3.1511,3.0925,3.0329,3.03,2.9179,2.806,2.8019,2.7506,2.69,2.635,2.5643,2.4968,2.4443,2.3679,2.3155,2.3155,2.3155,0.0,2.3155,2.3155,2.3155,2.3125,2.3138,2.3138,2.3138,2.3138,2.3138,2.3155,2.3155,2.3501,2.4292,2.3603,2.3901,2.5398,2.483,2.3995,2.2972,0.0,0.0,0.0,0.0,0.0,0.0,0.0,0.0,0.0,0.0,0.0,0.0,0.0,0.0,0.0,0.0,0.0,0.0,0.0,0.0,0.0,3.1568,3.1943,3.0884,3.1688,3.2159,3.1619,3.303,3.3858,3.3423,3.4066,3.4622,3.494,3.5429,3.5693,3.5693,3.5693,3.5619,3.5429,3.4955,3.4706,3.4706,3.4706,3.4706,3.4706,3.4706,3.4706,3.4706,3.4706,3.4706,3.4706,3.4706,3.4839,3.5055,3.4552,3.4535,3.4769,3.4728,3.4706,3.4647,3.4149,3.368,3.3182,3.2784,3.2433,3.2079,3.187,3.1645,3.1511,3.1511,3.1511,3.1511,3.1511,3.1511,3.1511,3.1511,3.1351,3.1057,3.0568,3.013,2.9562,2.8627,2.8291,2.7969,2.7337,2.6607,2.5896,2.5203,2.4922,2.4781,2.4781,2.4781,2.4781,2.4781,2.4781,2.4553,2.4031,2.3972,2.3972,2.3972,2.3972,2.4192,2.4724,2.4781,2.4866,2.5091,2.4894,2.5217,2.6176,2.5072,2.4617,0.0,0.0,0.0,0.0,0.0,0.0,0.0,0.0,0.0,0.0,0.0,0.0,0.0,0.0,0.0,0.0,0.0,0.0,0.0,0.0,0.0,0.0,3.3035,3.3536,3.2976,3.3412,3.3693,3.3403,3.4409,3.5015,3.4654,3.5166,3.5624,3.5893,3.6267,3.6492,3.6492,3.6492,3.6357,3.6088,3.5699,3.5504,3.5504,3.5504,3.5504,3.5504,3.5504,3.5504,3.5504,3.5504,3.5355,3.507,3.507,3.4921,3.4637,3.4233,3.4099,3.4098,0.0,0.0,0.0,0.0,3.3649,3.3036,3.2647,3.2303,3.2004,3.163,3.1511,3.1511,3.1511,3.1511,3.1511,3.1511,3.1511,3.1511,3.1511,3.1286,3.0972,3.0597,3.0088,2.9505,2.8757,2.8368,2.8079,2.7675,2.7255,0.0,2.6402,2.581,2.5398,2.5398,2.5398,2.5398,2.5398,2.5398,2.5231,2.4823,2.4766,2.4766,2.4766,2.4766,0.0,0.0,0.0,2.5398,2.5398,2.6,0.0,0.0,0.0,0.0,0.0,2.5682,0.0,0.0,2.3833,2.367,0.0,0.0,0.0,0.0,0.0,0.0,0.0,0.0,0.0,0.0,0.0,0.0,0.0,0.0,0.0,0.0,3.4158,3.4771,3.531,3.5459,3.5504,3.5504,3.5504,3.5504,3.5504,3.5504,3.5744,3.6327,3.6372,3.6372,3.6372,3.6372,0.0,0.0,0.0,3.5504,3.5504,3.5504,3.5504,3.5504,3.5429,3.5385,3.5385,3.531,3.4951,3.4399,3.4399,3.4038,3.3484,3.341,3.3335,3.329,3.344,3.344,3.338,3.338,3.2961,3.2378,3.2378,0.0,0.0,3.1511,3.1511,3.1511,3.1511,3.1511,3.1511,3.1511,3.1511,3.1481,3.1406,3.0943,3.0462,3.0328,2.9415,2.8577,2.8502,2.8034,2.76,2.76,2.76,2.76,2.76,2.6508,2.5646,2.5646,2.5646,2.5646,2.5646,2.5646,2.5618,2.5536,2.5508,0.0,2.5508,2.5508,2.5563,2.5646,2.5646,2.5646,2.5646,2.689,2.728,2.6642,2.728,2.76,2.76,2.76,2.73,2.6677,2.5397,2.5098,0.0,0.0,0.0,0.0,0.0,0.0,0.0,0.0,0.0,0.0,0.0,0.0,0.0,0.0,0.0,3.4189,3.4861,3.516,3.4741,3.516,3.5504,3.5504,3.5504,3.5504,3.5504,3.5504,3.5549,3.5684,3.5684,3.5684,3.5684,3.5684,3.5639,3.5504,3.5504,3.5504,3.5504,3.5504,3.5504,3.5489,3.4936,0.0,3.4698,3.4128,3.3814,3.3679,3.3679,3.3619,3.3455,3.2916,3.2363,3.1989,3.308,3.317,3.2706,3.2706,3.2258,3.169,3.169,3.1615,3.1511,3.1511,3.1511,3.1511,3.1511,3.1511,0.0,3.1511,3.1511,3.1376,3.0823,3.0612,3.0238,2.922,2.8786,2.8442,2.7914,2.769,2.76,2.76,2.76,2.76,2.76,2.7357,2.7188,2.7188,2.7188,2.7188,2.7188,2.7188,2.6956,2.6336,2.6283,2.6283,2.6283,2.6283,2.6522,2.7137,2.7188,2.7188,2.7188,2.7458,2.7534,2.7382,2.7524,2.76,2.76,2.76,2.7525,2.739,2.6572,2.5989,0.0,0.0,0.0,0.0,0.0,0.0,0.0,0.0,0.0,0.0,0.0,3.1824,3.2826,0.0,3.4203,3.4876,3.528,3.5265,3.4593,3.4771,3.4996,3.4996,3.5295,3.5504,3.5504,3.5504,3.5504,3.5504,3.5504,3.5504,3.5504,3.5504,3.5504,3.5504,3.5504,3.5504,3.5504,3.516,3.4996,3.4981,3.4307,3.3978,3.3978,3.3649,3.332,3.3006,3.3006,3.2826,3.2452,3.2123,3.1795,3.157,3.2228,3.2288,3.1989,3.1989,3.1795,3.1511,3.1511,3.1511,3.1511,3.1511,3.1511,3.1511,3.1511,3.1511,3.1511,3.1511,3.1511,3.1346,3.0687,3.0283,2.9804,2.8831,2.8338,2.8019,2.7675,2.76,2.76,2.76,2.76,2.76,2.76,2.76,2.76,2.76,2.76,2.76,2.76,2.76,2.7458,2.71,2.7034,2.7034,2.7034,2.7034,2.7203,2.7575,2.76,2.76,2.76,2.76,2.76,2.76,2.76,2.76,2.76,2.791,2.8042,2.8052,2.8013,2.7485,0.0,0.0,0.0,0.0,0.0,0.0,0.0,3.0989,3.1523,3.2194,3.2862,3.3621,3.4528,3.4954,3.5258,3.5642,3.5701,3.5492,3.4798,3.4598,3.4459,3.4339,3.4891,3.5355,3.5489,3.5504,3.5504,3.5504,3.5504,3.5504,3.5504,3.5504,3.5504,3.5504,3.537,3.531,3.531,3.4622,3.4324,3.4309,3.3619,3.3305,3.3305,3.317,3.2826,3.2317,3.2317,3.1989,3.1511,3.1511,3.1511,3.1511,3.1511,3.1511,3.1511,3.1511,3.1511,3.1511,3.1511,3.1511,3.1511,3.1511,3.1511,3.1511,3.1511,3.1511,3.1481,3.1346,3.1316,3.1122,3.0342,2.9759,2.922,2.8562,2.8004,2.76,2.76,2.76,2.76,2.76,2.76,2.76,2.76,2.76,2.7555,2.742,2.7405,2.736,2.7225,2.721,2.727,2.739,2.7405,2.7465,2.7585,2.76,2.76,2.76,2.76,2.7635,2.776,2.776,2.7835,2.7944,2.7944,2.7944,2.7944,2.8439,2.8662,2.8701,2.9157,2.888,3.0752,2.9861,2.9616,3.0863,3.1277,3.1859,0.0,3.4218,3.451,3.5186,3.586,3.6147,3.5591,3.6536,3.7214,3.6569,3.6477,3.623,3.5581,3.4926,3.4294,3.3679,3.4188,3.4863,3.5444,3.5504,3.5504,3.5504,3.5504,3.5504,3.5504,3.5504,3.5504,3.5504,3.4906,3.4623,3.4623,3.3933,3.3604,3.3589,3.2946,3.2617,3.2602,3.1989,3.169,3.1615,3.1615,3.157,3.1511,3.1511,3.1511,3.1511,3.1511,3.1511,3.1511,3.1511,3.1511,3.1511,3.1511,3.1511,3.1511,3.1511,3.1511,3.1511,3.1511,3.1511,3.1376,3.0791,3.0612,3.0342,2.9131,2.8757,2.8532,2.7869,2.7645,2.76,2.76,2.76,2.76,2.76,2.76,2.76,2.76,2.76,2.7405,2.6806,2.6692,2.6497,2.5899,2.5824,2.6048,2.6632,2.6692,2.6956,2.754,2.76,2.76,2.76,2.76,2.7835,2.8367,2.8391,2.8638,2.9203,2.9203,2.9203,2.9203,2.9271,2.9293,2.9293,2.9361,2.9339,3.0718,3.0807,3.135,3.1974,3.2768,3.3739,3.5038,3.5658,3.6027,3.6332,3.6918,3.7272,3.6925,3.7367,3.769,3.7368,3.7308,3.6782,3.5278,3.5107,3.4729,3.3621,3.4099,3.4623,3.4876,3.5265,3.5504,3.5504,3.5504,3.5504,3.5504,3.513,3.4906,3.4906,3.4262,3.3934,3.3934,3.3245,3.2916,3.2916,3.2228,3.1914,3.1914,3.163,3.1511,3.1511,3.1511,3.1511,3.1511,3.1511,3.1511,3.1511,3.1511,3.1511,3.1511,3.1511,3.1511,3.1511,3.1511,3.1511,3.1511,3.1511,3.1511,3.1511,3.1511,3.1227,3.0866,3.0582,3.0253,2.9759,2.8846,2.8607,2.8427,2.7764,2.76,2.76,2.76,2.76,2.76,2.76,2.76,2.76,2.76,2.76,2.7375,2.6692,2.6587,2.6497,2.6213,2.6183,2.6437,2.7121,2.718,2.73,2.757,2.7919,2.8116,2.8116,2.8448,2.8764,2.8996,2.9019,2.9134,2.9406,2.9406,2.9406,2.9406,2.9761,2.9913,2.9935,3.0272,3.0456,3.1294,3.1813,3.2593,3.325,3.4365,3.5522,3.647,3.721,3.7666,3.7443,3.7791,3.8054,3.783,3.797,3.8119,3.8117,3.7921,3.7355,3.6052,3.5701,3.5213,3.4213,3.4515,3.4724,3.4503,3.51,3.5504,3.5504,3.5504,3.5429,3.5235,3.4741,3.4429,3.4234,3.3559,3.3215,3.3215,3.2572,3.2213,3.2213,3.1735,3.1511,3.1511,3.1511,3.1511,3.1511,3.1511,3.1611,3.1781,3.1556,3.1578,3.1759,3.1548,3.1468,3.1509,3.1691,3.1658,3.1511,3.1511,3.1511,3.1466,3.1286,3.1212,3.121,3.1214,3.0905,3.0507,3.0472,3.0171,2.9668,2.8982,2.8814,2.8702,2.8223,2.81,2.81,2.81,2.81,2.81,2.81,2.81,2.81,2.81,2.81,2.7871,2.7199,2.7116,2.6914,2.6381,2.6636,2.71,2.7756,2.7994,2.81,2.81,2.8511,2.8756,2.8756,2.9157,2.9473,2.9651,2.9651,2.9717,2.9892,2.9892,2.9892,2.9892,3.0351,3.0539,3.0576,3.0995,3.119,3.3128,3.2823,3.2823,3.4964,3.6134,3.7114,3.8567,3.9462,3.9783,3.9074,3.8956,3.8715,3.7939,3.8429,3.8933,3.889,3.829,3.8019,3.8679,3.6934,3.5577,3.5532,3.5547,3.5293,3.4566,3.51,3.5504,3.5504,3.5504,3.522,3.4578,3.4518,3.4219,3.3544,3.2886,3.2542,3.2542,3.1869,3.1525,3.1525,3.1511,3.1511,3.1511,3.1511,3.1511,3.1511,3.1511,3.191,3.2513,3.172,3.1821,3.2401,3.1691,3.1394,3.148,3.2212,3.2066,3.1511,3.1511,3.1511,3.1391,3.0746,3.0537,3.0513,3.0534,3.0526,3.0483,3.0418,3.0393,3.0225,2.9546,2.9371,2.9371,2.9339,2.9339,2.9339,2.9339,2.9339,2.9339,2.9339,2.9339,2.9339,2.9339,2.9339,2.9106,2.8452,2.8361,2.7687,2.5868,2.6703,2.7708,2.8317,2.8962,2.9339,2.9339,2.9361,2.9361,2.9361,2.9384,2.9651,3.0251,3.0272,3.0539,3.1131,3.1151,3.1151,3.1151,3.1171,3.1171,3.1171,3.119,3.119,3.273,3.3207,3.4049,3.5278,3.6197,3.7066,3.8041,3.8464,3.8565,3.8328,3.8278,3.8188,3.791,3.8503,3.8982,3.8975,3.9163,3.9086,3.8395,3.8019,3.7428,3.6527,3.6338,3.6179,3.5964,3.5293,3.4848,3.4848,3.4412,3.4068,3.3844,3.341,3.308,3.2841,3.2183,3.1839,3.1839,3.1615,3.1754,3.2259,3.2664,3.2891,3.2875,3.2384,3.2154,3.2123,3.1644,3.1569,3.1767,3.1514,3.1559,3.174,3.1501,3.1402,3.1419,3.1683,3.1643,3.1503,3.1998,3.2154,3.2045,3.1342,3.1107,3.1086,3.1092,3.0796,3.0434,3.0409,3.0064,2.9687,2.947,2.9406,2.9406,2.9406,2.9406,2.9406,2.9406,2.9406,2.9406,2.9406,2.9406,2.9406,2.9406,2.9406,2.9326,2.9108,2.8688,2.8157,2.7542,2.823,2.8853,2.9032,2.9262,2.9406,2.9406,2.9761,2.9995,2.9995,3.0356,3.0679,3.0878,3.0898,3.0995,3.119,3.119,3.119,3.119,3.119,3.119,3.119,3.119,3.119,3.2747,3.3596,3.4742,3.5774,3.6417,3.6998,3.7736,3.7905,3.7838,3.755,3.7499,3.7499,3.7499,3.7889,3.8379,3.8903,3.916,3.9158,3.8803,3.8848,3.8564,3.7653,3.7457,3.7242,3.6757,3.5627,3.4805,3.4501,3.4319,3.4001,3.3546,3.3077,3.2744,3.2546,3.185,3.1511,3.1511,3.1511,3.1717,3.2172,3.2897,3.3061,3.2805,3.2308,3.2116,3.2084,3.1613,3.1526,3.1725,3.1467,3.151,3.1707,3.144,3.1352,3.1377,3.1632,3.1741,3.1782,3.203,3.2116,3.2004,3.1286,3.1047,3.1039,3.1017,3.0723,3.0419,3.0635,3.0397,3.0043,3.0043,3.0043,3.0043,3.0043,3.0043,3.0043,3.0043,3.0043,3.0043,3.0043,3.0043,3.0043,3.0043,3.0043,3.0043,3.0043,2.9693,2.9319,2.9108,2.9448,2.9805,3.0021,3.0043,3.0043,3.0043,3.0393,3.0617,3.0617,3.0995,3.119,3.119,3.119,3.119,3.119,3.119,3.119,3.119,3.119,3.119,3.119,3.119,3.119,3.3271,3.3998,3.4895,3.6372,3.6745,3.6907,3.7618,3.7787,3.7584,3.6897,3.6745,3.6745,3.6745,3.6812,3.732,3.8717,3.837,3.843,3.9893,3.9437,3.8962,3.8962,3.8935,3.8341,3.6906,3.6153,3.5391,3.4576,3.5022,3.4807,3.3506,3.3444,3.3222,3.2656,3.1923,3.1582,3.1611,3.1595,3.1541,3.1466,3.2193,3.2183,3.1502,3.1454,3.1454,3.1438,3.1406,3.1762,3.228,3.1589,3.1674,3.2175,3.1461,3.1236,3.1374,3.2021,3.229,3.2239,3.162,3.1406,3.1326,3.0646,3.0445,3.0431,3.0379,3.0351,3.0477,3.1035,3.119,3.119,3.119,3.119,3.119,3.119,3.119,3.119,3.119,3.119,3.119,3.119,3.119,3.119,3.119,3.119,3.119,3.119,3.119,3.0995,3.0414,3.0351,3.0576,3.1151,3.119,3.119,3.119,3.119,3.119,3.119,3.119,3.119,3.119,3.119,3.119,3.119,3.119,3.119,3.119,3.119,3.119,3.119,3.119,3.119,3.4167,3.4759,3.5397,3.5825,3.591,3.596,3.614,3.6174,3.6124,3.5938,3.591,3.591,3.591,3.684,3.7736,3.8125,3.8924,3.9657,4.0054,3.9927,3.9782,3.9782,3.9246,3.858,3.7678,3.6901,3.5915,3.4686,3.3824,3.3178,3.285,3.2834,3.2986,3.3339,3.268,3.2544,3.305,3.3019,3.2708,3.2141,3.2844,3.3067,3.2867,3.2322,3.2071,3.2038,3.1483,3.1349,3.1493,3.1308,3.1341,3.1464,3.1258,3.1213,3.1244,3.1421,3.1479,3.1489,3.1308,3.16,3.1954,3.1237,3.1003,3.099,3.0986,3.0975,3.0995,3.1151,3.119,3.119,3.119,3.119,3.119,3.119,3.119,3.119,3.119,3.119,3.119,3.119,3.119,3.119,3.119,3.119,3.119,3.119,3.119,3.1151,3.0995,3.0975,3.1035,3.119,3.119,3.119,3.119,3.119,3.119,3.119,3.119,3.119,3.119,3.119,3.119,3.119,3.119,3.119,3.119,3.119,3.119,3.119,3.119,3.119,3.4489,3.5047,3.56,3.56,3.56,3.56,3.56,3.56,3.56,3.56,3.56,3.56,3.56,3.6603,3.7516,3.7855,3.887,3.974,4.0062,4.0096,3.9977,3.9673,3.9218,3.853,3.7527,3.702,3.6146,3.4707,3.4194,3.3804,3.3485,3.3495,3.3659,3.4037,3.3079,3.2572,3.262,3.2907,3.2652,3.1923,3.2588,3.2747,3.2425,3.2002,3.1819,3.1802,3.1376,3.119,3.119,3.119,3.119,3.119,3.119,3.119,3.119,3.119,3.119,3.119,3.119,3.1461,3.1752,3.1326,3.119,3.119,3.119,3.119,3.119,3.119,3.119,3.119,3.119,3.119,3.119,3.119,3.119,3.119,3.119,3.119,3.119,3.119,3.119,3.119,3.119,3.119,3.119,3.119,3.119,3.119,3.119,3.119,3.119,3.119,3.119,3.119,3.119,3.119,3.119,3.119,3.119,3.119,3.119,3.119,3.119,3.119,3.119,3.119,3.119,3.119,3.119,3.119,3.119,3.119,3.4641,3.5115,3.56,3.56,3.5515,3.5481,3.5583,3.5515,3.5481,3.5583,3.56,3.56,3.56,3.6265,3.7049,3.7787,3.8514,3.9242,3.9994,4.0096,3.9842,3.9089,3.8988,3.8413,3.6948,3.6711,3.6057,3.47,3.5027,3.5061,3.446,3.4468,3.4394,3.4296,3.3202,3.2224,3.1382,3.2053,3.2017,3.1297,3.1896,3.1819,3.119,3.119,3.119,3.119,3.119,3.119,3.119,3.119,3.119,3.119,3.119,3.119,3.119,3.119,3.119,3.119,3.119,3.119,3.119,3.119,3.119,3.119,3.119,3.119,3.119,3.119,3.119,3.119,3.119,3.119,3.119,3.119,3.119,3.119,3.119,3.119,3.119,3.119,3.119,3.119,3.119,3.119,3.119,3.119,3.119,3.119,3.119,3.119,3.119,3.119,3.119,3.119,3.119,3.119,3.119,3.119,3.119,3.119,3.119,3.119,3.119,3.119,3.119,3.119,3.119,3.119,3.119,3.119,3.119,3.119,3.5397,3.5498,3.56,3.56,3.5148,3.4844,3.5447,3.5131,3.4861,3.5464,3.56,3.56,3.56,3.6265,3.7049,3.7787,3.8514,3.9242,3.9994,4.0096,3.9842,3.9089,3.8988,3.8413,3.6948,3.6197,3.5459,3.4594,3.4061,3.3757,3.3686,3.3679,3.3416,3.2817,3.3068,3.263,3.134,3.1967,3.1944,3.122,3.1337,3.1309,3.119,3.119,3.119,3.119,3.119,3.119,3.119,3.119,3.119,3.119,3.119,3.119,3.119,3.119,3.119,3.119,3.119,3.119,3.119,3.119,3.119,3.119,3.119,3.119,3.119,3.119,3.119,3.119,3.119,3.119,3.119,3.119,3.119,3.119,3.119,3.119,3.119,3.119,3.119,3.119,3.119,3.119,3.119,3.119,3.119,3.119,3.119,3.119,3.119,3.119,3.119,3.119,3.119,3.119,3.119,3.119,3.119,3.119,3.119,3.119,3.119,3.119,3.119,3.119,3.119,3.119,3.119,3.119,3.119,3.119,3.5498,3.56,3.56,3.56,3.5064,3.459,3.4945,3.4742,3.459,3.4962,3.5329,3.56,3.56,3.6265,3.6931,3.7263,3.7939,3.8684,3.9436,3.9537,3.9242,3.8514,3.843,3.7838,3.6315,3.5487,3.4878,3.4523,3.3829,3.3414,3.3467,3.3462,3.3111,3.2355,3.2652,3.2336,3.1254,3.1557,3.1565,3.119,3.119,3.119,3.119,3.119,3.119,3.119,3.119,3.119,3.119,3.119,3.119,3.119,3.119,3.119,3.119,3.119,3.119,3.119,3.119,3.119,3.119,3.119,3.119,3.119,3.119,3.119,3.119,3.119,3.119,3.119,3.119,3.119,3.119,3.119,3.119,3.119,3.119,3.119,3.119,3.119,3.119,3.119,3.119,3.119,3.119,3.119,3.119,3.119,3.119,3.119,3.119,3.119,3.119,3.119,3.119,3.119,3.119,3.119,3.119,3.119,3.119,3.119,3.119,3.119,3.119,3.119,3.119,3.119,3.119,3.119,3.119,3.119,3.543,3.56,3.56,3.56,3.4928,3.4303,3.4455,3.4252,3.4121,3.4421,3.4962,3.5397,3.5566,3.6129,3.6609,3.6778,3.728,3.7922,3.865,3.8751,3.8481,3.7753,3.7669,3.706,3.5498,3.4709,3.4201,3.4032,3.3355,3.3,3.3169,3.3017,3.2662,3.209,3.2056,3.1802,3.1207,3.119,3.119,3.119,3.119,3.119,3.119,3.119,3.119,3.119,3.119,3.119,3.119,3.119,3.119,3.119,3.119,3.119,3.119,3.119,3.119,3.119,3.119,3.119,3.119,3.119,3.119,3.119,3.119,3.119,3.119,3.119,3.119,3.119,3.119,3.119,3.119,3.119,3.119,3.119,3.119,3.119,3.119,3.119,3.119,3.119,3.119,3.119,3.119,3.119,3.119,3.119,3.119,3.119,3.119,3.119,3.119,3.119,3.119,3.119,3.119,3.119,3.119,3.119,3.119,3.119,3.1249,3.1332,3.1332,3.137,3.1485,3.1485,3.1485,3.1485,3.137,3.1389,3.5583,3.56,3.56,3.56,3.4535,3.3677,3.4336,3.3461,3.2886,3.4218,3.4539,3.481,3.5481,3.565,3.596,3.6694,0.0,3.7144,3.7905,3.8007,3.7736,3.6998,3.6897,3.6304,3.4742,3.3931,3.322,3.2547,3.1816,3.1681,3.2361,3.1765,3.136,3.1292,3.1292,3.1258,3.119,3.119,3.119,3.119,3.119,3.119,3.119,3.119,3.119,3.119,3.119,3.119,3.119,3.119,3.119,3.119,3.119,3.119,3.119,3.119,3.119,3.119,3.119,3.119,3.119,3.119,3.119,3.119,3.119,3.119,3.119,3.119,3.119,3.119,3.119,3.119,3.119,3.119,3.119,3.119,3.119,3.119,3.119,3.119,3.119,3.119,3.119,3.119,3.119,3.119,3.119,3.119,3.119,3.119,3.119,3.119,3.119,3.119,3.119,3.119,3.119,3.119,3.119,3.119,3.119,3.119,3.137,3.1734,3.1734,3.195,3.2384,3.2384,3.2384,3.2367,3.195,3.1968,3.4827,3.5267,3.56,3.56,3.4484,3.3491,3.3778,3.3055,3.2598,3.3626,3.4184,3.4726,3.5447,3.525,3.5199,0.0,0.0,0.0,3.706,3.7229,3.7134,3.6829,3.6795,3.6203,3.4641,3.3829,3.2916,3.1735,3.136,3.1326,3.1633,3.136,3.119,3.119,3.119,3.119,3.119,3.119,3.119,3.119,3.119,3.119,3.119,3.119,3.119,3.119,3.119,3.119,3.119,3.119,3.119,3.119,3.119,3.119,3.119,3.119,3.119,3.119,3.119,3.119,3.119,3.119,3.119,3.119,3.119,3.119,3.119,3.119,3.119,3.119,3.119,3.119,3.119,3.119,3.119,3.119,3.119,3.119,3.119,3.119,3.119,3.119,3.119,3.119,3.119,3.119,3.119,3.119,3.119,3.119,3.119,3.119,3.119,3.119,3.119,3.119,3.119,3.119,3.119,3.119,3.119,3.143,3.164,3.1807,3.2092,3.2298,3.2501,3.2501,3.2501,3.2501,3.2316,3.2333,3.4353,3.5047,3.56,3.56,3.4484,3.3406,3.3406,3.2645,3.2259,3.3203,3.3812,3.4404,3.5148,3.503,3.4928,0.0,0.0,3.5199,3.6282,3.6434,3.6434,3.6434,3.6434,3.5842,3.432,3.3305,3.2324,3.1275,3.119,3.119,3.119,3.119,3.119,3.119,3.119,3.119,3.119,3.097,3.097,3.119,3.097,3.0987,3.119,3.119,3.119,3.119,3.119,3.119,3.119,3.119,3.119,3.119,3.119,3.119,3.119,3.119,3.119,3.119,3.119,3.119,3.119,3.119,3.119,3.119,3.119,3.119,3.119,3.119,3.119,3.119,3.119,3.119,3.119,3.119,3.119,3.119,3.119,3.119,3.119,3.119,3.119,3.119,3.119,3.119,3.119,3.119,3.119,3.119,3.119,3.119,3.119,3.119,3.119,3.119,3.119,3.119,3.119,3.119,3.119,3.119,3.119,3.1584,3.1879,3.2004,3.2466,3.2761,3.2887,3.2887,3.2887,3.2887,3.2761,3.2962,3.4489,3.5047,3.56,3.56,3.4484,3.3406,3.3406,3.2256,3.163,3.3102,3.3406,3.3643,3.437,3.5115,3.5346,0.0,0.0,0.0,3.56,3.5616,3.5616,3.5616,3.5616,3.5025,3.3558,3.2087,3.1207,3.119,3.119,3.119,3.119,3.119,3.119,3.119,3.119,3.119,3.119,3.048,3.048,3.119,3.0463,3.0497,3.119,3.119,3.119,3.119,3.119,3.119,3.119,3.119,3.119,3.119,3.119,3.119,3.119,3.119,3.119,3.119,3.119,3.119,3.119,3.119,3.119,3.119,3.119,3.119,3.119,3.119,3.119,3.119,3.119,3.119,3.119,3.119,3.119,3.119,3.119,3.119,3.119,3.119,3.119,3.119,3.119,3.119,3.119,3.119,3.119,3.119,3.119,3.119,3.119,3.119,3.119,3.119,3.119,3.119,3.119,3.119,3.119,3.119,3.119,3.1584,3.2022,3.2484,3.2952,3.3375,3.3793,3.3793,3.3793,3.3793,3.3375,3.4047,3.3004,3.3525,3.4117,3.4117,3.3372,3.2666,3.2666,3.1901,3.1613,3.3102,3.3406,3.3795,3.5008,3.4624,3.4349,3.5126,0.0,0.0,3.5464,3.56,3.56,3.56,3.4704,3.3711,3.273,3.1765,3.119,3.119,3.0734,3.0446,3.0446,2.9973,2.9922,3.0429,3.0446,3.0209,2.9704,2.9448,2.9484,2.9687,2.9467,2.9484,2.9721,3.0209,3.0446,3.048,3.097,3.119,3.119,3.119,3.119,3.119,3.119,3.119,3.119,3.119,3.119,3.119,3.119,3.119,3.119,3.119,3.119,3.119,3.119,3.119,3.119,3.119,3.119,3.119,3.119,3.119,3.119,3.119,3.119,3.119,3.119,3.119,3.119,3.119,3.119,3.119,3.119,3.119,3.119,3.119,3.119,3.119,3.119,3.119,3.119,3.119,3.1449,3.1507,3.123,3.119,3.119,3.119,3.1468,3.1621,3.1621,3.2349,3.2825,3.2983,3.339,3.368,3.3807,3.3807,3.4082,3.4619,3.4489,3.5323,3.2148,3.2831,3.3406,3.3406,3.2848,3.2293,3.2293,3.1735,3.1613,3.3102,3.3406,3.3672,3.4585,3.4252,3.3931,3.4303,3.3829,3.3829,3.503,3.5177,3.5177,3.5177,3.388,3.2797,3.2344,3.1613,3.119,3.119,3.0531,3.0108,3.0108,2.9416,2.9077,2.9227,2.9533,2.9448,2.8993,2.8687,2.8687,2.8993,2.8687,2.8722,2.9027,2.9465,2.9837,3.0142,3.0581,3.0937,0.0,3.119,3.119,3.119,3.119,3.119,3.119,3.119,3.119,3.119,3.119,3.119,3.119,3.119,3.119,3.119,3.119,3.119,3.119,3.119,3.119,3.119,3.119,3.119,3.119,3.119,3.119,3.119,3.119,3.119,3.119,3.119,3.119,3.119,3.119,3.119,3.119,3.119,3.1332,3.143,3.143,3.1582,3.1694,3.1694,3.1897,3.195,3.1695,3.1694,3.1694,3.1694,3.1932,3.2057,3.2057,3.2793,3.3199,3.3199,3.3611,3.3807,3.3807,3.41,3.4509,3.5023,3.5646,3.6505,0.0,3.2777,3.3322,3.3271,3.2763,3.2293,3.2226,3.1701,0.0,3.3102,3.3372,3.3372,3.3541,3.3981,3.3935,3.2666,3.2983,3.3643,3.432,3.4421,3.4387,3.4336,3.3139,3.2276,3.2226,3.1616,3.1173,3.1123,3.0446,3.0006,2.9937,2.9247,2.8484,2.7756,2.845,2.884,2.884,2.8112,2.8112,2.8824,2.8095,2.8094,2.884,2.8891,2.9279,2.9937,3.0057,3.0497,3.1123,3.1173,3.119,3.119,3.114,3.114,3.119,3.114,3.114,3.119,3.119,3.1157,3.1123,3.1123,3.1157,3.119,3.119,3.119,3.119,3.119,3.119,3.119,3.119,3.119,3.119,3.119,3.119,3.119,3.119,3.119,3.119,3.119,3.119,3.119,3.119,3.123,3.1232,3.1232,3.1584,3.1861,3.1861,3.223,3.2501,3.2501,3.2534,3.255,3.255,3.2517,3.2501,3.2501,3.2534,3.255,3.255,3.2999,3.3243,3.3243,3.3679,3.3899,3.3899,3.4692,3.5133,3.5224,3.6762,3.7529,3.1252,0.0,3.2429,3.185,3.2022,3.2158,0.0,3.1309,3.1613,3.3102,0.0,3.3068,3.4771,3.3829,3.3072,3.3867,3.366,3.3457,3.3643,3.366,3.3457,3.2886,3.2513,3.209,3.1495,3.1292,3.097,3.0395,2.9668,2.8991,2.8365,2.7638,2.7148,2.6962,2.7131,2.7232,2.7232,2.7046,2.7046,2.725,2.7046,2.7046,2.7249,2.7824,2.8179,2.8415,2.9582,3.0209,3.0395,3.097,3.119,3.114,3.0581,3.07,3.1123,3.0565,3.0717,3.119,3.119,3.0835,3.0362,3.0362,3.0734,3.119,3.119,3.119,3.119,3.119,3.119,3.119,3.119,3.119,3.119,3.119,3.119,3.119,3.119,3.119,3.119,3.119,3.119,3.119,3.119,3.1468,3.166,3.166,3.2057,3.235,3.235,3.2434,3.2501,3.2501,3.2809,3.3029,3.3029,3.2697,3.2501,3.2501,3.2842,3.3029,3.3029,3.3451,3.3666,3.3666,3.4358,3.4729,3.4729,3.5587,3.6303,3.6909,3.7327,3.7841,3.0214,3.1165,3.1934,3.2161,3.2276,3.2192,3.1802,0.0,0.0,0.0,0.0,0.0,3.3863,3.3123,3.2564,3.3359,3.2865,3.251,3.2848,3.2899,3.275,3.2344,3.2005,3.165,3.1241,3.0886,3.0531,3.0123,2.9076,2.8264,2.7824,2.7097,2.6691,2.6691,2.6691,2.6691,2.6691,2.6691,2.6691,2.6691,2.6691,2.6691,2.6708,2.7114,2.7486,2.7858,2.8686,2.9244,2.9634,3.0042,3.0194,3.0161,2.9736,2.9837,3.0125,2.9736,2.9837,3.0194,3.0194,2.9922,2.9651,2.9989,3.0378,3.0768,3.1089,3.119,3.119,3.119,3.119,3.119,3.119,3.119,3.119,3.119,3.119,3.119,3.119,3.119,3.1252,3.1449,3.1487,3.1545,3.175,3.1986,3.2109,3.2109,3.2516,3.2809,3.2809,3.2981,3.3087,3.3087,3.3314,3.348,3.348,3.324,3.3087,3.3087,3.3328,3.348,3.348,3.3694,3.3972,3.4344,3.4784,3.5206,3.5591,3.6431,3.707,3.7511,3.7878,3.8285,2.948,3.0567,3.1676,3.2803,3.2747,3.2412,3.2192,0.0,0.0,0.0,0.0,0.0,3.2564,3.2446,3.2361,3.2598,3.1921,3.1653,3.2462,3.2317,3.2144,3.2207,3.1622,3.119,3.119,3.0531,3.0057,2.9939,2.8601,2.7756,2.7638,2.7046,2.6691,2.6691,2.6691,2.6691,2.6691,2.6691,2.6691,2.6691,2.6691,2.6691,2.6691,2.6691,2.7046,2.7638,2.7756,2.8197,2.884,2.8942,2.8993,2.8993,2.8857,2.8891,2.8993,2.8857,2.8891,2.8976,2.8857,2.8908,2.9077,2.96,2.9837,3.0057,3.0666,3.0937,3.1021,3.1021,3.1106,3.119,3.119,3.119,3.119,3.119,3.119,3.119,3.119,3.1249,3.1408,3.1734,3.1861,3.2022,3.2434,3.2567,3.2599,3.2599,3.2999,3.3288,3.3288,3.3578,3.3807,3.3807,3.3807,3.3807,3.3807,3.3807,3.3807,3.3807,3.3807,3.3807,3.3807,3.3917,3.4289,3.4986,3.5261,3.5752,3.6486,3.729,3.7676,3.7694,3.8377,3.8707,3.0609,3.1412,3.156,3.1539,3.2391,3.2899,3.1647,0.0,0.0,0.0,0.0,0.0,3.3833,3.3139,3.2716,3.3969,3.3021,3.2519,3.3672,3.2417,3.1482,3.1832,3.1479,3.119,3.119,3.0531,2.9837,2.923,2.8332,2.7536,2.6894,2.6759,2.6691,2.6691,2.6691,2.6691,2.6691,2.6691,2.6691,2.6691,2.6691,2.6691,2.6691,2.6691,2.6759,2.6894,2.7536,2.7874,2.8043,2.8722,2.8993,2.8942,2.8264,2.8399,2.8925,2.8247,2.8416,2.8908,2.823,2.8433,2.8908,2.8331,2.8619,2.9196,2.9297,2.977,3.0277,3.0277,3.0717,3.119,3.119,3.119,3.119,3.119,3.119,3.119,3.119,3.1504,3.1786,3.1789,3.2109,3.2417,3.2484,3.2825,3.309,3.309,3.3433,3.3707,3.3707,3.3762,3.3807,3.3807,3.3807,3.3807,3.3807,3.3807,3.3807,3.3807,3.3807,3.3807,3.3807,3.4454,3.4876,3.5004,3.6395,3.718,3.7327,3.812,3.8524,3.8524,3.8652,3.8707,2.9911,3.0708,3.1137,3.1653,3.2899,3.3609,3.2141,3.1802,0.0,0.0,0.0,0.0,3.3055,3.2997,3.3175,3.4501,3.4121,3.371,3.386,3.2754,3.1968,3.2161,3.1443,3.0928,3.0928,2.9682,2.872,2.8383,2.7638,2.7063,2.6708,2.6691,2.6691,2.6691,2.6691,2.6691,2.6691,2.6691,2.6691,2.6691,2.6691,2.6691,2.6691,2.6691,2.6691,2.6708,2.7063,2.7215,2.7232,2.7588,2.7757,2.7723,2.7351,2.7435,2.7706,2.7334,2.7435,2.7706,2.7334,2.7452,2.7757,2.779,2.8043,2.8433,2.8874,2.9247,2.9499,2.9499,3.0311,3.119,3.119,3.119,3.119,3.119,3.137,3.1509,3.1509,3.1896,3.2299,3.25,3.2729,3.2952,3.3166,3.339,3.3522,3.3522,3.368,3.3807,3.3807,3.3807,3.3807,3.3807,3.3807,3.3807,3.3807,3.3807,3.3807,3.3807,3.3807,3.399,3.4417,3.4802,3.5426,3.634,3.7107,3.7713,3.8138,3.8524,3.8707,3.8707,3.8707,3.8707,2.9018,2.9836,3.0554,3.1741,0.0,3.3728,3.2784,3.2429,3.2192,0.0,0.0,3.1664,3.2429,3.299,3.3661,3.4695,3.4659,3.4358,3.3891,3.308,3.2534,3.2648,3.1579,3.0836,3.0836,2.9179,2.8049,2.7947,2.7266,2.6791,2.6708,2.6691,2.6691,2.6691,2.6691,2.6691,2.6691,2.6691,2.6691,2.6691,2.6691,2.6691,2.6691,2.6691,2.6691,2.6691,2.6691,2.6691,2.6691,2.6691,2.6691,2.6691,2.6691,2.6691,2.6691,2.6691,2.6691,2.6691,2.6691,2.6691,2.6793,2.735,2.7536,2.7655,2.8282,2.8658,2.8865,2.8865,2.9993,3.1211,3.1115,3.1291,3.1506,3.1506,3.175,3.1951,3.1951,3.2332,3.2761,3.3139,3.3273,3.3451,3.3748,3.3807,3.3807,3.3807,3.3807,3.3807,3.3807,3.3807,3.3807,3.3807,3.3807,3.3807,3.3807,3.3807,3.3807,3.3807,3.3807,3.4082,3.4692,3.5096,3.5917,3.7199,3.7603,3.8065,3.8707,3.8707,3.8707,3.8707,3.8707,3.8707,2.8914,2.9467,2.9848,3.1002,3.187,3.2615,3.3186,3.278,0.0,3.3119,3.2696,3.2462,3.3186,3.3719,3.4175,3.464,3.4147,3.3823,3.4199,3.3244,3.2665,3.309,3.2034,3.1269,3.1269,2.9843,2.8759,2.8382,2.7673,2.7099,2.6725,2.6691,2.6691,2.6691,2.6691,2.6691,2.6691,2.6691,2.6691,2.6691,2.6691,2.6691,2.6691,2.6691,2.6691,2.6691,2.6691,2.6691,2.6691,2.6691,2.6691,2.6691,2.6691,2.6691,2.6691,2.6691,2.6691,2.6691,2.6691,2.6691,2.6708,2.6759,2.6776,2.6793,2.686,2.7588,2.8435,2.8435,2.9823,3.1209,3.082,3.1567,3.2401,3.2401,3.2434,3.2451,3.2451,3.2809,3.3169,3.3199,3.3508,3.378,3.3807,3.3807,3.3807,3.3807,3.3807,3.3807,3.3807,3.3807,3.3807,3.3807,3.3807,3.3807,3.3807,3.3807,3.3807,3.3807,3.3807,3.3825,3.388,3.5385,3.6266,3.6376,3.7845,3.8652,3.8707,3.8707,3.8707,3.8707,3.8707,3.8707,2.8338,2.8756,2.92,3.0801,3.1413,0.0,0.0,3.2848,3.3068,3.3339,3.3045,3.2995,3.3864,3.4535,3.5132,3.563,3.5005,3.4525,3.471,3.3481,3.2635,3.2807,3.1303,3.0234,3.0234,2.9069,2.825,2.8087,2.7839,2.75,2.7099,2.7067,2.6971,2.6708,2.6691,2.6691,2.6691,2.6691,2.6691,2.6691,2.6691,2.6691,2.6691,2.6691,2.6691,2.6691,2.6691,2.6691,2.6691,2.6691,2.6691,2.6691,2.6691,2.6691,2.6691,2.6691,2.6691,2.6691,2.6691,2.6691,2.6691,2.6691,2.6691,2.6691,2.6691,2.7176,2.7721,2.7721,2.8931,3.038,3.094,3.1768,3.2501,3.2501,3.2713,3.2937,3.2937,3.3273,3.3564,3.3564,3.3694,3.3807,3.3807,3.3807,3.3807,3.3807,3.3807,3.3807,3.3807,3.3807,3.3807,3.3807,3.3807,3.3807,3.3807,3.3807,3.3807,3.3807,3.3807,3.4027,3.4527,3.5679,3.6541,3.7052,3.8138,3.8707,3.8707,3.8707,3.8707,3.8707,3.8707,3.8432,2.7733,2.8345,2.9037,3.0488,0.0,0.0,3.2141,3.2865,3.3448,3.3598,3.3386,3.3371,3.3908,3.4429,3.4932,3.5439,3.5018,3.4527,3.4289,3.3298,3.2509,3.2247,3.0792,2.9795,2.9795,2.8837,2.8188,2.8061,2.8061,2.7894,2.75,2.7485,2.7319,2.6906,2.689,2.689,2.689,2.689,2.689,2.689,2.689,2.6824,2.6691,2.6691,2.6691,2.6691,2.6691,2.6691,2.6691,2.6691,2.6691,2.6691,2.6691,2.6691,2.6691,2.6691,2.6691,2.6691,2.6691,2.6691,2.6691,2.6691,2.6691,2.6691,2.6691,2.7067,2.7485,2.7485,2.8613,2.997,3.0758,3.1545,3.2151,3.2151,3.2411,3.2704,3.2958,3.3227,3.3495,3.3752,3.3807,3.3807,3.3807,3.3807,3.3807,3.3807,3.3807,3.3807,3.3807,3.3807,3.3807,3.3807,3.3807,3.3807,3.3807,3.3807,3.3807,3.3807,3.3807,3.4045,3.4601,3.5697,3.656,3.7107,3.8157,3.8707,3.8707,3.8707,3.8579,3.8322,3.8322,3.7881,2.7132,2.8266,2.9403,2.9941,0.0,0.0,3.2124,3.2848,3.3518,3.4007,3.3824,3.3521,3.3268,3.3214,3.3332,3.3734,3.3788,3.3513,3.2693,3.2583,3.2271,3.1476,3.0687,3.0191,3.0191,2.9464,2.8839,2.8433,2.8407,2.8264,2.7926,2.7911,2.7725,2.7334,2.7319,2.7319,2.7319,2.7319,2.7319,2.7319,2.7319,2.7099,2.6691,2.6691,2.6691,2.6691,2.6691,2.6691,2.6691,2.6691,2.6691,2.6691,2.6691,2.6691,2.6691,2.6691,2.6691,2.6691,2.6691,2.6691,2.6691,2.6691,2.6691,2.6691,2.6691,2.7272,2.7897,2.7897,2.9016,3.0191,3.0191,3.0779,3.1378,3.1397,3.1397,3.1623,3.2417,3.2583,3.2821,3.3623,3.3788,3.3788,3.3807,3.3807,3.3807,3.3807,3.3807,3.3807,3.3807,3.3807,3.3807,3.3807,3.3807,3.3807,3.3807,3.3807,3.3807,3.3807,3.3807,3.3807,3.3807,3.5404,3.6303,3.6303,3.7881,3.8707,3.8707,3.8707,3.8285,3.7492,3.7492,3.707,2.6414,2.7235,2.8176,2.9093,3.026,3.1322,0.0,3.2295,0.0,3.3595,3.393,3.3995,3.3682,3.3606,3.3483,3.3028,3.2949,3.2669,3.1861,3.1274,3.0815,3.0577,2.9861,2.9354,2.9354,2.9133,2.894,2.8839,2.8827,2.8663,2.8277,2.825,2.8102,2.7722,2.7725,2.7725,2.7725,2.7725,2.7725,2.7725,2.7725,2.7363,2.6691,2.6691,2.6691,2.6691,2.6691,2.6691,2.6691,2.6691,2.6691,2.6691,2.6691,2.6691,2.6691,2.6691,2.6691,2.6691,2.6691,2.6691,2.6691,2.6691,2.6691,2.6691,2.6691,2.7272,2.7897,2.7897,2.8606,2.9354,2.9354,2.9537,3.0008,3.114,3.1397,3.147,3.1696,3.1751,3.199,3.2803,3.2949,3.3146,3.3697,3.3807,3.3807,3.3807,3.3807,3.3807,3.3807,3.3807,3.3807,3.3807,3.3807,3.3807,3.3807,3.3807,3.3807,3.3807,3.3807,3.3807,3.3807,3.5404,3.6303,3.6303,3.7881,3.8707,3.8707,3.8707,3.8285,3.7492,3.7492,3.6743,2.6931,2.7956,2.9055,2.9705,3.055,3.1225,3.13,3.2018,3.2878,3.3699,3.3993,3.4029,3.384,3.3532,3.3151,3.2674,3.2326,3.1843,3.1035,3.0503,3.0081,2.9769,2.9299,2.9005,2.9005,2.9005,2.9005,2.9005,2.9005,2.8887,2.8658,2.8645,2.8476,2.8102,2.8102,2.8102,2.8102,2.8102,2.8102,2.8102,2.8102,2.7762,2.7178,2.7003,2.6841,2.6691,2.6691,2.6691,2.6691,2.6691,2.6691,2.6691,2.6691,2.6691,2.6691,2.6691,2.6691,2.6691,2.6691,2.6691,2.6725,2.689,2.6939,2.6971,2.7131,2.7619,2.8102,2.8102,2.8533,2.9005,2.9005,2.9005,2.9244,3.0228,3.0448,3.0522,3.0852,3.0907,3.1256,3.2381,3.2601,3.2858,3.366,3.3807,3.3807,3.3807,3.3807,3.3807,3.3807,3.3807,3.3807,3.3807,3.3807,3.3807,3.3807,3.3807,3.3807,3.3807,3.3807,3.3807,3.3807,3.5404,3.6303,3.6303,3.7881,3.8707,3.8707,3.8377,3.7808,3.7015,3.667,3.5789,2.8035,2.9539,3.0965,3.1072,3.115,3.1102,3.0698,3.187,3.3247,3.3932,3.388,3.3697,3.3697,3.3091,3.2546,3.2399,3.177,3.0999,3.021,3.0099,2.9824,2.9097,2.9005,2.9005,2.9005,2.9005,2.9005,2.9005,2.9005,2.9005,2.9005,2.9005,2.8839,2.8458,2.8458,2.8458,2.8458,2.8458,2.8422,2.835,2.835,2.8133,2.7713,2.7415,2.7065,2.664,2.6539,2.6572,2.664,2.6606,2.6657,2.6758,2.6758,2.6775,2.6808,2.6808,2.6808,2.6808,2.6808,2.6808,2.6873,2.7241,2.7348,2.7424,2.7797,2.8129,2.8407,2.8407,2.8682,2.9005,2.9005,2.9005,2.9005,2.9005,2.9005,2.9207,2.9934,3.0099,3.0577,3.2179,3.2491,3.2766,3.3642,3.3807,3.3807,3.3807,3.3807,3.3807,3.3807,3.3807,3.3807,3.3807,3.3807,3.3807,3.3807,3.3807,3.3807,3.3807,3.3807,3.3807,3.3807,3.5404,3.6303,3.6303,3.7881,3.8707,3.8707,3.7896,3.7088,3.6266,3.5408,3.4564,2.6593,2.7784,2.9096,3.008,3.0798,3.1191,3.084,3.1283,3.1923,3.2397,3.2693,3.2858,3.2858,3.2711,3.2179,3.0925,3.0577,3.0173,2.9372,2.9262,2.9189,2.9023,2.9005,2.9005,2.9005,2.9005,2.9005,2.9005,2.9005,2.9005,2.9005,2.9005,2.8952,2.8863,2.8863,2.8863,2.8863,2.8863,2.8552,2.7924,2.7924,2.7404,2.6426,2.7029,2.6897,2.6189,2.5344,2.5444,2.6208,2.5942,2.6361,2.7178,2.7178,2.7363,2.7634,2.7634,2.7634,2.7634,2.7634,2.7634,2.7666,2.7736,2.7783,2.7797,2.7883,2.8129,2.8407,2.8407,2.8682,2.9005,2.9005,2.9005,2.9005,2.9005,2.9005,2.906,2.9225,2.9262,2.9721,3.1347,3.1659,3.21,3.355,3.3807,3.3807,3.3807,3.3807,3.3807,3.3807,3.3807,3.3807,3.3807,3.3807,3.3807,3.3807,3.3807,3.3807,3.3807,3.3807,3.3807,3.3807,3.5404,3.6303,3.6303,3.7881,3.8707,3.8707,3.7896,3.7088,3.6266,3.5408,3.4564,2.6614,2.7647,2.8768,2.9616,3.0298,3.0683,3.0302,3.0532,3.0876,3.1086,3.1605,3.2027,3.2027,3.1715,3.117,3.0338,2.9879,2.9482,2.906,2.9005,2.9005,2.9005,2.9005,2.9005,2.9005,2.9005,2.9005,2.9005,2.8638,2.8429,2.8429,2.8051,2.7849,2.7849,2.7849,2.7849,2.7849,2.7849,2.7629,2.7236,2.7236,2.6797,2.6015,2.6311,2.6222,2.5778,2.5221,2.5302,2.5816,2.5829,2.6191,2.677,2.7165,2.7424,2.7651,2.784,2.7897,2.7897,2.7897,2.7897,2.7926,2.8088,2.8143,2.817,2.8378,2.8545,2.8682,2.8682,2.8839,2.9005,2.9005,2.9005,2.9005,2.9005,2.9005,2.9005,2.9005,2.9005,2.9354,3.0595,3.114,3.1801,3.3018,3.3532,3.3807,3.3807,3.3807,3.3807,3.3807,3.3807,3.3807,3.3807,3.3807,3.3807,3.3807,3.3807,3.3807,3.3807,3.3807,3.3972,3.4362,3.5605,3.6303,3.6303,3.7881,3.8505,3.812,3.7327,3.6486,3.5661,3.4821,3.4273,2.6787,2.7855,2.8881,2.9298,2.9723,2.9914,2.9571,2.9751,2.9989,2.9989,3.0632,3.1195,3.1195,3.065,3.0155,3.0026,2.9427,2.9005,2.9005,2.8877,2.8785,2.8785,2.8675,2.8583,2.8583,2.8583,2.8583,2.8583,2.797,2.7585,2.7585,2.6961,2.6602,2.6602,2.6602,2.6602,2.6602,2.6602,2.6539,2.6392,2.6245,2.6016,2.5682,2.5397,2.5306,2.5366,2.5173,2.5203,2.5393,2.5676,2.5993,2.6362,2.7016,2.7407,2.7616,2.7982,2.8093,2.8093,2.8093,2.8093,2.8134,2.8407,2.8496,2.8565,2.8905,2.9005,2.9005,2.9005,2.9005,2.9005,2.9005,2.9005,2.9005,2.9005,2.9005,2.9005,2.9005,2.9005,2.9244,3.0044,3.0962,3.1861,3.2669,3.3366,3.3807,3.3807,3.3807,3.3807,3.3807,3.3807,3.3807,3.3807,3.3807,3.3807,3.3807,3.3807,3.3807,3.3807,3.3807,3.4174,3.4968,3.5844,3.6401,3.6568,3.7966,3.8377,3.7713,3.6816,3.6002,3.5271,3.4376,3.4056,2.5458,2.6685,2.8151,2.8886,2.9115,2.9155,2.9083,2.9117,2.9152,2.9152,2.9794,3.0356,3.0356,3.0265,2.9971,2.9262,2.9078,2.9005,2.9005,2.8411,2.7952,2.7952,2.7346,2.6914,2.6914,2.6914,2.6914,2.6914,2.6822,2.6759,2.6759,2.6667,2.6602,2.6602,2.6602,2.6602,2.6602,2.6602,2.6245,2.554,2.485,2.4482,2.4443,2.4403,2.4573,2.4842,2.3904,2.4029,2.4873,2.464,2.5537,2.7061,2.7169,2.7862,2.8779,2.8827,2.8839,2.8839,2.8839,2.8839,2.887,2.8905,2.8917,2.8929,2.8975,2.9005,2.9005,2.9005,2.9005,2.9005,2.9005,2.9005,2.9005,2.9005,2.9005,2.9005,2.9005,2.9005,2.9244,3.0044,3.1421,3.2706,3.3495,3.3733,3.3807,3.3807,3.3807,3.3807,3.3807,3.3807,3.3807,3.3807,3.3807,3.3807,3.3807,3.3807,3.3807,3.3807,3.3807,3.4174,3.4968,3.5844,3.6749,3.7673,3.8354,3.8652,3.8542,3.7262,3.6593,3.6439,3.5162,3.4601,2.5183,2.6152,2.7145,2.8141,2.8518,2.8716,2.8955,2.9005,2.9005,2.9005,2.928,2.9537,2.9537,2.9537,2.9409,2.906,2.9005,2.884,2.8393,2.8026,2.7622,2.7181,2.6814,2.6602,2.6602,2.6602,2.6602,2.6602,2.6172,2.5944,2.5944,2.5493,2.5254,2.5254,2.5254,2.5254,2.5254,2.5254,2.5071,2.4713,2.4373,2.419,2.419,2.419,2.4295,2.4444,2.3969,2.4026,2.447,2.4549,2.5076,2.5901,2.6345,2.714,2.7966,2.7727,2.7941,2.8338,2.8338,2.8033,2.7794,2.8712,2.8693,2.8411,2.8858,2.9005,2.9005,2.9005,2.9005,2.9005,2.9005,2.9005,2.9005,2.9005,2.9005,2.9005,2.9005,2.9005,2.9372,3.0632,3.1439,3.232,3.3587,3.3807,3.3807,3.3807,3.3807,3.3807,3.3807,3.3807,3.3807,3.3807,3.3807,3.3807,3.3807,3.3807,3.3807,3.3807,3.3807,3.4249,3.5245,3.6086,3.6818,3.7434,3.8417,3.854,3.7809,3.721,3.6463,3.5582,3.4971,3.4774,2.4877,2.5447,2.5933,2.7282,2.7853,2.8243,2.8862,2.9005,2.9005,2.9005,2.9005,2.9028,2.9089,2.8879,2.8716,2.8765,2.8555,2.8202,2.7653,2.7353,2.6972,2.6374,2.6117,2.5988,2.5988,2.5988,2.5988,2.5988,2.5429,2.5099,2.5099,2.453,2.419,2.419,2.419,2.419,2.419,2.419,2.419,2.419,2.419,2.419,2.419,2.419,2.419,2.419,2.419,2.419,2.4225,2.4511,2.4776,2.5012,2.5613,2.6331,2.7,2.671,2.6979,2.7493,2.7493,2.7108,2.6804,2.7996,2.7989,2.764,2.8455,2.8693,2.873,2.895,2.9005,2.9005,2.9005,2.9005,2.9005,2.9005,2.9005,2.9005,2.9005,2.9005,2.9482,3.1091,3.1397,3.1911,3.3513,3.3807,3.3807,3.3807,3.3807,3.3807,3.3807,3.3807,3.3807,3.3807,3.3807,3.3807,3.3807,3.3807,3.3807,3.3807,3.3807,3.4315,3.5454,3.6075,3.6655,3.72,3.8179,3.8174,3.7098,3.6965,3.6288,3.5096,3.4974,3.5008,2.4105,2.4284,2.4475,2.6392,2.7061,2.7574,2.8734,2.9005,2.9005,2.9005,2.9005,2.9078,2.933,2.8542,2.7929,2.8122,2.7358,2.6788,2.6925,2.6131,2.5503,2.5466,2.4787,2.4318,2.4318,2.4318,2.4318,2.4318,2.4281,2.4263,2.4263,2.4226,2.419,2.419,2.419,2.419,2.419,2.419,2.419,2.419,2.419,2.419,2.419,2.419,2.419,2.419,2.419,2.419,2.4208,2.4225,2.4684,2.5373,2.5409,2.5913,2.6617,2.6602,2.662,2.6657,2.6657,2.6649,2.6602,2.6693,2.6693,2.6814,2.7622,2.786,2.8026,2.8785,2.9005,2.9005,2.9005,2.9005,2.9005,2.9005,2.9005,2.9005,2.9005,2.9005,2.9482,3.1091,3.1397,3.1911,3.3513,3.3807,3.3807,3.3807,3.3807,3.3807,3.3807,3.3807,3.3807,3.3807,3.3807,3.3807,3.3807,3.3807,3.3807,3.3807,3.3807,3.4315,3.5454,3.5541,3.616,3.7461,3.7547,3.7422,3.7099,3.6587,3.6291,3.6204,3.5703,3.5479,2.3469,2.4002,2.4501,2.5671,2.6777,2.7707,2.8132,2.862,2.9005,2.9005,2.9134,2.9289,2.9382,2.9089,2.8719,2.8352,2.7997,2.7427,2.6458,2.6014,2.5587,2.508,2.4655,2.4393,2.4393,2.4275,2.419,2.419,2.419,2.419,2.419,2.419,2.419,2.419,2.419,2.419,2.419,2.419,2.419,2.419,2.419,2.419,2.419,2.419,2.419,2.419,2.419,2.419,2.419,2.419,2.4373,2.464,2.464,2.5117,2.5778,2.5254,2.5383,2.5833,2.5833,2.5493,2.5236,2.6264,2.6245,2.609,2.7412,2.7798,2.797,2.8767,2.9005,2.9005,2.9005,2.9005,2.9005,2.9005,2.9005,2.9005,2.9005,2.9005,2.9482,3.1091,3.1397,3.1911,3.3513,3.3807,3.3807,3.3807,3.3807,3.3807,3.3807,3.3807,3.3807,3.3807,3.3807,3.3807,3.3807,3.3807,3.3807,3.3807,3.3807,3.416,3.4958,3.548,3.5901,3.6209,3.6715,3.6944,3.6833,3.6656,3.6293,3.5776,3.558,3.55,2.2585,2.3299,2.4103,2.5242,2.6189,2.7072,2.7985,2.8411,2.8675,2.895,2.9203,2.9414,2.9484,2.957,2.9276,2.8261,2.7595,2.6835,2.5799,2.5623,2.5405,2.4853,2.4685,2.4591,2.4591,2.4428,2.4303,2.4303,2.4237,2.419,2.419,2.419,2.419,2.419,2.419,2.419,2.419,2.419,2.419,2.419,2.419,2.419,2.419,2.419,2.419,2.419,2.419,2.419,2.419,2.419,2.419,2.419,2.419,2.453,2.4934,2.4392,2.4548,2.5007,2.5007,2.4658,2.4373,2.5456,2.5631,2.565,2.6979,2.7585,2.797,2.8767,2.9005,2.9005,2.9005,2.9005,2.9005,2.9005,2.9005,2.9005,2.9005,2.9005,2.9482,3.1091,3.1397,3.1911,3.3513,3.3807,3.3807,3.3807,3.3807,3.3807,3.3807,3.3807,3.3807,3.3807,3.3807,3.3807,3.3807,3.3807,3.3807,3.3807,3.3807,3.4062,3.4674,3.5214,3.5495,3.5493,3.6019,3.6308,3.6308,3.6308,3.6019,3.55,3.55,3.55,0.0,0.0,0.0,2.5065,2.5207,2.5606,2.8288,2.8319,2.7989,2.8803,2.9185,2.9426,2.9652,2.9842,2.9427,2.78,2.6041,2.4938,2.5031,2.491,2.4818,2.4818,2.4811,2.4811,2.4811,2.4623,2.4512,2.4512,2.433,2.4199,2.4199,2.4199,2.419,2.419,2.419,2.419,2.419,2.419,2.419,2.419,2.419,2.419,2.419,2.419,2.419,2.419,2.419,2.419,2.419,2.419,2.419,2.419,2.419,2.419,2.419,2.419,2.419,2.419,2.419,2.419,2.419,2.419,2.475,2.554,2.6355,2.7163,2.797,2.8767,2.9005,2.9005,2.9005,2.9005,2.9005,2.9005,2.9005,2.9005,2.9005,2.9005,2.9464,3.1054,3.1378,3.1911,3.3495,3.377,3.3807,3.3807,3.3807,3.3807,3.3807,3.3807,3.3807,3.3807,3.3807,3.3807,3.3807,3.382,3.3802,3.3802,3.3815,3.4087,3.4684,3.4704,3.4963,3.5493,3.55,3.55,3.55,3.55,3.55,3.55,3.55,3.55,2.1491,0.0,0.0,0.0,0.0,0.0,2.6174,2.6667,2.7163,2.797,2.8318,2.8678,2.9353,2.9282,2.8977,2.8519,2.7644,2.683,2.6236,2.559,2.5154,2.5154,2.5024,2.4937,2.4937,2.4814,2.4716,2.4716,2.4537,2.4428,2.4428,2.4275,2.419,2.419,2.419,2.419,2.419,2.419,2.419,2.419,2.419,2.419,2.419,2.419,2.419,2.419,2.419,2.419,2.419,2.419,2.419,2.419,2.419,2.419,2.419,2.419,2.419,2.419,2.419,2.419,2.419,2.419,2.475,2.554,2.6355,2.7163,2.797,2.8767,2.9005,2.9005,2.9005,2.9005,2.9005,2.9005,2.9005,2.9005,2.9005,2.9005,2.9299,3.0338,3.0999,3.1733,3.2761,3.3421,3.3807,3.3807,3.3807,3.3807,3.3807,3.3807,3.3807,3.3807,3.3807,3.3807,3.3807,3.3986,3.4086,3.4086,3.4318,3.4603,3.4972,3.499,3.5147,3.5493,3.55,3.55,3.55,3.55,3.55,3.55,3.55,3.55,2.1291,2.1967,0.0,2.3517,0.0,0.0,2.563,2.5988,2.6319,2.7126,2.7448,2.7755,2.8267,2.8529,2.8666,2.8666,2.8365,2.7752,2.6734,2.6154,2.5712,2.5346,2.5203,2.5135,2.5135,2.4974,2.4877,2.4877,2.4719,2.4583,2.4503,2.4312,2.419,2.419,2.419,2.419,2.419,2.419,2.419,2.419,2.419,2.419,2.419,2.419,2.419,2.419,2.419,2.419,2.419,2.419,2.419,2.419,2.419,2.419,2.419,2.419,2.419,2.419,2.419,2.419,2.419,2.419,2.475,2.554,2.6355,2.7163,2.797,2.8767,2.9005,2.9005,2.9005,2.9005,2.9005,2.9005,2.9005,2.9005,2.9005,2.9005,2.9244,3.0044,3.0852,3.1659,3.2454,3.3275,3.3807,3.3807,3.3807,3.3807,3.3807,3.3807,3.3807,3.3807,3.3807,3.3855,3.3961,3.4111,3.4246,3.4401,3.4582,3.4813,3.5088,3.5105,3.5223,3.5493,3.55,3.55,3.55,3.55,3.55,3.55,3.55,3.55,2.0991,2.1646,0.0,2.3887,2.3613,0.0,2.5783,2.5591,2.5216,2.6143,2.6392,2.6525,2.6693,2.7525,2.8223,2.8317,2.8366,2.804,2.6993,2.6655,2.6252,2.5534,2.5331,2.5274,2.5303,2.5146,2.5034,2.5034,2.4897,2.4746,2.4534,2.4339,2.4201,2.4109,2.408,2.4061,2.4061,2.4061,2.4116,2.419,2.419,2.419,2.419,2.419,2.419,2.419,2.419,2.4153,2.4061,2.4153,2.419,2.419,2.419,2.419,2.419,2.419,2.419,2.419,2.419,2.419,2.419,2.419,2.475,2.5521,2.6245,2.709,2.797,2.8767,2.9005,2.9005,2.9005,2.9005,2.9005,2.9005,2.9005,2.9005,2.9005,2.9005,2.9207,2.9934,3.0723,3.1513,3.2326,3.3128,3.3697,3.3788,3.3807,3.3807,3.3807,3.3807,3.3807,3.3807,3.3829,3.3935,3.4183,3.4258,3.4434,3.4724,3.4764,3.4898,3.513,3.5138,3.5266,3.55,3.5404,3.5404,3.55,3.55,3.55,3.55,3.55,3.55,2.0991,2.1646,2.2425,2.2916,2.2462,0.0,2.3912,2.3174,2.2653,2.4326,2.4173,2.4164,2.5463,2.6005,2.6463,2.711,2.7923,2.846,2.8375,2.7065,2.6166,2.632,2.5584,2.5116,2.5279,2.5264,2.5229,2.5229,2.5065,2.4904,2.4753,2.4561,2.4138,2.3506,2.3317,2.3226,2.3226,2.3226,2.3566,2.419,2.419,2.419,2.419,2.419,2.419,2.419,2.419,2.3823,2.3281,2.3933,2.419,2.419,2.419,2.419,2.419,2.419,2.419,2.419,2.419,2.419,2.419,2.419,2.475,2.5429,2.5595,2.666,2.797,2.8767,2.9005,2.9005,2.9005,2.9005,2.9005,2.9005,2.9005,2.9005,2.9005,2.9005,2.906,2.9207,2.9879,3.0687,3.1494,3.2302,3.3041,3.3697,3.3807,3.3807,3.3807,3.3807,3.3807,3.3807,3.3999,3.4147,3.4206,3.4646,3.4944,3.5016,3.5223,3.5369,3.5424,3.5424,3.5446,3.55,3.4814,3.4795,3.55,3.55,3.55,3.55,3.55,3.55,2.0583,2.1291,2.1943,2.1873,2.1992,0.0,0.0,2.2233,2.2266,2.3372,2.296,2.2776,2.3969,2.4607,2.5079,2.5495,2.7009,2.8082,2.7886,2.7593,2.7113,2.6384,2.6,2.5636,2.519,2.5229,2.5308,2.5308,2.5111,2.4974,2.4904,2.4331,2.3817,2.3412,2.2821,2.2696,2.3102,2.3042,2.3391,2.419,2.419,2.419,2.419,2.3786,2.3602,2.3584,2.318,2.2758,2.2428,2.2841,2.3006,2.3079,2.3878,2.3951,2.3657,2.4043,2.419,2.419,2.419,2.419,2.419,2.419,2.4475,2.4879,2.5283,2.6513,2.797,2.8767,2.9005,2.9005,2.9005,2.9005,2.9005,2.9005,2.9005,2.9005,2.9005,2.9005,2.9005,2.9005,2.9335,2.9849,3.065,3.1806,3.2729,3.3146,3.3532,3.3807,3.3807,3.3807,3.3855,3.3986,3.4123,3.4327,3.4626,3.4925,3.5166,3.5289,3.5432,3.55,3.55,3.55,3.5288,3.4853,3.4007,3.3987,3.4853,3.4853,3.5084,3.55,3.55,3.55,2.0162,2.0831,2.1308,2.0985,2.1447,2.1833,0.0,0.0,0.0,2.2355,2.1816,2.1522,2.2355,2.3043,2.3584,2.3914,2.5731,2.699,2.6656,2.7662,2.7831,2.625,2.6308,2.6167,2.5382,2.5458,2.5481,2.5308,2.5152,2.5071,2.5071,2.41,2.3484,2.3333,2.2505,2.2353,2.2949,2.3028,2.3447,2.419,2.419,2.4116,2.3951,2.3299,2.2914,2.2731,2.2088,2.1702,2.1555,2.1721,2.1702,2.1721,2.3345,2.3566,2.3098,2.3896,2.419,2.419,2.419,2.419,2.419,2.419,2.419,2.4373,2.5338,2.6549,2.7769,2.873,2.9005,2.9005,2.9005,2.9005,2.9005,2.9005,2.9005,2.9005,2.9005,2.9005,2.9005,2.9005,2.9005,2.9262,3.0063,3.1421,3.2417,3.2583,3.3293,3.3807,3.3807,3.3855,3.3961,3.4183,3.4304,3.4566,3.507,3.5157,3.5273,3.5493,3.55,3.55,3.55,3.5346,3.4834,3.3975,3.3103,3.3083,3.3955,3.3955,3.4487,3.55,3.55,3.55,2.0162,2.0464,2.0609,2.0567,1.9939,1.9553,2.0414,0.0,1.9039,2.0272,0.0,1.9628,2.0598,0.0,0.0,2.2896,2.3969,2.4833,2.5479,2.6461,2.6892,2.6325,2.6148,2.617,2.64,2.6437,2.6135,2.5365,2.5274,2.5264,2.5264,2.4306,2.345,2.2718,2.242,2.2227,2.2139,2.2898,2.3578,2.419,2.419,2.3823,2.3134,2.3043,2.2611,2.1923,2.1831,2.1363,2.0713,2.1482,2.1345,2.0804,2.2474,2.3079,2.3098,2.3896,2.419,2.419,2.419,2.419,2.419,2.419,2.419,2.4483,2.6007,2.6594,2.7042,2.8565,2.9005,2.9005,2.9005,2.9005,2.9005,2.9005,2.9005,2.9005,2.9005,2.9005,2.9005,2.9005,2.9005,2.9262,3.0063,3.0944,3.177,3.2491,3.3293,3.3807,3.3807,3.4006,3.4171,3.4188,3.4676,3.5025,3.5096,3.5312,3.5479,3.55,3.55,3.55,3.55,3.4757,3.393,3.3064,3.2256,3.2237,3.3045,3.3045,3.3891,3.55,3.55,3.55,1.9346,1.9669,1.9747,1.9272,1.9216,1.9177,1.8927,1.885,1.9042,1.9802,0.0,0.0,0.0,0.0,0.0,0.0,2.3052,2.3988,2.3391,2.4874,2.5977,2.5803,2.6005,2.6085,2.5864,2.5846,2.5692,2.5327,2.5308,2.5308,2.5308,2.3971,2.3294,2.3482,2.2323,2.216,2.3049,2.3281,2.3744,2.4375,2.3893,2.3487,2.3083,2.2031,2.1422,2.1192,2.0594,2.0142,1.9822,2.0197,2.0409,2.0621,2.184,2.2593,2.3098,2.3896,2.419,2.419,2.419,2.419,2.419,2.419,2.419,2.4502,2.6117,2.6602,2.6932,2.8546,2.9005,2.9005,2.9005,2.9005,2.9005,2.9005,2.9005,2.9005,2.9005,2.9005,2.9005,2.9005,2.9005,2.9115,2.9445,3.0173,3.0815,3.1164,3.241,3.3346,3.3346,3.4008,3.4542,3.4696,3.4944,3.5155,3.5312,3.4978,3.4757,3.4757,3.4276,3.3987,3.3987,3.3199,3.2583,3.2218,3.1385,3.1365,3.2199,3.2679,3.3545,3.4757,3.525,3.55,1.8245,1.8527,1.8515,1.8068,1.836,1.8552,1.7779,1.8189,1.8874,1.9268,1.8896,0.0,0.0,0.0,1.9992,2.0366,0.0,2.285,2.1923,2.33,2.4522,2.4791,2.5691,2.6038,2.537,2.5519,2.5558,2.5327,2.5308,2.5308,2.5308,2.3947,2.3451,2.4072,2.2777,2.262,2.3791,2.3866,2.4009,2.4222,2.3596,2.3034,2.2492,2.1179,2.0498,2.0348,1.9675,1.935,1.9297,1.9297,1.9913,2.0914,2.1555,2.2428,2.3391,2.3988,2.419,2.419,2.419,2.419,2.419,2.419,2.419,2.4502,2.6117,2.6602,2.6932,2.8546,2.9005,2.9005,2.9005,2.9005,2.9005,2.9005,2.9005,2.9005,2.9005,2.9005,2.9028,2.9089,2.9112,2.9134,2.9174,2.9813,3.0321,3.0321,3.1701,3.2839,3.3082,3.3681,3.4254,3.4706,3.4601,3.458,3.4782,3.4218,3.384,3.384,3.3256,3.2795,3.2583,3.2006,3.1583,3.1346,3.0712,3.0712,3.1346,3.2391,3.3237,3.3878,3.4981,3.55,1.691,1.6933,1.6789,1.7207,1.7107,1.6953,1.7248,1.7349,1.7526,1.8138,1.8225,1.829,1.8601,1.8852,1.9308,0.0,2.0432,0.0,0.0,2.1867,2.2284,2.3241,2.5106,2.6038,2.537,2.6058,2.6212,2.5365,2.5308,2.5308,2.5308,2.4509,2.4072,2.411,2.4048,2.3942,2.3791,2.4579,2.4474,2.3528,2.3359,2.2454,2.0867,2.0822,2.027,1.9357,1.9532,1.9485,1.9297,1.9297,2.027,2.1757,2.1794,2.2767,2.4153,2.419,2.419,2.419,2.419,2.419,2.419,2.419,2.419,2.4502,2.6117,2.6602,2.6932,2.8546,2.9005,2.9005,2.9005,2.9005,2.9005,2.9005,2.9005,2.9005,2.9005,2.9005,2.9078,2.9341,2.9392,2.9454,2.9643,3.0187,3.0591,3.0591,3.1463,3.2429,3.3286,3.2907,3.2907,3.3751,3.3314,3.2962,3.2987,3.2968,3.2949,3.2949,3.291,3.2545,3.1775,3.1718,3.1288,3.0462,3.0404,3.0404,3.0442,3.2102,3.291,3.2987,3.4692,3.55,1.6082,1.6231,1.631,1.6466,1.6496,1.6501,1.6604,1.6812,1.7089,1.7516,1.7596,1.7754,1.8232,1.841,0.0,0.0,0.0,2.0217,0.0,2.0519,2.1308,2.2323,2.363,2.4676,2.5249,2.5577,2.5615,2.5327,2.5308,2.5308,2.5308,2.4548,2.4336,2.4889,2.4375,2.4317,2.48,2.5069,2.4692,2.3689,2.3114,2.218,2.0908,2.0296,1.9865,1.9619,1.9474,1.9449,1.9529,1.9931,2.0776,2.1849,2.2391,2.3254,2.419,2.419,2.419,2.419,2.419,2.419,2.419,2.419,2.4566,2.5209,2.6282,2.6979,2.7622,2.8693,2.9005,2.9005,2.9005,2.9134,2.9257,2.9257,2.9365,2.9456,2.9456,2.9456,2.9494,2.9589,2.9598,2.9626,2.9687,2.9983,3.0153,3.0011,3.0897,3.1686,3.1971,3.2447,3.2875,3.3163,3.3025,3.2891,3.2891,3.241,3.1872,3.1269,3.125,3.1115,3.0846,3.0846,3.0692,3.0404,3.0404,3.0404,3.0404,3.2083,3.2891,3.2949,3.4692,3.55,1.5012,1.5199,1.5391,1.5676,1.5802,1.5953,1.6231,1.6477,1.6763,1.7211,1.7308,1.7462,1.7964,1.8152,1.8259,0.0,0.0,0.0,0.0,1.9661,2.0552,2.1846,2.2896,2.3948,2.5086,2.4995,2.4981,2.5288,2.5019,2.5,2.5288,2.4812,2.4755,2.5288,2.4793,2.4774,2.5288,2.5308,2.4692,2.343,2.2863,2.1915,2.0615,2.0012,1.9768,1.9784,1.9613,1.9612,1.9725,2.0356,2.1121,2.1943,2.2703,2.3492,2.419,2.419,2.419,2.419,2.419,2.419,2.419,2.419,2.475,2.554,2.6355,2.7163,2.7993,2.8883,2.9145,2.9167,2.9238,2.9375,2.9504,2.9504,2.9607,2.9705,2.9705,2.9705,2.9731,2.9788,2.9804,2.9848,2.9927,3.0066,3.008,2.9837,3.0487,3.1087,3.14,3.1783,3.2141,3.2449,3.2199,3.2006,3.2006,3.1545,3.1,3.0442,3.0404,3.0404,3.0404,3.0404,3.0404,3.0404,3.0404,3.0404,3.0404,3.2083,3.2891,3.2949,3.4692,3.55]}]]